ECMWFNIL_prec_cthk_000.txt.gz
RH
34 39 42 42 41 42 42 40 37 35 34 34 33 32 32 33 34 33 30 29 30 29 26 23 21 20 20 22 23 25 27 30 31 32 32 31 31 31 31 31 31 32
32 36 40 42 42 43 44 42 37 33 32 32 30 31 32 33 36 35 32 32 31 28 25 23 21 19 21 23 25 26 26 28 29 30 31 30 30 31 31 31 32 33
34 38 41 42 42 44 46 43 38 34 32 32 31 31 31 32 34 35 33 33 32 28 25 23 21 20 22 24 25 25 26 27 28 30 33 33 33 33 32 33 35 37
40 44 47 48 47 47 47 44 40 37 33 32 32 31 30 31 32 32 33 34 33 29 26 24 22 21 22 23 23 25 27 27 27 28 30 32 33 33 34 35 36 37
43 46 48 49 49 48 47 43 41 41 37 33 32 32 33 32 31 31 34 37 37 32 28 27 25 22 22 22 24 26 28 27 27 27 28 30 32 34 35 35 36 37
41 44 47 49 48 44 42 41 40 40 39 37 37 39 39 36 32 32 35 39 40 35 30 29 27 25 24 24 25 27 28 28 29 29 30 32 33 35 35 35 35 36
38 40 42 47 47 43 39 38 38 39 41 43 45 48 49 46 39 35 37 42 43 38 32 31 30 28 27 27 27 29 30 31 31 32 33 34 34 35 35 35 36 37
40 41 40 40 41 40 40 42 44 45 44 46 50 53 56 55 49 42 40 45 47 42 36 35 34 32 31 31 31 32 33 34 34 35 35 35 35 36 36 37 38 38
42 44 43 41 39 37 42 51 54 49 47 50 53 57 61 59 54 48 45 48 50 45 40 39 37 36 34 33 34 35 35 35 35 35 37 37 37 38 38 39 38 36
45 46 47 46 44 41 44 55 59 52 50 52 53 58 62 60 58 56 52 52 53 50 46 42 39 37 35 34 34 35 35 35 36 37 39 40 41 40 39 38 38 37
49 51 53 52 52 50 50 56 60 57 53 51 52 58 60 57 61 62 58 57 58 55 51 45 40 37 34 34 35 37 38 38 40 41 42 43 43 41 39 39 40 41
53 54 56 57 60 60 55 56 62 62 57 52 54 59 60 59 62 63 60 59 60 58 55 47 40 37 36 37 39 41 42 42 43 44 45 45 44 41 41 43 44 44
59 58 59 60 65 65 60 60 65 65 60 60 63 62 58 60 62 59 57 58 59 61 57 47 39 38 39 42 44 44 45 45 45 45 44 44 43 42 43 44 45 45
55 57 61 64 68 71 68 64 64 63 60 66 75 71 61 60 59 56 54 56 59 60 55 47 41 40 42 45 46 47 49 49 46 43 41 40 40 41 42 42 42 41
56 64 71 75 76 79 77 70 67 65 61 65 76 77 68 61 59 58 56 56 59 58 54 49 44 43 45 47 48 50 52 52 47 42 38 37 38 39 39 38 38 36
60 68 73 79 83 84 81 77 74 72 66 66 75 79 73 64 61 62 61 60 60 59 56 51 47 47 49 50 51 53 55 54 50 45 40 38 38 38 37 37 37 37
60 63 67 80 90 89 84 77 71 69 69 71 79 83 79 71 65 64 64 63 61 60 58 55 52 52 55 55 56 58 59 58 54 50 45 43 40 39 39 41 41 40
57 58 65 81 89 86 80 71 65 65 68 71 77 82 82 80 74 67 63 64 64 62 62 60 58 58 60 59 60 62 64 62 59 55 51 47 43 41 41 43 43 43
56 55 61 76 82 78 75 71 68 69 69 68 71 76 80 84 82 72 66 66 65 64 66 65 63 64 64 64 64 66 68 67 64 61 57 50 45 43 43 44 44 41
57 57 62 72 77 75 73 73 74 75 73 70 70 72 76 79 79 74 71 71 69 68 70 69 67 68 69 68 69 71 71 70 68 66 60 51 44 43 45 45 42 38
57 60 63 66 70 72 72 74 79 79 77 74 72 72 74 76 76 75 74 74 74 72 71 69 69 71 72 70 72 75 75 73 72 70 63 52 44 43 45 43 39 36
57 60 61 62 67 72 75 78 81 80 78 75 72 71 75 76 75 72 70 73 75 74 73 71 71 73 73 73 77 80 80 79 77 73 64 53 47 46 44 40 36 34
57 58 59 63 70 74 77 79 81 80 78 74 69 70 75 76 73 68 69 76 80 79 79 77 76 76 76 77 81 84 85 84 81 74 63 54 50 49 45 40 36 34
52 53 55 62 67 67 69 75 80 80 78 72 68 69 73 72 70 69 75 82 85 86 86 84 82 80 78 80 85 86 88 88 82 71 60 53 50 49 46 40 37 36
47 49 53 59 63 62 64 72 74 71 68 65 65 67 67 67 69 73 79 85 88 88 86 85 85 84 83 86 90 90 90 86 77 65 56 51 50 49 44 40 38 38
47 49 49 53 58 59 57 59 59 58 61 64 64 65 66 67 71 76 81 85 88 86 82 82 85 84 84 87 89 89 88 80 69 59 53 50 50 47 43 40 39 40

ECMWFNIL_prec_cthk_003.txt.gz
RH
41 40 42 43 44 45 45 46 47 49 48 45 42 39 36 33 31 30 28 28 28 30 32 33 30 25 22 22 22 22 23 27 28 30 31 32 32 32 30 29 29 29
41 39 40 42 44 46 48 50 51 52 52 49 47 46 44 40 36 32 29 28 27 28 30 32 32 28 23 22 23 23 24 27 29 30 32 34 35 35 35 35 35 35
42 39 39 41 42 43 47 51 52 54 52 48 47 50 49 45 43 42 39 35 30 28 28 30 31 29 24 22 23 25 26 27 28 29 31 33 35 36 36 37 37 36
44 44 43 43 42 44 48 54 57 58 54 45 41 42 43 42 42 45 48 46 40 34 29 28 31 30 24 23 24 25 26 26 26 27 29 31 33 34 34 34 33 34
45 46 46 46 46 48 52 56 59 58 52 43 38 38 41 43 43 45 50 52 48 43 36 31 33 33 27 24 24 24 25 25 25 27 28 29 30 31 31 32 33 34
46 47 47 46 46 50 55 60 62 61 56 47 41 43 47 47 47 49 52 54 52 50 44 37 36 37 32 26 25 25 25 26 27 29 30 30 31 32 33 34 34 36
42 41 42 45 48 53 59 65 67 67 65 57 49 51 53 51 50 53 54 56 55 55 52 46 42 41 36 31 29 29 28 28 30 32 32 32 34 35 36 36 36 37
41 40 41 45 51 57 64 69 69 69 69 63 57 57 57 54 55 56 56 57 56 55 56 55 52 49 42 37 36 34 31 31 32 33 34 35 37 38 38 38 39 40
48 47 48 52 56 59 64 65 66 70 70 65 61 61 58 55 57 58 59 59 56 54 56 58 60 59 53 47 45 41 36 33 33 35 37 38 39 40 40 40 40 40
52 51 51 54 55 55 57 59 60 66 69 65 61 62 61 59 60 62 63 64 61 57 57 59 61 62 58 52 48 44 39 35 34 36 39 40 40 40 41 41 40 39
56 54 53 52 51 49 51 56 59 62 68 66 61 62 67 68 69 69 67 66 65 61 58 59 61 61 56 50 47 44 41 37 36 38 40 40 40 40 40 39 37 35
54 56 55 53 50 48 49 54 57 61 67 67 62 64 69 71 72 73 70 69 68 63 59 58 59 59 56 50 46 45 43 42 40 40 40 40 39 38 38 38 36 34
55 57 55 50 47 50 55 59 59 62 69 67 61 63 69 72 75 76 73 73 73 69 64 60 58 60 58 52 49 48 48 47 46 43 42 40 38 38 39 38 37 36
54 57 53 46 46 53 61 63 63 66 71 69 63 64 70 75 78 75 72 74 77 77 73 66 61 61 60 55 52 53 52 51 50 47 45 44 41 40 41 40 39 39
53 57 56 51 49 51 55 62 67 70 74 73 68 67 70 73 74 71 70 72 76 79 78 71 65 62 61 59 56 55 56 56 56 54 51 50 48 46 45 44 43 42
52 57 60 58 55 54 52 55 62 69 76 76 69 67 70 72 73 73 72 72 73 77 78 74 70 66 64 63 61 61 62 61 62 62 59 57 55 53 52 49 46 45
52 56 58 59 61 61 58 58 63 71 80 82 77 74 74 76 78 78 76 72 71 74 77 76 75 72 70 69 66 65 68 68 68 69 67 65 62 58 57 54 52 51
53 54 57 61 67 69 71 73 71 68 73 79 82 80 77 77 80 79 80 79 74 73 77 79 78 77 76 74 69 69 72 74 73 73 73 71 69 65 63 61 60 61
54 56 60 67 73 74 73 72 67 60 60 67 73 74 72 75 80 82 84 85 78 72 75 80 80 79 79 77 74 73 75 75 74 75 76 76 75 72 69 68 67 68
56 57 60 64 67 67 65 64 63 59 57 58 62 66 68 73 80 84 82 81 79 75 74 76 77 77 79 80 78 77 77 77 78 78 77 77 78 77 75 73 73 73
53 54 55 57 59 61 61 60 61 60 55 53 56 63 67 66 68 74 76 79 81 75 70 72 77 78 81 83 81 79 80 80 80 78 77 78 79 79 78 77 77 77
52 55 57 56 55 56 56 56 57 56 54 52 55 64 66 58 57 66 76 82 81 73 69 74 78 80 83 84 82 81 81 80 79 77 77 78 80 81 80 80 79 76
53 56 57 54 53 52 50 50 52 53 54 53 55 63 63 57 60 71 76 76 74 71 71 75 78 81 84 83 82 82 81 80 79 78 78 78 80 83 83 80 77 73
55 56 55 54 54 52 48 47 48 51 52 51 52 57 57 57 65 73 73 68 67 69 72 74 75 78 80 81 83 84 83 83 82 80 79 80 82 85 84 78 74 71
55 56 57 57 56 53 48 46 48 50 50 47 48 52 53 56 63 68 68 65 64 68 73 74 74 76 78 82 84 83 81 80 79 79 80 80 83 83 80 75 73 68
55 58 61 60 57 54 50 48 50 52 50 47 49 51 52 55 58 59 63 66 66 68 72 73 74 77 79 81 82 82 81 78 75 76 78 79 80 78 75 74 70 63

ECMWFNIL_prec_cthk_006.txt.gz
RH
39 40 40 39 38 37 38 40 41 42 43 46 51 53 53 54 54 54 56 58 53 46 42 40 38 38 39 38 31 28 30 32 32 32 31 28 26 28 31 32 33 33
43 44 43 41 40 40 42 43 44 45 46 48 52 54 56 58 56 52 53 55 52 51 51 50 48 45 44 45 40 34 33 33 32 33 31 30 29 29 31 34 37 38
43 44 43 43 43 43 45 45 45 47 48 50 52 53 55 57 55 49 48 50 51 55 58 58 58 54 50 51 48 41 35 33 33 34 34 32 31 32 35 38 41 42
40 44 46 47 47 47 48 50 50 50 51 53 55 58 59 57 55 51 47 48 51 55 59 61 64 63 59 56 53 46 39 35 34 34 35 35 33 33 35 38 40 42
39 44 47 49 50 51 53 56 56 54 55 58 60 63 64 61 61 58 52 50 52 55 60 63 65 66 64 60 57 51 43 39 37 35 35 36 36 35 36 38 39 41
39 43 47 48 50 52 53 55 54 53 58 64 66 68 67 63 62 61 57 54 57 63 68 70 70 70 68 63 59 55 48 42 40 40 39 37 37 37 38 40 40 42
41 45 47 49 52 53 53 53 53 55 62 67 68 68 66 61 58 59 58 58 63 71 74 72 70 69 68 64 59 56 54 47 42 43 43 41 42 41 40 42 44 46
46 47 48 50 52 52 51 54 55 57 61 63 64 65 63 58 55 55 57 60 65 72 72 69 67 65 65 65 63 60 59 56 53 50 47 47 48 48 46 47 48 50
48 48 47 47 48 50 52 55 54 52 54 58 61 64 63 59 56 55 57 60 65 69 69 68 68 67 65 65 66 64 59 59 59 58 56 55 54 53 53 51 50 51
48 47 45 44 47 50 52 55 53 49 51 56 61 65 64 61 59 59 59 60 63 69 72 72 71 71 70 68 66 64 59 56 57 59 60 59 55 54 54 49 45 48
45 45 44 46 50 50 49 53 55 54 55 59 62 64 64 63 61 60 60 62 64 70 74 75 74 71 71 71 68 65 61 58 59 61 59 57 53 51 51 46 43 47
43 43 44 48 50 50 50 52 53 55 60 62 62 65 66 65 62 58 58 61 63 64 67 70 72 69 67 70 68 65 65 63 64 64 61 57 53 49 51 54 51 49
44 45 49 54 57 58 58 55 52 57 64 66 66 68 66 59 55 55 59 62 62 60 61 65 69 68 68 71 68 64 67 69 70 71 66 61 58 55 58 64 60 54
47 52 60 64 63 64 63 58 55 58 65 68 68 66 57 47 45 50 55 61 61 61 62 64 67 68 68 72 72 68 69 72 74 76 73 68 64 62 65 69 65 60
53 61 65 64 63 64 65 62 59 57 60 62 59 53 46 44 45 45 44 49 53 57 61 62 66 70 66 65 69 69 69 72 75 76 77 74 71 68 70 73 73 68
56 60 60 57 57 62 66 64 55 48 45 46 45 43 43 47 51 46 39 41 46 52 56 56 60 66 64 60 64 68 69 73 76 76 75 75 73 73 73 75 77 76
53 52 49 47 49 55 63 64 54 44 40 40 40 40 40 45 51 49 43 40 43 48 51 50 52 60 65 64 66 69 71 74 77 78 77 75 74 74 75 76 79 78
50 48 44 46 48 51 56 58 54 50 46 43 41 41 41 43 48 51 47 43 42 44 47 48 49 58 67 68 69 71 73 77 79 80 81 80 77 74 75 78 80 80
51 48 45 47 49 51 54 56 55 54 51 48 46 45 44 43 46 50 51 49 46 45 48 49 50 57 65 68 71 74 75 78 82 82 83 83 80 77 76 79 81 82
55 53 52 53 53 55 57 55 53 54 55 53 51 48 45 43 45 51 52 50 48 48 52 54 54 60 64 68 74 76 74 76 79 81 83 84 82 81 80 81 82 83
58 58 59 58 55 55 53 50 51 54 56 56 53 50 47 45 47 52 51 48 49 53 57 58 59 65 71 75 78 77 72 71 73 77 83 84 83 83 83 82 81 80
54 55 56 54 53 53 50 49 52 55 57 60 60 58 54 51 51 52 50 50 54 58 59 59 61 69 77 80 79 75 68 66 68 74 80 82 82 83 83 82 81 80
50 51 52 51 52 52 51 51 54 57 61 67 69 68 66 61 56 53 51 51 55 58 59 60 63 69 76 78 77 71 66 64 68 73 78 79 79 81 82 81 81 80
44 48 49 49 50 50 51 55 60 65 68 71 72 72 72 67 61 58 55 53 55 57 59 61 65 69 73 75 72 67 65 67 70 73 78 80 80 79 78 77 75 75
42 46 48 49 49 49 52 60 67 71 74 74 74 73 71 68 64 62 59 56 57 58 57 59 66 70 72 73 72 68 67 68 71 73 75 76 73 70 70 69 69 69
40 44 47 48 49 52 57 64 71 75 75 74 76 74 70 65 63 60 58 56 58 60 59 57 62 69 74 73 70 68 68 69 70 68 66 64 62 62 64 64 62 63

ECMWFNIL_prec_cthk_009.txt.gz
RH
26 27 30 32 34 37 42 45 45 44 45 47 46 46 46 48 51 51 52 53 54 55 53 47 44 44 50 52 49 48 54 52 42 36 34 34 33 31 32 32 34 35
28 30 33 36 38 39 42 44 46 45 44 44 47 52 55 57 60 58 57 57 58 58 57 52 49 45 50 59 56 50 54 58 54 45 39 36 34 32 33 35 37 39
31 33 35 38 41 42 43 43 44 44 45 45 48 55 60 62 64 61 57 58 58 58 56 55 55 51 51 61 65 59 59 62 61 55 48 44 39 34 34 35 37 38
33 35 36 37 41 45 45 45 46 46 49 53 56 59 62 63 64 60 56 57 58 59 59 57 58 59 58 61 67 69 69 68 66 62 56 53 50 44 38 35 35 36
34 36 39 38 39 44 47 50 53 55 57 60 64 64 63 61 60 59 59 59 57 59 65 64 62 65 65 64 67 71 74 73 71 70 65 60 57 54 48 41 36 36
34 37 39 39 38 42 48 54 58 61 64 66 67 64 59 56 57 60 64 63 61 63 68 69 66 67 69 69 70 73 75 76 76 75 73 69 64 60 56 50 43 39
33 34 37 42 44 46 51 55 59 61 64 69 69 62 56 54 56 61 64 63 63 65 63 62 63 65 66 68 68 71 74 75 76 75 72 71 70 66 62 58 53 47
31 32 37 44 52 56 56 55 56 56 58 64 65 60 56 57 58 62 64 59 56 56 54 55 61 63 63 62 60 62 66 68 72 74 72 71 71 70 69 65 60 56
30 34 40 46 55 62 59 56 59 58 57 60 61 59 58 59 61 61 61 55 47 45 48 53 59 59 58 58 58 60 61 62 68 75 77 75 70 69 71 70 65 62
32 36 42 50 57 58 55 58 64 62 58 57 56 57 56 57 58 58 57 55 47 38 40 47 52 54 54 56 58 60 59 60 66 72 75 75 69 65 69 73 71 67
33 39 46 53 55 52 53 58 62 60 58 56 52 53 53 51 52 52 51 51 44 35 33 37 40 45 49 51 53 55 53 54 61 67 70 71 67 63 68 74 76 74
35 42 49 51 48 48 51 55 57 55 54 51 47 46 45 43 42 42 42 42 39 35 33 33 34 38 41 43 45 49 48 49 55 60 65 68 64 64 70 75 79 79
43 47 48 47 48 50 50 50 52 49 45 43 43 42 41 39 38 38 39 40 38 37 35 35 37 39 39 40 42 46 47 48 54 59 63 65 61 62 71 77 80 80
51 49 44 42 46 48 46 44 44 43 42 41 41 40 39 40 38 37 39 40 40 42 41 38 40 43 43 41 43 47 49 50 55 58 60 62 60 60 66 73 78 82
50 48 44 41 40 41 41 41 38 39 41 41 41 40 38 37 36 37 40 41 42 47 48 44 43 45 46 44 45 48 51 53 55 56 58 63 65 64 66 70 76 81
49 48 48 45 41 39 42 43 41 40 41 42 44 44 41 38 38 39 43 46 48 52 53 50 48 47 47 47 47 49 52 54 56 56 57 62 67 68 69 72 74 77
48 48 49 47 44 44 46 46 45 43 43 45 46 45 42 40 39 40 45 50 55 59 58 55 52 48 46 46 46 48 50 53 57 59 58 62 67 69 70 72 73 74
47 47 47 47 47 48 48 47 47 47 48 50 50 47 45 43 40 41 45 50 56 61 61 58 56 51 47 45 45 48 49 51 58 64 62 63 68 70 71 74 75 74
47 47 48 49 50 50 51 51 52 54 56 57 56 52 48 45 40 40 44 49 53 59 61 61 60 55 50 48 47 48 50 53 61 68 69 68 70 71 72 75 77 76
48 49 50 49 49 51 55 57 58 60 61 60 57 53 50 47 41 40 45 49 52 58 61 63 65 61 55 53 50 49 51 55 63 71 75 73 72 74 76 76 77 77
48 50 51 50 52 57 62 64 64 63 61 58 55 53 52 49 44 44 49 51 54 60 63 66 68 64 59 56 53 52 53 58 66 72 74 74 75 76 75 75 75 74
50 53 54 53 57 61 64 65 63 60 58 56 55 53 52 50 49 51 54 57 60 62 66 69 67 63 61 57 54 54 57 62 68 72 73 74 74 71 70 73 76 76
55 57 57 56 57 59 61 61 59 56 56 56 55 54 53 52 54 58 61 65 66 66 69 70 64 60 61 58 56 58 58 60 65 69 72 72 69 70 72 74 75 74
55 55 55 55 56 58 59 59 58 57 58 58 58 57 56 54 55 60 65 69 69 68 70 68 62 60 62 60 60 61 60 59 61 65 70 68 65 71 76 75 73 72
51 51 52 53 53 56 58 59 60 61 60 60 60 59 57 55 57 62 66 68 68 68 67 65 62 63 64 62 62 61 60 62 63 66 69 65 63 73 78 73 69 69
48 51 54 55 55 58 61 61 61 62 61 60 59 57 57 58 61 64 65 65 66 65 63 61 61 64 64 62 61 59 60 64 67 67 66 63 66 76 77 68 63 62

ECMWFNIL_prec_cthk_012.txt.gz
RH
28 30 29 29 31 33 34 34 33 35 36 36 35 35 36 39 40 43 48 49 46 46 45 41 41 43 48 49 49 54 56 58 64 67 66 65 61 57 55 51 45 40
30 31 30 30 31 32 35 37 35 36 38 38 38 38 40 41 43 46 51 51 46 45 44 41 43 44 46 48 48 49 51 53 59 65 68 69 71 70 64 59 55 51
32 32 30 30 30 31 35 38 39 40 40 40 42 44 45 45 48 51 51 49 48 49 48 45 44 43 44 47 49 49 50 52 56 61 65 65 67 71 71 69 66 62
33 32 30 30 30 31 33 36 40 43 42 41 43 47 48 49 51 51 50 49 50 52 52 47 42 41 42 45 49 50 50 53 57 63 68 66 62 65 70 72 73 69
33 31 30 31 31 31 31 33 38 40 41 41 44 48 51 53 54 53 52 53 53 55 53 48 43 41 41 44 48 50 50 53 57 63 69 69 65 64 64 65 68 66
31 30 30 32 31 30 30 32 35 39 41 43 46 49 53 55 56 56 54 54 54 55 53 49 45 40 36 38 41 44 47 51 53 56 58 59 58 59 61 64 66 65
29 28 29 30 29 30 31 31 36 42 44 45 49 52 54 54 55 54 52 51 52 52 50 46 41 36 33 34 35 37 39 41 45 48 49 49 49 51 56 62 65 65
27 27 28 28 28 30 32 34 39 46 48 49 53 55 53 51 50 48 47 47 46 45 44 40 36 34 33 33 34 36 37 36 39 44 48 50 50 50 54 58 59 59
28 28 26 26 28 30 32 36 41 47 49 52 55 55 50 45 43 43 43 43 43 42 42 40 37 37 36 35 36 37 38 38 37 40 45 48 49 49 51 54 57 56
29 29 27 27 29 29 30 36 42 46 48 49 51 49 45 42 41 43 43 43 42 42 44 45 44 42 40 39 39 39 39 39 38 38 41 46 48 48 47 50 53 56
28 29 30 30 30 30 30 35 43 45 43 42 44 42 42 43 44 44 44 43 42 42 44 46 46 44 42 41 42 43 42 41 39 40 43 48 51 51 49 49 51 57
26 27 31 33 32 32 33 37 41 41 38 39 41 41 41 43 44 45 45 43 42 42 43 45 46 44 42 42 44 45 46 45 43 41 45 50 53 53 52 51 51 57
28 27 31 33 34 34 36 38 39 39 39 40 41 41 41 42 44 46 47 46 44 42 43 45 48 47 44 42 43 46 49 49 47 45 45 49 52 53 53 53 53 56
31 30 31 32 34 36 38 38 38 40 42 42 41 40 41 43 45 47 49 50 47 43 42 44 47 48 47 43 42 44 49 52 51 48 47 48 52 55 55 56 56 57
32 34 35 35 37 39 40 39 40 41 43 44 44 42 42 44 46 47 50 52 49 44 44 45 45 46 47 46 44 45 49 53 54 53 51 49 52 55 55 56 57 60
35 38 40 40 40 41 40 40 42 43 43 45 45 44 45 47 47 47 50 53 50 46 47 49 47 45 47 50 50 50 52 55 56 57 55 52 51 54 54 54 57 62
34 39 43 44 43 42 43 44 45 45 46 46 46 46 48 49 49 49 51 54 53 50 50 51 48 46 49 53 57 58 58 58 58 58 57 53 51 53 53 54 59 64
33 40 45 47 48 47 47 48 48 50 51 51 50 48 48 49 51 52 54 56 56 54 52 50 48 48 50 55 61 63 61 61 61 60 58 54 50 52 55 57 60 64
35 41 45 49 50 50 50 50 51 52 53 52 50 48 48 49 51 53 56 58 58 56 53 49 47 47 49 55 61 64 63 64 63 61 59 55 52 53 57 60 62 64
39 43 46 50 52 53 53 52 52 51 50 49 48 47 48 51 55 58 60 59 57 54 51 48 46 45 49 53 58 63 66 66 64 61 58 55 56 59 61 63 64 65
41 44 48 51 52 52 53 52 51 50 48 47 48 48 51 56 59 59 57 56 54 51 49 48 46 46 48 51 57 64 68 67 65 62 57 55 58 62 64 66 68 67
40 45 49 52 52 51 51 51 51 50 49 50 53 56 57 57 56 55 54 54 53 50 48 48 48 49 52 54 58 64 67 68 66 61 57 56 59 61 63 66 69 71
41 46 50 51 51 51 52 52 52 51 52 55 59 59 56 54 54 55 56 56 54 51 51 52 52 53 55 56 58 60 62 64 62 58 57 58 59 61 63 66 69 71
41 45 49 50 51 51 52 52 53 54 56 57 59 57 56 57 58 58 58 58 56 54 53 54 54 54 54 54 54 55 56 56 56 56 57 58 60 63 64 65 66 66
46 48 49 50 50 50 53 54 56 57 59 61 62 61 62 62 61 59 58 58 55 53 53 54 55 54 52 51 50 50 52 54 55 57 57 59 61 62 61 61 62 64
49 49 50 51 51 52 54 57 57 58 62 65 66 66 66 65 62 58 56 56 54 53 52 52 52 50 49 49 49 50 53 56 58 58 58 59 61 60 59 59 60 64

ECMWFNIL_prec_cthk_015.txt.gz
RH
16 18 21 24 27 29 31 33 32 30 28 27 29 33 33 34 38 40 42 45 44 45 49 53 54 50 43 39 41 44 48 50 49 49 48 47 46 46 49 52 56 60
18 19 23 26 29 31 32 32 31 29 27 28 32 34 36 40 45 46 47 47 45 46 50 51 51 47 41 38 35 36 40 43 42 40 41 41 39 38 39 43 48 51
23 23 26 29 31 32 32 32 31 29 27 30 34 36 41 47 51 51 51 50 48 48 50 49 46 42 40 37 33 31 33 35 34 33 35 37 37 35 37 40 43 45
25 27 30 32 32 32 32 33 32 30 30 32 35 38 45 51 52 52 54 53 51 49 49 48 44 40 38 36 32 30 31 32 33 32 33 36 38 37 38 41 44 47
23 27 31 32 33 32 32 32 32 31 32 33 37 42 47 50 52 53 53 52 50 48 47 46 44 39 36 33 32 32 32 33 34 34 33 36 38 39 41 43 46 49
24 27 29 31 32 31 30 30 30 30 32 36 42 45 47 50 52 49 47 46 45 44 43 42 42 40 35 33 33 33 33 33 34 34 35 37 39 40 42 44 46 48
27 27 28 29 30 29 28 29 29 30 34 40 45 47 49 51 48 43 41 41 40 40 40 40 39 39 37 34 32 32 32 32 33 35 37 39 41 42 42 44 46 47
28 27 27 27 27 27 28 29 29 30 36 43 48 49 49 46 41 40 40 39 38 39 39 39 38 39 39 36 33 33 34 34 34 36 40 42 44 45 45 46 46 46
26 26 25 26 26 27 27 28 29 32 39 45 47 45 42 39 38 38 39 38 39 39 39 39 38 39 41 40 37 36 37 39 41 43 45 47 47 48 48 50 50 49
27 26 26 26 26 26 26 27 29 34 41 45 44 39 36 36 37 37 38 39 40 41 42 42 41 41 43 43 41 38 38 40 42 45 47 48 48 49 49 51 52 52
28 28 26 25 25 25 25 27 30 36 42 41 38 35 34 35 36 38 39 40 41 43 45 46 47 47 46 46 42 39 38 39 41 42 44 46 47 48 50 50 51 52
30 28 25 24 24 24 25 27 31 37 40 37 33 33 33 34 35 38 39 40 42 44 46 48 50 49 50 50 48 43 38 38 41 41 41 44 46 49 50 51 51 53
30 27 24 23 22 23 24 26 30 35 37 34 32 31 31 32 36 38 40 42 42 44 46 48 50 51 52 54 54 49 42 39 41 42 42 44 47 50 52 53 55 58
31 27 24 22 20 22 24 26 29 33 36 35 33 31 30 31 35 38 40 42 42 44 46 49 51 53 53 55 57 54 45 39 39 43 44 46 49 51 53 55 59 61
32 28 26 23 21 22 24 27 29 32 35 36 35 34 33 33 35 39 41 43 44 46 48 51 53 54 55 56 56 53 46 38 37 42 45 48 50 52 53 57 61 61
33 30 29 28 25 24 25 27 28 31 34 37 38 39 39 39 40 43 45 46 48 50 53 54 56 56 56 56 54 51 46 40 37 40 45 49 51 52 54 58 62 62
34 32 31 31 28 27 27 28 29 33 37 41 43 45 46 47 47 48 49 51 52 55 57 57 58 59 58 58 56 53 50 44 40 41 45 49 51 53 56 60 63 63
36 35 32 31 31 32 32 33 35 39 44 47 48 49 50 51 52 52 52 53 56 59 60 60 59 60 61 61 59 57 55 51 47 45 47 50 53 56 61 64 64 63
36 36 34 34 36 37 38 39 42 46 49 51 51 51 52 53 54 54 54 56 59 60 60 60 61 63 64 64 62 60 59 58 54 50 50 54 57 61 66 67 63 60
35 36 38 40 41 42 43 44 47 50 51 52 52 52 53 53 53 54 55 58 60 59 59 60 62 63 65 64 62 59 59 61 60 56 55 57 60 62 64 63 58 57
34 38 42 45 46 46 47 48 50 51 53 53 53 53 53 53 53 53 55 57 58 59 59 59 59 59 60 60 59 56 57 60 60 56 54 56 59 59 57 56 55 58
33 39 43 46 47 49 50 51 51 52 52 53 53 53 54 53 52 53 55 56 57 59 59 59 58 56 55 55 55 53 54 55 53 51 51 54 58 58 54 54 58 63
31 37 41 44 46 48 51 52 52 52 51 52 53 53 54 52 52 53 54 54 57 59 60 60 58 54 51 52 51 49 48 48 47 48 48 50 55 57 55 57 62 65
30 34 39 43 45 47 50 52 53 52 52 52 53 54 53 53 53 54 54 56 60 62 62 60 55 51 50 50 50 48 46 46 47 48 47 45 47 50 53 56 59 62
31 34 37 42 45 47 49 52 53 53 52 53 54 55 54 54 55 54 54 59 63 63 62 59 54 53 53 52 52 52 50 48 48 48 46 44 44 46 49 53 56 60
33 35 38 42 45 46 49 52 53 52 53 56 57 57 56 56 56 55 56 60 63 63 62 58 54 53 54 53 53 54 52 49 49 48 48 47 47 48 51 55 58 60

ECMWFNIL_prec_cthk_018.txt.gz
RH
26 21 17 16 16 17 19 24 28 31 32 31 28 28 30 30 31 34 39 44 44 44 47 50 51 49 44 40 36 32 33 34 32 31 32 32 32 34 36 38 40 43
30 25 20 17 17 18 20 24 27 31 31 29 27 29 32 32 33 37 42 46 46 46 47 47 47 46 43 41 36 31 31 33 34 33 33 34 34 35 37 39 40 44
33 29 24 21 20 20 23 26 29 32 32 29 29 32 34 35 37 40 44 47 48 46 44 43 43 42 40 39 35 31 31 33 33 33 34 35 36 36 38 40 41 44
32 29 26 24 24 25 27 29 31 33 32 31 32 35 36 38 41 43 45 48 48 43 40 39 39 38 38 37 34 32 32 33 33 34 35 35 35 37 39 41 43 46
28 26 24 23 25 27 29 31 32 32 32 33 35 37 39 41 44 46 47 48 45 41 39 37 37 37 37 34 32 31 32 33 35 35 36 35 36 39 40 41 43 46
26 23 21 20 22 25 29 32 32 32 32 34 37 39 42 45 48 48 46 45 43 41 39 36 36 36 34 31 30 31 32 34 35 37 37 37 38 40 41 41 42 46
25 22 20 20 22 25 29 31 31 32 33 35 38 41 45 49 51 48 44 43 42 40 37 35 35 35 33 31 31 31 32 34 36 36 37 38 39 40 40 40 42 46
24 24 22 23 26 27 28 28 29 31 34 37 39 43 48 51 49 46 43 42 41 39 37 35 34 35 36 37 37 35 35 37 36 36 36 37 37 38 39 40 43 45
24 25 26 27 27 27 26 26 28 31 33 38 42 45 49 48 45 42 41 40 39 38 36 36 36 37 40 44 44 42 39 39 38 37 36 36 37 38 39 40 43 45
24 24 26 28 27 25 24 25 28 30 32 37 43 47 46 43 41 39 38 37 38 39 39 40 41 43 46 49 49 47 45 43 42 39 38 38 38 38 39 40 42 45
25 23 24 26 26 24 23 25 28 30 31 37 45 47 44 40 39 38 37 37 38 40 42 43 45 47 49 51 52 52 51 48 44 42 41 41 40 39 39 41 42 44
29 25 23 23 23 23 23 25 28 29 32 39 46 45 41 39 37 37 37 38 39 41 43 45 47 48 49 52 53 54 54 50 45 43 44 45 44 41 40 41 43 44
32 29 24 20 21 22 22 25 27 28 32 41 45 42 39 37 37 37 37 38 39 42 43 45 47 49 50 53 55 54 53 52 48 44 44 47 48 44 42 41 42 44
33 32 26 20 20 21 22 25 27 27 31 40 42 38 37 37 36 37 37 38 40 42 44 46 48 50 53 56 57 57 55 53 50 46 44 46 49 47 43 41 42 44
33 33 30 24 21 21 22 24 26 27 31 37 38 35 35 36 37 38 40 41 42 44 46 47 49 52 56 58 59 60 59 56 53 49 46 46 48 48 44 42 42 44
34 34 33 29 24 22 21 22 25 27 30 35 35 33 34 36 38 41 43 43 43 45 47 48 51 55 58 60 61 62 62 60 56 53 51 48 48 47 45 44 44 45
34 34 35 32 27 24 22 22 24 27 31 34 35 33 34 36 39 42 43 42 43 44 46 49 54 59 61 63 64 65 66 66 63 60 57 53 50 48 48 49 48 50
34 34 35 34 31 27 24 23 25 28 31 35 35 34 35 38 41 42 42 42 43 45 49 53 58 63 65 67 68 70 72 72 70 66 63 60 56 53 53 53 54 55
33 34 34 34 32 30 28 28 29 31 32 34 34 35 37 40 43 44 45 45 47 49 52 56 62 65 66 67 69 72 74 75 72 68 67 66 64 59 56 56 57 58
33 33 33 33 33 33 33 33 34 35 35 36 38 39 40 42 44 47 49 50 52 53 54 59 63 65 64 64 67 70 71 71 69 67 67 68 67 63 58 54 55 56
33 33 32 32 34 36 37 38 39 41 41 42 43 43 42 43 47 50 52 53 54 55 57 61 63 62 61 62 64 65 66 65 64 63 65 65 65 62 58 53 52 53
32 32 32 32 34 37 40 42 43 45 46 46 46 45 45 48 50 52 53 54 56 57 59 62 61 60 59 60 62 63 62 62 61 62 62 60 58 57 56 53 51 51
31 32 33 32 34 37 40 42 43 44 46 46 46 47 49 51 53 54 55 56 57 59 61 61 60 59 60 61 62 62 62 61 61 60 58 56 54 55 55 53 50 50
31 32 33 32 33 36 39 43 45 46 46 46 47 49 51 52 54 56 57 57 58 60 61 59 59 59 60 62 63 64 63 62 61 59 58 57 56 56 56 54 49 49
32 33 33 32 33 36 40 44 47 48 48 49 50 51 51 52 54 58 59 59 61 61 59 58 58 59 59 61 62 62 62 62 61 61 61 59 57 56 57 55 49 48
36 35 34 32 33 38 43 46 47 49 50 51 53 53 52 53 56 58 60 61 62 60 57 57 58 58 57 57 57 58 60 60 60 63 63 59 56 56 56 53 49 48

ECMWFNIL_prec_cthk_021.txt.gz
RH
31 31 29 27 25 24 23 22 21 22 25 30 32 33 35 35 34 33 35 39 43 45 47 48 48 48 46 43 37 33 33 35 37 38 37 37 37 38 40 41 41 42
32 32 32 30 28 25 24 23 22 22 25 31 34 34 35 33 31 30 33 39 43 44 47 49 49 47 45 41 35 32 33 32 34 37 37 36 35 35 37 39 39 40
33 34 33 32 30 27 24 23 23 23 26 32 35 35 34 32 30 30 34 40 42 43 45 48 47 45 43 40 36 35 33 30 31 35 36 36 34 34 36 38 38 39
33 33 33 33 32 31 28 25 23 24 27 33 35 35 33 31 30 31 36 41 43 44 45 45 44 43 41 39 37 37 34 31 30 34 36 36 36 36 37 38 38 38
31 31 31 32 32 33 30 25 23 24 28 33 35 35 33 31 31 33 38 43 46 47 44 43 42 40 39 38 37 36 34 32 33 35 37 37 37 37 37 37 37 38
31 30 29 31 32 32 30 25 24 25 29 32 34 34 32 31 33 37 40 45 49 46 42 41 40 39 37 36 36 35 34 35 36 37 38 38 38 36 36 36 36 37
31 30 29 29 30 30 29 26 24 26 29 32 33 33 31 31 35 40 42 45 48 44 41 41 39 36 35 34 34 35 36 37 40 41 42 42 40 39 37 36 36 37
31 30 29 28 27 27 26 25 24 26 29 31 32 32 30 31 37 42 44 45 45 43 41 41 38 35 35 35 36 37 38 40 43 44 45 45 44 43 42 40 40 40
32 30 29 27 26 24 23 23 23 25 29 32 32 31 30 34 40 44 45 44 44 43 41 39 37 37 37 38 40 41 42 44 45 45 45 45 47 47 46 45 44 43
33 31 30 28 25 24 23 23 24 27 30 31 31 30 32 37 42 46 46 45 44 42 39 37 38 39 40 41 44 46 48 48 48 46 46 47 49 49 49 48 47 46
34 32 31 28 26 26 26 26 27 28 29 29 30 30 33 39 45 48 47 44 42 40 38 37 39 41 43 45 47 50 51 51 51 50 48 49 51 51 51 51 49 48
36 33 32 30 27 26 29 30 29 27 27 27 29 31 35 42 47 47 45 43 41 39 39 40 41 43 45 47 49 51 52 53 53 53 50 50 52 51 51 52 52 50
38 35 32 32 29 25 27 31 30 26 24 25 28 30 35 43 48 47 44 43 42 40 41 42 43 45 47 47 49 50 52 53 54 55 53 52 52 51 51 52 54 53
39 37 34 33 32 28 26 28 29 27 24 24 27 29 33 42 48 45 43 44 43 42 43 44 46 47 46 47 49 50 52 53 54 55 55 53 53 53 52 53 55 55
40 38 36 35 34 31 27 27 28 28 25 25 26 28 33 42 46 43 42 43 44 44 44 45 46 46 45 46 49 51 52 53 53 54 54 55 57 57 54 52 54 56
40 39 36 36 36 34 30 27 28 29 28 27 26 27 35 43 45 41 41 43 44 45 45 45 45 46 46 48 50 52 54 53 52 52 54 58 61 61 56 51 51 55
42 40 37 36 37 36 33 30 29 30 30 29 27 29 36 43 43 40 40 43 44 45 45 44 44 46 48 49 51 54 55 54 52 53 56 59 61 61 59 55 52 54
42 42 40 37 37 38 36 33 31 31 31 31 30 29 34 40 40 38 40 42 44 45 44 42 44 46 48 49 52 55 57 55 55 57 59 61 62 62 62 60 58 58
43 44 42 40 38 38 39 36 34 32 31 31 30 30 32 36 35 35 38 41 43 44 42 42 44 46 47 49 53 58 60 59 60 63 64 64 65 66 66 64 63 63
43 44 43 42 40 40 41 39 36 34 32 31 31 32 32 32 31 32 35 39 41 42 42 41 43 45 46 50 56 62 64 63 65 67 68 69 69 70 70 66 66 66
42 43 43 43 42 42 42 40 37 36 35 33 33 31 30 30 30 30 32 36 39 40 41 42 42 44 48 54 60 65 67 66 67 68 69 71 72 72 71 69 70 72
39 40 42 44 44 44 42 40 39 37 36 35 33 31 31 32 31 29 30 34 37 39 41 42 42 47 53 58 62 67 69 69 68 66 67 70 71 71 72 71 72 72
38 38 40 44 45 45 43 41 39 38 37 36 34 33 33 32 29 29 31 33 36 39 41 42 45 51 56 61 65 68 70 70 66 64 66 69 71 71 72 74 73 68
40 39 41 44 45 45 43 41 39 39 38 36 35 34 33 31 32 33 34 34 36 38 40 43 48 53 58 63 66 67 68 67 66 67 70 73 74 74 74 75 73 67
41 42 43 45 45 44 44 42 40 39 39 37 37 37 36 37 39 39 37 36 36 38 42 47 51 55 60 64 65 65 65 65 67 70 73 75 77 75 74 75 72 66
42 42 44 45 45 45 45 44 41 40 40 40 40 42 43 44 44 44 42 39 38 42 47 51 54 57 60 63 63 63 63 63 65 68 71 73 73 71 73 77 72 64

ECMWFNIL_prec_cthk_024.txt.gz
RH
28 29 28 25 23 21 21 21 21 21 19 19 20 25 31 37 40 41 44 45 44 40 41 43 47 49 48 47 47 45 42 40 37 37 39 38 36 36 39 40 41 43
27 29 30 30 27 25 22 21 21 21 20 19 20 24 30 36 40 42 44 44 42 39 40 43 47 51 50 47 45 43 39 36 34 35 37 36 36 36 37 38 39 41
28 29 31 32 30 28 25 23 22 22 21 20 20 23 29 35 39 43 44 43 40 38 39 42 48 52 50 46 44 42 37 34 31 32 35 36 36 37 37 37 37 38
29 30 32 33 32 31 29 27 24 23 22 22 21 23 28 33 38 41 43 40 38 38 39 42 48 51 48 44 42 40 37 34 31 32 35 37 38 38 38 38 38 38
31 31 32 33 34 33 32 30 27 25 24 23 22 23 26 31 35 39 41 38 36 37 39 43 49 50 46 42 40 39 38 36 34 35 37 38 40 40 40 40 39 38
33 33 34 34 34 34 33 32 30 28 27 25 24 23 25 29 33 36 37 35 34 36 40 44 48 48 44 41 39 38 37 37 39 41 40 40 42 43 43 42 41 39
34 35 35 35 34 33 33 32 31 30 29 28 27 25 25 29 32 33 34 34 33 37 42 45 47 45 42 40 39 38 37 39 43 45 43 43 44 46 47 46 44 42
35 35 35 35 34 33 32 31 30 30 30 30 28 27 27 30 32 33 33 32 33 38 44 46 45 43 40 38 38 37 37 39 43 44 44 45 46 47 49 50 47 45
36 35 35 34 33 32 30 29 29 30 31 30 30 30 31 32 33 32 32 31 33 39 46 46 45 43 39 38 38 37 38 39 42 43 44 45 46 47 49 51 50 48
38 37 35 34 33 31 30 28 27 29 30 30 31 33 34 34 34 32 31 30 34 41 46 47 46 42 39 38 38 38 40 41 43 44 45 45 45 46 49 51 50 49
41 40 37 35 33 32 32 29 27 27 28 28 30 33 35 35 34 32 30 31 36 43 46 47 46 42 39 38 39 40 43 44 45 47 47 46 45 46 48 49 50 49
42 42 41 39 37 36 34 32 29 28 27 27 29 33 35 35 34 32 29 32 39 44 44 44 44 41 39 39 40 42 44 47 48 49 48 46 45 46 47 47 48 48
42 43 43 44 43 41 38 34 31 29 28 28 30 34 35 34 32 30 29 32 40 44 44 42 42 41 41 41 41 43 46 49 50 49 47 46 46 47 47 47 46 45
42 44 45 46 46 44 42 38 34 31 29 29 32 35 34 32 30 29 29 32 38 42 42 41 41 41 41 42 44 45 46 48 49 48 47 47 47 49 49 48 46 43
43 45 46 46 47 45 43 41 39 34 31 30 31 33 32 30 28 28 29 31 37 40 40 39 40 41 42 44 46 46 46 46 46 47 47 47 48 49 49 48 47 46
44 45 46 47 47 46 44 43 40 37 34 31 32 33 31 29 27 28 28 30 35 38 37 37 39 40 42 45 46 46 45 44 44 44 46 48 48 48 48 48 48 50
43 44 46 46 46 46 45 43 42 40 37 33 32 32 32 31 29 27 27 28 33 37 36 36 38 40 43 45 46 45 44 43 43 44 45 47 47 47 48 48 50 56
42 44 45 45 45 45 45 44 43 42 38 35 33 31 32 32 30 28 27 27 31 35 35 35 37 40 43 44 44 43 42 42 42 43 45 47 47 47 48 50 54 60
44 45 44 44 44 44 45 45 43 42 40 38 35 32 31 30 28 27 27 28 31 35 35 35 37 41 43 43 43 42 42 42 42 42 44 46 47 48 50 53 57 63
45 45 45 45 45 45 46 46 44 43 42 40 37 34 32 29 28 28 28 29 31 34 35 35 37 40 42 43 43 42 42 42 41 41 43 46 49 52 55 59 62 67
44 45 45 46 46 46 46 46 45 44 43 41 40 37 34 31 29 28 28 29 32 35 36 35 35 39 41 42 43 42 43 43 42 42 44 48 52 56 60 64 66 70
43 44 45 46 48 48 47 46 45 44 43 42 42 40 37 33 30 29 28 29 32 35 36 34 34 38 40 41 42 43 44 45 44 45 48 52 56 60 63 66 69 71
43 45 46 48 50 50 49 46 45 44 43 43 43 43 41 36 33 32 30 31 32 35 35 33 34 37 40 40 42 44 45 46 46 47 50 55 59 61 62 66 69 69
44 46 47 47 47 48 48 47 45 44 44 44 44 45 44 40 36 34 33 32 32 33 33 33 34 36 39 40 43 46 46 45 46 47 52 57 60 61 62 64 66 66
43 44 45 43 43 44 47 48 47 46 46 46 46 46 47 45 40 38 36 34 33 33 34 34 35 36 39 41 45 46 44 45 47 49 54 60 61 61 63 63 62 63
43 44 44 44 43 44 46 48 50 49 48 48 47 47 49 48 45 42 40 37 35 35 35 35 36 38 42 45 46 45 44 45 48 51 57 62 63 63 63 62 62 62

ECMWFNIL_prec_cthk_027.txt.gz
RH
26 25 25 23 21 19 18 18 17 18 18 19 19 19 19 21 26 30 34 36 36 36 34 31 34 40 44 44 46 49 47 44 41 40 38 35 35 37 38 41 43 42
27 27 27 27 26 24 21 20 19 18 19 19 19 20 19 20 24 30 34 36 36 36 35 32 33 38 43 44 46 48 46 41 40 38 36 35 36 38 38 40 42 43
25 25 26 27 28 28 26 25 23 21 20 21 20 20 19 19 22 27 33 35 36 36 34 33 32 36 42 45 45 47 45 40 38 37 34 35 37 38 39 41 42 42
25 25 26 27 29 30 30 29 28 25 24 23 22 21 21 20 20 24 30 33 34 34 34 33 33 35 40 44 45 46 44 39 37 35 33 35 38 39 40 42 43 43
26 25 26 27 28 30 31 32 30 29 27 25 25 23 22 21 20 22 27 31 31 33 32 32 33 35 40 43 44 44 42 38 36 34 33 35 38 41 42 43 43 43
29 28 27 27 28 29 31 32 32 31 29 28 28 27 25 23 21 21 25 28 29 30 31 31 32 35 39 42 43 42 41 37 35 35 35 37 39 41 43 44 45 44
31 30 29 28 28 29 32 32 33 32 31 30 29 29 27 25 23 22 23 27 28 29 30 30 31 34 39 42 42 41 39 37 36 36 38 40 40 40 43 45 46 46
35 31 30 30 30 30 31 32 33 33 32 32 31 30 28 27 26 24 24 25 27 28 30 31 31 34 39 42 42 41 39 36 36 37 40 42 42 42 44 46 46 46
39 35 32 31 31 31 31 31 32 32 32 32 32 31 29 28 27 27 26 26 27 28 29 30 30 33 40 44 42 41 39 37 37 38 40 43 44 44 45 44 44 43
41 38 36 35 34 35 34 32 32 31 30 30 30 31 30 29 28 28 27 27 28 28 29 30 29 33 40 44 43 41 40 38 37 38 40 42 43 44 44 43 42 41
40 39 38 38 38 38 36 35 33 32 30 28 28 28 28 27 28 29 29 29 29 29 29 29 29 32 39 42 42 41 40 38 37 38 40 41 42 43 43 41 41 42
39 38 39 40 40 40 39 38 36 35 33 31 28 27 26 25 25 26 27 29 30 29 29 28 29 32 37 40 41 40 39 38 38 39 40 41 42 42 42 41 41 41
38 37 39 41 42 42 43 42 40 39 37 34 31 29 27 25 25 25 26 27 28 29 29 28 28 32 37 39 40 39 39 38 38 39 41 41 42 42 42 42 42 41
37 38 40 42 42 43 43 43 41 40 39 37 34 31 29 27 26 26 27 27 28 28 28 27 27 32 37 38 38 39 38 38 38 39 40 42 42 43 43 43 43 42
38 39 41 42 43 43 43 43 43 41 40 38 36 33 30 28 27 27 29 29 28 27 26 26 27 32 37 38 38 38 38 38 38 39 40 41 43 44 44 44 44 43
38 40 41 42 42 43 44 44 44 43 41 40 39 37 33 30 28 28 30 31 30 27 25 25 27 32 36 38 38 37 37 38 38 39 40 41 42 44 44 44 44 44
38 39 40 41 42 43 43 45 45 44 43 41 41 40 37 34 31 29 29 31 32 29 25 24 26 31 36 39 38 37 37 38 39 40 41 42 42 43 43 43 43 44
39 39 40 41 41 42 43 44 46 46 45 43 42 41 40 37 35 32 31 32 32 30 27 25 26 29 34 38 38 36 36 37 39 40 42 43 43 41 41 41 42 45
40 40 41 41 41 42 44 46 46 45 45 45 44 43 42 41 38 35 34 33 33 31 29 27 26 28 32 36 37 36 36 37 38 40 43 45 44 42 40 40 41 44
41 41 41 42 42 44 45 46 45 45 45 45 45 45 44 42 41 38 36 36 34 33 30 28 27 27 30 34 36 37 35 36 38 40 43 45 45 43 41 40 42 43
42 42 43 44 44 45 46 46 46 46 45 45 46 47 46 46 44 41 39 38 37 35 32 29 27 27 29 32 35 36 36 36 37 39 41 43 44 43 42 42 43 44
44 45 46 47 47 48 49 49 48 47 46 47 47 48 49 49 47 44 42 41 39 38 34 30 28 27 27 30 34 36 36 36 37 38 39 40 42 43 43 43 44 46
46 47 48 48 48 48 48 48 49 48 48 48 48 47 49 48 48 48 48 46 42 40 36 32 28 27 27 28 32 36 37 36 36 38 39 39 41 43 43 43 44 46
44 45 46 46 46 46 46 46 47 47 48 48 47 47 46 46 48 51 51 49 45 41 39 35 31 28 26 27 30 34 37 37 37 38 39 39 41 43 42 43 44 46
44 44 45 45 44 44 44 45 46 46 47 47 47 47 48 49 52 52 50 50 47 44 42 38 35 31 28 27 29 32 36 39 39 40 40 40 41 42 42 44 45 46
44 45 44 44 43 43 43 44 45 45 45 45 46 47 49 52 55 54 51 49 48 48 46 41 37 35 31 28 28 31 35 40 41 42 42 41 42 42 43 45 46 46

ECMWFNIL_prec_cthk_030.txt.gz
RH
16 15 16 16 16 17 17 17 18 18 18 19 19 19 20 19 19 20 23 26 30 33 34 32 29 30 34 37 40 44 47 48 50 49 47 44 37 32 33 36 43 49
16 17 17 17 17 16 16 17 18 18 17 18 18 18 19 19 18 19 21 25 28 31 33 32 29 28 31 36 38 43 46 47 49 50 47 42 36 33 33 34 40 45
19 20 21 22 21 20 19 20 19 19 19 18 17 18 18 18 19 18 19 23 27 30 33 33 31 29 30 35 37 40 45 46 49 50 48 43 37 35 34 34 40 44
23 24 25 25 25 24 24 25 23 23 22 21 19 18 18 18 18 18 17 20 24 28 32 34 33 30 30 34 37 39 42 46 49 49 47 44 38 36 35 35 41 46
22 23 24 25 26 25 25 26 26 26 25 25 23 22 21 20 19 19 17 17 20 25 30 32 31 29 30 33 36 39 40 45 49 46 44 44 40 37 36 35 38 42
22 23 25 26 25 25 26 26 27 27 27 27 27 26 24 23 21 20 19 17 18 21 26 30 31 29 30 31 35 38 40 43 47 45 40 40 40 38 36 36 37 39
25 26 26 27 26 26 26 27 27 27 28 29 29 29 28 26 24 22 20 19 17 18 22 27 30 30 29 31 33 37 40 41 45 46 39 36 38 38 36 36 37 38
28 27 27 27 28 28 27 27 26 27 28 28 29 30 30 29 28 26 23 21 19 18 20 23 28 30 30 30 31 34 39 40 41 42 37 32 35 35 34 36 37 37
32 30 29 29 29 29 28 27 27 27 27 27 28 29 30 30 30 29 27 25 23 21 20 22 25 28 29 31 31 32 37 40 40 39 36 32 32 33 34 36 37 37
37 35 34 33 31 28 27 26 26 26 26 26 26 28 29 29 29 30 29 28 27 25 23 23 24 26 29 31 32 32 35 41 42 39 36 33 32 33 35 36 37 37
40 39 39 38 35 30 28 27 26 26 26 25 25 25 26 26 25 26 27 27 27 27 26 25 24 26 27 29 32 31 33 39 43 40 37 34 32 33 35 37 38 38
39 40 41 41 39 35 34 32 30 29 28 27 26 25 26 26 25 25 25 25 26 26 26 26 26 26 27 28 30 31 31 37 43 42 38 35 33 34 35 38 39 40
38 39 41 41 39 37 38 38 35 33 32 31 29 28 29 29 28 27 27 26 26 26 26 26 25 25 26 27 29 30 29 34 42 44 40 36 34 34 35 38 40 40
38 40 41 41 38 37 39 40 38 36 35 34 33 32 33 33 31 29 29 29 28 27 26 26 26 26 27 27 28 29 28 31 39 44 41 37 35 34 34 36 39 39
41 43 43 41 38 36 38 39 38 36 35 35 36 35 35 36 35 33 31 30 29 28 27 27 27 27 27 28 28 28 27 29 36 41 41 38 35 34 34 36 38 38
44 44 44 42 38 36 37 38 39 37 36 36 37 38 38 38 39 37 34 32 30 28 28 28 28 28 27 27 25 24 25 28 33 37 38 38 36 35 34 35 37 37
44 44 43 41 38 36 37 38 39 39 38 38 38 39 40 41 41 40 38 36 33 29 28 27 27 28 29 27 25 23 24 27 32 35 37 37 37 35 34 35 37 37
42 44 43 40 38 37 38 38 39 40 41 40 41 41 42 43 43 42 41 40 38 34 30 28 26 27 28 28 26 24 24 27 31 34 36 36 37 36 34 34 36 37
42 43 43 40 38 39 40 40 41 41 41 42 44 45 46 47 45 45 43 42 42 39 33 30 28 27 27 28 27 25 25 26 30 33 35 36 36 36 35 35 35 36
41 42 41 41 40 40 42 43 43 42 43 44 46 47 48 49 50 50 47 43 44 47 42 34 30 29 28 28 27 27 24 25 28 33 35 36 36 36 36 35 35 36
39 40 41 41 42 42 43 43 43 43 43 45 46 47 48 50 51 53 50 46 48 52 50 42 36 32 30 30 29 27 25 24 26 31 34 35 36 36 36 36 36 36
37 38 39 40 41 42 43 43 43 43 43 44 46 48 49 49 49 49 50 52 55 54 51 48 44 37 33 33 31 28 26 24 24 28 31 33 35 35 35 36 37 36
36 37 37 39 40 41 42 42 43 43 44 46 47 49 50 50 49 49 50 52 55 52 49 50 49 42 37 36 35 32 28 25 24 25 28 30 33 34 35 37 37 36
37 37 38 39 39 40 40 41 43 44 46 46 47 49 50 51 52 53 52 52 53 53 53 52 50 46 42 39 37 36 33 29 27 26 26 28 30 32 34 37 37 36
37 38 39 39 39 39 40 41 43 45 46 47 48 48 50 53 56 56 55 53 53 54 57 56 55 53 48 43 39 38 37 34 31 29 28 29 29 30 33 36 38 37
36 37 38 38 39 40 41 42 43 45 46 47 48 49 50 52 53 54 55 55 52 51 54 56 57 58 55 49 43 40 40 39 36 33 31 30 30 31 33 36 39 40

ECMWFNIL_prec_cthk_033.txt.gz
RH
12 13 12 13 13 13 16 18 19 18 17 18 19 20 18 17 19 24 29 28 26 29 33 35 37 37 36 39 41 43 44 45 44 45 44 43 45 44 42 42 43 46
12 12 12 13 13 13 15 16 17 18 17 16 19 21 19 18 17 18 21 23 24 26 30 33 35 36 36 35 36 38 41 42 42 46 48 47 46 45 42 41 42 44
12 12 12 13 13 13 14 15 16 17 17 16 16 19 20 20 18 17 17 18 20 23 26 30 32 34 35 33 31 33 36 39 41 44 48 49 47 45 43 41 42 43
13 12 12 13 13 14 14 15 16 16 17 18 16 16 18 21 21 19 17 17 17 19 22 26 30 32 34 33 31 30 33 37 40 43 47 49 47 45 43 41 43 44
13 13 13 14 15 17 18 18 19 19 19 19 19 19 18 19 21 21 20 18 17 18 19 22 25 29 32 33 32 31 32 37 40 43 46 49 47 43 42 39 40 46
13 14 15 17 18 19 20 20 19 20 20 20 20 21 20 20 21 22 21 20 18 18 19 20 22 25 29 32 33 31 32 36 40 42 45 49 48 44 43 39 36 41
13 15 16 17 19 19 20 20 20 20 20 20 21 20 21 21 22 22 23 23 21 20 21 21 20 21 25 30 32 32 31 33 39 42 44 48 49 46 45 41 34 35
14 15 16 18 20 22 22 22 22 23 23 23 23 23 22 22 22 23 24 25 24 23 23 24 22 20 21 26 30 31 31 31 35 39 41 45 48 47 44 42 36 32
16 16 17 20 22 24 25 25 25 26 25 25 25 24 24 23 23 24 25 26 27 26 26 26 25 23 21 23 27 29 30 31 34 36 39 43 46 44 42 42 38 33
17 18 19 21 24 25 25 28 30 30 28 25 23 24 25 24 24 25 26 26 27 27 27 27 26 25 23 22 24 26 28 30 33 35 37 40 44 42 38 39 37 33
20 21 21 22 24 25 26 28 31 34 33 27 23 23 26 27 24 24 25 25 25 26 26 26 26 25 24 23 23 25 27 28 31 33 34 36 40 42 39 37 34 31
26 25 25 26 27 26 27 28 31 35 36 32 26 23 24 27 26 23 22 23 22 22 23 23 24 24 23 23 23 23 26 27 28 30 31 31 36 41 41 39 35 32
28 29 30 31 31 30 31 32 34 36 37 36 33 27 25 26 28 26 23 23 23 23 23 23 23 24 23 22 22 22 24 26 27 28 28 29 34 40 42 40 37 33
28 31 33 34 35 35 35 37 39 40 40 41 40 35 30 28 29 29 26 25 25 25 25 25 25 25 25 24 23 22 23 25 26 26 26 25 30 39 43 43 39 35
32 33 34 36 37 37 38 39 42 43 42 43 44 41 36 33 34 35 32 28 28 28 27 27 27 27 27 26 25 24 23 26 27 25 24 23 26 34 41 44 42 38
38 36 35 37 38 39 39 40 42 42 41 43 44 43 41 38 39 42 42 37 33 31 30 29 28 27 27 26 26 24 23 23 25 24 22 20 23 28 36 42 42 39
42 37 36 37 39 40 42 41 42 42 40 41 44 44 44 43 41 43 46 46 42 38 35 32 29 27 26 26 25 25 24 23 24 24 23 21 21 24 31 39 39 37
45 41 37 37 39 42 43 44 44 43 41 41 43 43 44 44 42 42 45 48 49 46 42 38 34 31 29 28 26 25 25 25 25 25 25 23 22 22 27 34 36 34
47 44 39 37 40 43 45 46 46 44 42 42 42 43 44 43 42 41 42 45 48 49 48 44 40 36 32 31 30 28 26 26 26 26 27 26 24 23 25 30 31 32
46 44 42 38 40 44 46 47 47 44 41 40 42 43 44 43 42 42 43 43 45 47 48 47 45 43 39 35 33 32 30 28 27 26 27 27 25 25 28 28 26 28
47 44 43 41 40 43 45 45 45 41 39 40 42 43 43 43 43 44 44 45 46 47 49 48 48 48 45 41 38 35 34 32 31 28 27 28 27 28 31 29 25 25
47 46 44 42 40 41 41 41 40 39 39 40 43 45 46 45 44 44 45 46 46 47 47 47 48 50 48 45 41 39 38 36 35 33 31 31 31 30 31 28 25 27
43 43 42 41 40 40 38 38 38 39 40 41 43 45 47 46 46 46 47 47 47 47 46 45 48 50 49 47 46 45 43 42 40 38 37 36 35 35 34 30 27 30
39 39 38 37 37 37 36 37 39 40 42 43 43 45 47 49 50 50 50 49 49 49 48 47 48 50 49 48 50 49 48 47 45 43 41 39 38 38 37 36 32 31
40 38 36 34 33 34 36 39 40 42 43 45 45 47 49 51 52 53 53 52 52 52 51 49 49 50 49 48 49 50 50 51 50 49 46 42 40 41 42 41 38 36
40 38 36 34 35 37 38 40 42 44 46 47 48 50 53 53 53 53 53 54 54 54 53 51 49 49 49 49 48 48 49 50 51 51 48 43 42 45 46 44 42 40

ECMWFNIL_prec_cthk_036.txt.gz
RH
14 13 13 13 13 13 14 16 16 16 19 21 21 18 18 19 20 24 28 27 24 24 26 28 31 34 37 38 37 39 41 43 43 42 39 36 35 35 32 27 30 41
14 13 12 11 12 12 12 13 13 15 18 20 21 20 18 18 19 21 24 26 25 24 24 26 28 32 35 37 37 38 39 39 40 41 39 37 36 36 34 29 28 36
13 12 12 11 11 11 11 12 12 14 18 20 21 23 22 21 20 20 22 23 24 24 24 25 27 30 32 34 36 38 39 38 37 39 39 39 39 37 36 36 33 32
12 12 11 10 10 10 10 11 11 13 17 19 20 21 23 24 23 22 22 23 23 23 23 22 24 27 30 32 34 36 37 37 36 36 37 39 41 39 37 38 39 34
11 11 12 11 10 10 10 10 10 12 15 19 22 23 23 25 26 25 24 24 23 22 21 21 21 23 26 29 32 34 35 35 35 35 36 37 40 41 38 37 40 39
11 11 11 12 11 10 11 11 12 14 17 20 23 24 24 25 26 27 27 27 27 25 25 22 20 19 21 24 28 32 33 34 34 34 35 36 37 40 41 37 37 39
10 11 11 12 12 12 13 14 15 17 19 21 23 22 23 23 23 24 26 28 29 28 27 25 23 20 19 20 22 26 30 33 34 33 33 35 36 38 40 39 35 35
9 10 11 12 13 13 14 16 18 19 20 23 25 24 24 24 23 22 24 27 28 29 29 28 26 24 22 21 20 22 25 28 31 32 32 34 37 37 38 40 37 34
10 10 10 11 13 14 16 18 20 23 24 26 28 29 29 26 24 23 22 24 26 28 29 28 28 27 26 24 23 22 22 24 27 29 30 32 34 36 37 39 39 37
10 11 12 13 15 16 17 19 22 24 26 27 29 32 32 28 25 24 23 22 23 26 28 28 28 28 28 28 27 25 23 22 24 26 28 30 31 33 35 36 38 39
12 14 15 16 17 18 18 19 22 24 25 26 28 31 31 29 26 25 24 23 22 23 25 26 26 27 27 27 27 26 25 23 23 23 25 28 29 30 32 33 35 38
13 16 18 18 19 20 20 21 22 25 26 26 28 29 30 29 27 25 23 22 20 20 21 23 24 24 24 24 24 24 25 24 23 22 22 24 27 29 30 31 32 36
15 15 17 19 20 21 23 23 24 26 28 28 28 29 29 28 27 25 22 21 20 19 20 21 22 23 22 22 22 23 24 24 23 22 21 21 23 26 28 30 30 32
19 17 17 19 21 22 25 26 27 28 30 30 31 31 30 28 28 27 25 23 23 22 22 22 23 24 24 24 23 23 25 25 23 22 22 21 21 23 26 28 28 28
28 24 21 22 23 24 26 28 29 30 30 31 33 34 33 31 32 33 31 30 28 27 27 26 26 26 26 26 25 25 26 27 26 25 25 25 23 23 23 25 25 25
38 34 30 29 28 27 28 30 32 34 34 35 37 38 38 37 38 40 39 37 35 33 31 30 30 29 28 27 27 26 26 28 29 28 28 28 27 25 23 22 23 24
42 41 38 35 33 32 31 33 36 37 37 38 40 42 43 43 43 43 43 40 39 38 36 34 33 32 30 29 28 28 29 30 30 30 29 28 27 26 25 24 24 24
41 43 43 40 38 37 34 34 37 39 39 40 41 43 44 44 43 43 42 41 39 39 39 38 36 35 34 32 31 31 31 32 32 32 30 29 27 26 25 26 26 26
37 41 45 44 42 41 39 37 38 39 39 39 40 42 44 44 42 40 40 39 39 39 41 41 41 39 37 37 36 35 35 35 35 35 33 32 30 28 27 26 26 27
32 38 45 47 46 45 44 40 38 38 39 40 41 43 43 42 40 39 39 39 38 39 40 41 43 43 41 40 39 39 39 40 40 39 38 36 36 35 33 31 29 30
30 34 42 48 49 49 48 44 39 37 39 43 44 44 43 41 40 40 40 39 39 40 41 41 42 43 44 44 42 42 42 43 43 43 42 41 40 40 39 38 36 36
31 34 39 44 48 50 50 48 43 40 40 44 46 46 45 43 41 40 40 40 41 42 42 41 41 43 45 46 46 46 46 46 45 46 45 44 44 43 42 41 41 40
35 37 39 42 46 49 51 50 48 44 43 45 48 48 48 46 43 41 41 41 42 42 42 41 42 44 46 48 48 49 49 49 48 49 47 45 44 44 44 44 42 41
38 40 40 41 44 46 48 48 48 47 45 46 48 48 48 48 45 43 43 43 43 43 43 44 44 45 47 49 50 51 52 51 51 51 50 48 47 47 47 47 45 43
38 40 40 41 41 42 43 43 44 45 46 47 47 47 48 48 47 46 46 46 46 46 47 47 48 48 49 50 52 54 54 53 54 54 52 51 51 50 48 46 46 45
38 39 40 41 42 43 43 42 42 44 46 48 48 47 48 47 47 48 48 50 51 51 51 51 50 51 51 50 52 53 55 55 56 55 53 54 56 54 49 46 45 45

ECMWFNIL_prec_cthk_039.txt.gz
RH
13 13 12 12 12 12 13 13 13 13 15 17 18 17 17 16 17 22 25 26 24 23 24 26 28 31 33 35 36 36 36 37 38 39 38 36 34 33 33 32 31 31
12 12 12 12 11 11 12 12 12 12 13 15 16 16 17 18 17 18 21 25 25 24 24 25 26 28 30 32 34 36 36 36 38 38 39 38 35 33 33 34 33 30
12 11 11 11 11 11 11 12 12 12 12 13 15 17 17 18 18 17 18 21 23 23 23 24 25 26 27 29 31 34 36 37 37 37 38 39 36 34 33 34 34 31
12 12 11 10 10 10 11 12 12 12 11 11 13 16 17 18 19 18 17 18 19 20 21 22 23 24 25 27 29 32 34 35 37 38 38 39 38 36 35 34 34 32
12 11 11 10 10 10 10 11 11 11 11 11 12 15 17 19 20 20 20 20 20 20 20 19 20 21 22 24 25 28 30 32 34 36 37 38 37 37 37 36 35 34
13 12 11 11 11 10 10 10 9 10 11 12 13 16 18 20 21 23 23 23 23 23 22 21 21 21 20 20 21 22 25 27 28 31 33 36 36 36 37 37 36 36
14 13 12 11 11 11 11 10 9 11 12 13 15 16 18 20 21 23 23 24 24 23 23 23 22 22 22 21 20 20 21 23 25 26 28 31 34 35 35 36 36 37
15 14 13 12 12 11 11 11 11 12 13 14 15 16 18 20 22 23 25 25 25 24 24 23 22 22 22 22 22 22 22 23 24 25 25 26 29 32 34 35 35 36
16 15 15 14 13 12 11 12 12 12 12 14 16 17 19 21 22 24 25 25 25 25 24 23 21 21 21 21 22 22 23 24 24 24 24 24 25 27 30 33 35 35
17 16 15 14 13 12 12 12 13 13 14 16 18 20 21 23 24 25 26 26 25 25 24 22 21 20 20 21 21 22 22 23 23 24 23 23 23 24 25 28 31 33
16 15 15 14 13 13 14 15 16 16 17 19 21 22 23 25 26 27 26 26 25 24 23 22 21 20 20 20 20 20 21 21 22 22 22 22 22 22 23 25 27 30
16 16 16 16 16 17 18 18 19 20 20 21 22 23 24 26 27 27 25 25 24 22 21 20 19 19 19 18 18 18 18 18 18 19 20 20 20 20 20 22 24 26
19 18 18 18 19 20 20 19 20 22 22 22 23 23 25 27 27 26 24 23 22 21 20 19 19 19 18 18 18 18 18 18 17 18 19 20 19 19 19 19 21 23
24 20 18 18 19 19 19 19 21 23 24 23 23 24 25 26 26 25 24 22 21 20 20 20 21 21 21 21 21 21 21 21 20 20 21 21 22 22 22 21 20 21
31 25 20 18 18 18 18 18 20 23 25 25 25 24 24 25 25 25 23 22 22 22 23 24 25 26 26 25 25 25 24 24 23 23 23 24 24 24 24 24 22 21
37 33 28 23 21 19 18 18 20 22 25 26 26 24 23 24 26 26 25 25 25 26 27 28 29 29 29 29 29 29 29 29 29 28 28 28 27 27 27 26 24 23
42 41 38 32 28 24 22 22 22 23 25 27 27 26 24 24 26 29 30 30 30 30 30 30 30 30 31 32 33 34 35 35 35 35 34 34 34 33 33 32 31 29
47 46 45 41 36 32 29 28 27 26 26 28 29 29 27 27 29 32 35 35 35 34 33 31 31 31 33 35 36 38 39 38 39 39 40 40 40 39 38 39 38 37
45 45 44 42 40 37 36 34 33 32 31 30 31 32 30 30 31 35 38 39 38 36 34 32 32 32 34 37 39 40 41 41 41 42 44 44 44 44 44 44 43 42
40 41 41 41 39 39 40 40 38 38 37 34 33 35 35 33 33 36 39 39 37 35 34 33 32 32 34 37 39 41 44 44 44 46 47 48 48 48 48 48 47 46
39 38 38 38 38 38 41 44 44 42 42 40 37 36 36 36 35 36 38 37 36 35 35 33 31 32 35 37 40 43 45 47 48 50 50 51 50 50 50 50 50 49
40 38 36 36 37 37 38 43 47 47 45 44 42 39 39 40 40 38 38 38 37 35 35 33 32 34 37 39 42 46 48 51 52 53 53 53 53 53 52 52 52 52
39 39 36 35 38 39 38 39 46 49 49 48 46 43 41 42 43 42 41 40 38 36 33 32 33 36 39 41 45 48 51 54 55 56 56 55 55 56 55 55 55 54
37 36 36 36 39 42 41 39 42 48 50 51 50 47 43 42 44 45 45 43 40 37 34 34 36 39 42 44 47 51 53 55 57 58 58 57 57 59 58 58 57 56
36 34 33 36 39 43 44 41 40 44 49 51 52 51 47 44 44 45 45 44 41 39 38 38 40 43 46 48 50 53 55 57 59 59 59 58 59 59 59 57 57 57
33 33 32 35 39 42 44 43 41 42 45 47 48 48 47 45 43 43 43 43 42 41 41 42 44 47 50 51 53 55 56 57 58 57 55 55 56 56 55 54 53 54

ECMWFNIL_prec_cthk_042.txt.gz
RH
20 19 18 17 16 16 16 16 15 14 14 14 13 14 15 17 20 23 24 23 22 22 23 25 27 31 34 37 37 37 38 41 42 40 37 35 34 33 34 34 33 33
20 19 17 17 16 17 16 15 14 13 12 12 13 14 16 17 18 20 22 23 22 22 22 22 24 26 30 34 36 36 37 39 41 42 42 40 37 34 33 34 32 32
20 18 17 16 15 15 16 15 14 13 11 12 13 14 15 16 16 17 19 21 23 23 22 21 22 23 26 29 32 33 35 36 37 40 42 43 41 37 34 33 33 33
19 18 16 15 14 14 14 15 14 13 12 12 13 14 14 15 14 14 15 17 21 24 23 21 21 22 23 25 27 29 31 33 35 37 38 40 41 41 39 36 34 34
18 17 16 15 14 14 14 14 13 12 12 12 13 13 14 14 13 13 14 15 18 22 23 23 23 23 23 24 25 26 27 29 32 34 35 36 38 39 40 40 38 36
19 18 17 16 15 14 13 13 12 12 11 11 12 13 13 14 14 15 16 17 19 21 22 23 23 24 24 24 23 23 23 25 27 30 32 33 35 36 37 38 39 39
20 19 18 17 16 15 14 13 12 12 11 11 11 13 14 16 17 18 19 20 20 21 21 21 22 22 22 23 22 22 21 22 23 25 27 29 31 33 34 35 36 37
20 19 18 17 16 16 15 14 13 12 11 12 13 14 16 17 18 19 20 21 22 22 22 22 22 22 22 23 22 22 22 22 23 24 25 26 27 28 30 32 33 34
21 20 18 17 16 16 15 15 15 14 14 14 15 16 17 17 19 20 21 22 22 22 22 21 21 21 22 23 23 22 22 22 23 24 24 25 24 25 26 28 30 32
21 20 18 17 16 16 16 16 16 16 16 15 15 17 18 18 19 21 22 22 21 20 19 18 19 19 20 21 22 22 22 22 22 23 23 23 23 24 24 25 26 28
22 20 19 17 16 16 16 17 17 17 17 16 16 17 18 18 19 21 22 22 20 18 17 17 17 18 18 19 19 20 22 22 22 22 22 21 21 21 21 23 23 24
22 21 19 17 16 16 16 16 16 17 17 17 18 18 18 19 20 21 22 21 20 18 18 17 17 17 17 16 17 17 18 19 19 19 19 19 19 19 20 21 21 22
22 21 19 17 16 15 15 17 18 19 20 19 20 20 20 20 21 23 23 22 20 19 18 17 17 17 16 16 16 16 16 17 17 17 18 18 18 19 20 21 21 21
22 20 18 17 16 16 17 20 22 23 23 22 22 22 22 21 21 23 24 23 21 20 19 18 17 18 17 17 17 17 17 18 18 19 20 20 20 21 22 23 23 24
25 23 21 19 20 20 22 23 24 26 26 25 25 24 23 22 22 24 25 24 23 21 19 19 19 18 18 18 19 20 20 21 22 24 24 25 25 25 26 27 28 28
31 29 26 24 24 24 24 24 23 25 27 27 27 26 25 24 23 24 25 25 23 21 20 20 21 21 21 21 23 24 25 27 29 31 33 34 34 34 34 34 33 33
38 36 34 32 29 27 26 24 22 23 25 27 28 28 27 25 24 24 25 25 23 22 22 24 24 24 24 24 26 29 32 35 37 38 40 42 43 43 42 42 41 40
39 40 39 38 36 34 31 27 24 23 23 25 29 30 29 27 26 25 24 25 25 24 24 25 25 25 25 27 30 33 36 41 44 45 47 47 48 48 48 48 49 49
44 44 44 44 44 42 40 36 33 30 28 28 30 32 32 30 28 25 24 25 26 26 25 26 25 25 27 29 33 36 40 44 47 49 50 51 52 52 52 53 53 54
47 47 47 48 48 47 46 44 42 39 37 35 34 34 33 32 30 27 25 27 29 28 27 27 26 27 29 32 36 39 42 45 47 49 50 52 53 53 54 55 55 55
45 46 46 46 47 46 45 44 44 43 42 42 40 38 35 33 32 30 28 29 32 32 31 30 28 29 32 35 37 41 43 45 47 48 50 51 52 53 54 55 55 56
45 45 45 45 45 44 43 42 41 43 45 47 46 44 41 37 35 34 32 31 34 37 36 33 32 33 36 37 39 42 45 47 48 49 50 50 51 53 53 54 55 56
43 44 44 45 44 42 41 40 40 41 46 50 49 47 46 43 39 38 37 36 37 40 40 37 35 37 39 40 42 45 47 48 49 50 50 50 51 52 53 53 54 55
41 42 43 43 43 42 41 41 41 40 43 49 51 50 49 47 43 40 40 40 40 40 41 40 39 40 42 43 45 47 48 49 50 51 51 51 52 52 53 54 54 54
40 40 41 41 42 42 41 41 42 42 42 45 49 51 51 49 47 44 41 41 42 42 42 43 42 43 44 45 47 48 49 50 51 51 51 52 54 55 56 56 56 53
38 39 39 39 40 40 40 41 42 44 45 43 45 49 51 51 50 48 44 42 43 44 43 43 43 43 44 45 47 48 49 50 51 51 52 54 56 56 56 56 54 53

ECMWFNIL_prec_cthk_045.txt.gz
RH
26 25 24 23 22 21 20 20 20 21 22 22 22 21 21 20 21 22 24 25 24 23 24 25 28 34 36 37 39 40 41 41 40 39 38 37 36 36 35 36 37 38
25 24 24 23 22 22 21 20 20 20 20 21 21 21 20 19 19 20 21 24 24 23 23 23 24 28 33 35 37 37 38 40 41 41 41 40 39 39 37 37 36 37
26 24 23 22 21 21 20 19 20 20 20 20 19 20 19 18 18 19 20 22 24 24 23 23 22 24 27 30 33 35 35 37 38 40 41 41 40 40 39 40 39 38
25 24 22 21 20 20 20 20 20 20 20 19 18 18 17 17 16 17 18 21 22 22 22 21 21 21 22 24 28 31 32 33 34 36 38 39 40 39 39 39 39 39
24 24 22 20 20 20 20 20 19 19 19 18 18 18 17 16 15 16 17 19 19 19 20 21 20 20 21 22 24 26 28 30 32 33 34 35 36 38 38 38 37 38
23 23 23 21 20 20 20 19 18 18 18 17 17 17 16 16 15 15 15 16 16 16 18 21 22 22 22 23 22 24 25 27 29 30 32 32 33 34 36 38 38 38
23 23 22 22 21 21 19 18 17 17 16 16 17 16 15 15 14 14 14 15 16 16 17 22 24 24 24 25 25 25 26 27 28 28 29 30 31 31 33 35 37 38
22 21 21 21 21 21 19 17 16 15 15 16 16 15 15 14 13 15 16 17 18 18 19 22 24 25 25 26 26 26 26 26 27 26 27 29 30 31 31 32 34 35
22 21 21 20 21 20 18 16 15 15 15 16 15 14 14 14 15 17 19 20 20 20 21 21 23 23 23 24 25 25 25 25 24 24 25 26 27 28 29 31 31 33
22 22 21 21 21 20 18 16 15 15 15 15 14 14 15 16 17 18 20 22 23 23 22 22 21 22 22 22 23 24 25 24 24 23 23 24 26 26 26 26 26 28
22 22 22 22 21 20 18 16 15 15 14 14 15 15 16 17 18 19 21 23 24 23 22 20 20 20 20 21 22 23 23 23 23 23 23 24 23 23 23 23 23 23
22 22 22 22 22 21 19 17 16 15 15 15 16 17 17 17 18 20 21 22 23 23 21 19 18 18 18 19 21 21 22 22 22 22 21 20 20 20 20 21 21 21
22 21 22 22 22 21 20 18 17 16 16 17 17 17 17 19 20 20 20 21 22 22 20 18 17 17 17 18 19 20 20 20 20 19 18 18 17 18 18 19 19 20
21 21 21 21 21 21 20 20 19 18 19 18 18 18 19 20 20 19 20 21 21 21 19 18 17 17 17 17 17 17 17 17 17 16 16 16 17 17 19 20 20 22
21 21 21 21 21 21 21 20 20 20 21 20 20 20 20 21 21 21 21 22 22 20 19 18 18 17 16 16 16 16 16 16 16 16 16 17 19 20 21 23 24 25
21 21 21 21 21 21 21 21 22 21 22 23 23 23 22 23 23 23 23 23 23 21 20 19 18 17 16 16 16 16 17 17 18 19 21 22 23 24 26 27 29 29
23 21 21 21 21 21 21 22 22 24 26 27 27 27 25 24 25 24 24 24 24 22 21 20 18 17 16 17 17 18 20 21 24 25 27 28 29 31 33 35 37 37
27 26 24 23 22 22 23 24 26 28 30 31 31 30 28 27 26 26 24 24 25 24 22 20 18 17 18 18 20 22 24 27 29 31 33 35 36 39 42 44 46 47
30 30 29 28 27 27 28 29 30 31 32 33 33 33 32 30 29 27 25 25 25 25 23 21 20 20 20 21 22 24 27 29 32 34 36 39 42 45 48 51 52 53
35 35 34 35 35 35 35 35 34 33 32 31 31 32 32 32 31 29 26 25 26 25 25 24 24 23 22 23 24 26 28 31 33 35 39 43 47 50 52 53 53 54
39 40 40 41 41 41 41 39 38 35 33 31 30 29 29 30 32 31 29 26 25 26 27 28 27 25 24 24 25 27 29 32 35 38 42 46 49 51 52 52 53 53
44 45 45 45 45 45 46 45 44 43 42 39 36 33 31 31 32 32 30 28 26 26 29 30 28 26 26 26 26 28 31 35 38 42 46 49 50 51 52 52 52 53
47 48 48 48 48 48 48 48 48 47 47 47 45 44 41 38 37 35 33 31 29 27 29 31 30 28 27 27 27 30 34 38 41 43 46 48 49 50 50 50 51 51
45 46 46 47 47 47 47 47 45 44 44 45 47 48 48 46 45 42 39 36 33 30 30 32 32 30 29 30 31 34 38 41 42 43 46 47 47 48 49 49 50 49
42 43 44 45 46 46 47 46 44 42 41 41 43 46 49 50 51 49 46 42 39 36 35 36 37 35 35 35 35 38 41 43 43 44 45 46 47 47 47 47 48 48
41 42 43 44 45 46 46 46 44 43 42 41 41 43 46 50 53 53 52 48 44 42 40 39 41 42 42 41 42 42 42 43 44 44 45 46 47 46 46 46 46 48

ECMWFNIL_prec_cthk_048.txt.gz
RH
29 29 28 25 23 24 25 24 24 24 25 26 25 24 24 24 25 27 29 30 31 32 30 29 31 35 38 39 40 40 41 40 39 39 39 39 39 39 41 41 40 39
29 29 27 25 23 22 23 23 23 23 24 24 23 23 23 24 24 25 26 27 29 30 30 27 26 29 33 35 37 39 39 39 39 39 38 39 39 40 40 42 42 42
28 27 26 24 22 21 22 22 23 23 23 23 22 23 23 24 24 24 24 25 26 27 28 27 25 25 28 31 34 36 37 37 37 37 37 37 37 38 39 39 41 43
26 26 24 22 21 21 22 23 23 23 22 22 22 23 23 23 23 23 22 23 24 25 25 26 24 22 24 27 30 32 34 35 36 37 36 36 35 36 37 38 38 39
26 26 24 22 21 21 22 22 23 22 22 22 22 22 23 22 21 20 20 20 21 22 23 24 23 22 21 24 26 29 31 33 34 35 36 36 35 34 35 36 36 37
26 26 25 23 21 21 21 21 21 22 22 21 22 22 22 21 20 19 18 17 18 19 20 21 21 21 21 22 23 25 28 30 32 33 34 35 36 35 35 34 34 35
26 25 24 23 22 21 20 19 20 21 21 21 21 21 21 21 19 18 17 16 15 16 17 17 19 21 22 22 23 24 26 28 29 31 32 33 34 35 34 34 34 34
25 25 24 23 22 21 20 19 19 19 20 21 21 20 20 19 18 17 16 15 15 14 15 17 19 21 24 25 24 25 26 27 28 29 30 31 33 34 33 33 33 34
25 24 24 23 22 21 20 19 19 19 19 20 19 19 19 18 17 16 15 15 15 14 16 18 19 22 25 27 26 26 27 28 28 29 29 30 32 33 33 32 32 33
24 23 23 22 22 22 21 19 19 18 19 19 18 18 18 16 16 15 15 15 16 16 18 19 21 23 26 27 27 27 27 28 29 28 28 29 29 30 30 30 29 29
23 22 22 21 21 21 21 20 19 19 18 17 17 17 16 15 15 15 15 16 17 18 19 21 22 24 25 25 24 25 25 26 27 27 26 26 26 26 26 25 25 24
23 22 21 21 21 21 21 20 20 19 17 16 16 15 14 14 14 14 15 17 18 19 20 22 23 23 22 21 21 22 22 24 25 25 25 25 24 24 23 22 21 21
23 22 20 20 20 20 20 21 20 19 17 16 15 14 14 14 13 15 17 18 19 20 21 23 23 22 20 19 19 20 20 22 23 23 24 24 23 22 20 19 19 19
23 22 21 20 20 20 21 21 20 19 18 16 15 14 14 13 14 16 18 19 20 21 22 23 22 20 19 18 19 18 19 19 20 20 21 21 20 19 18 18 18 18
23 22 22 21 21 21 21 21 21 20 19 17 16 14 13 14 16 17 18 19 20 21 22 23 22 19 18 18 18 17 17 17 17 18 18 18 17 17 17 17 17 18
23 23 22 21 21 21 21 21 21 21 20 18 16 14 14 16 17 18 19 20 20 21 22 23 21 19 17 16 17 16 16 15 16 16 16 16 16 17 16 17 18 19
23 22 22 22 22 21 21 21 21 21 21 19 17 16 17 18 19 19 20 21 21 21 22 23 21 19 18 16 16 16 16 15 15 15 16 16 16 17 17 19 20 21
23 22 22 22 22 22 22 21 21 22 21 21 20 20 20 20 19 20 22 22 22 22 24 24 22 20 19 17 15 15 15 15 15 15 16 17 17 19 20 21 24 26
23 23 22 21 21 21 22 22 21 22 21 21 22 22 22 21 22 23 24 24 23 24 24 25 24 22 20 18 16 15 15 15 15 17 18 19 21 22 24 26 29 33
27 25 24 22 21 20 21 21 21 20 20 21 23 24 24 24 25 25 25 25 25 25 25 25 25 23 21 18 16 15 15 16 18 20 22 24 25 27 29 30 34 39
30 29 27 25 24 22 21 21 20 20 21 23 25 27 28 28 28 28 27 26 26 25 25 25 25 24 22 20 18 17 18 19 21 24 26 28 29 30 32 34 39 45
34 32 30 29 27 27 26 25 24 24 25 26 28 30 32 33 33 33 32 30 28 27 26 25 24 25 24 22 20 20 21 22 24 27 29 29 30 32 33 37 43 48
37 35 34 32 30 30 30 30 30 31 32 32 33 34 35 35 34 34 34 33 32 32 30 27 25 25 25 24 24 24 24 25 25 28 29 30 31 32 34 39 45 48
39 39 38 37 35 34 35 35 36 38 39 40 40 39 37 36 34 32 32 32 33 35 35 32 28 27 28 28 28 28 28 27 27 28 29 31 32 34 36 40 44 47
40 41 42 42 42 42 42 42 42 43 43 44 44 43 42 41 39 37 35 34 35 37 39 38 35 32 33 34 34 33 32 31 31 30 30 31 33 36 39 42 44 46
41 43 44 45 46 47 48 47 47 47 46 46 46 46 46 45 45 45 44 43 43 43 44 43 40 37 37 38 39 38 37 37 35 34 33 33 35 38 40 43 46 47

ECMWFNIL_prec_cthk_051.txt.gz
RH
29 29 29 28 26 24 25 25 25 25 24 24 25 26 26 27 28 28 29 31 34 35 35 35 36 38 38 38 39 39 39 39 38 38 39 39 38 39 40 41 41 41
29 29 29 29 27 25 25 25 26 25 25 24 24 25 26 26 27 28 29 30 31 32 33 33 32 34 36 37 37 38 39 39 39 38 38 39 39 39 41 42 43 43
29 29 29 28 27 26 26 26 25 25 25 24 23 24 25 25 26 27 27 28 29 30 30 29 29 29 30 33 34 35 36 37 37 36 36 36 37 38 39 41 43 44
29 29 28 28 27 26 26 26 26 26 25 24 23 23 24 24 24 24 25 26 26 27 27 27 26 25 26 28 30 32 33 34 35 34 34 34 34 35 37 38 40 42
28 28 28 27 27 26 25 25 26 25 25 24 23 23 23 23 23 22 23 24 24 24 24 24 24 24 24 25 27 29 30 31 33 33 33 33 32 32 34 36 36 38
27 27 27 28 27 25 24 23 24 24 24 23 23 23 23 22 22 22 23 23 22 22 22 23 23 22 22 23 24 26 28 30 32 32 33 33 32 31 32 33 34 35
26 26 26 27 27 26 24 22 22 22 23 23 22 22 22 22 22 23 23 22 21 20 20 21 21 21 21 21 22 23 26 29 31 31 31 32 32 32 31 32 33 34
25 25 25 26 26 26 23 22 22 21 22 22 22 21 22 22 22 23 22 21 19 18 18 18 19 19 21 22 22 23 25 27 30 31 30 30 31 32 33 33 33 34
24 25 25 24 25 25 24 22 21 21 21 21 21 21 21 22 22 22 21 20 18 17 17 17 16 17 20 21 22 24 25 27 28 29 30 30 30 31 33 34 35 35
24 24 24 24 24 24 23 22 21 21 20 20 21 21 20 21 21 21 20 19 17 16 15 15 15 17 19 20 23 25 26 27 27 28 29 29 28 29 31 32 34 34
24 24 23 23 23 23 23 23 21 20 20 19 20 20 19 20 20 20 19 17 16 15 14 15 15 17 19 21 23 26 27 27 27 27 28 28 27 27 28 30 31 31
24 23 22 22 22 22 23 22 21 20 19 18 19 19 18 18 18 18 17 16 15 15 14 15 17 19 20 22 24 26 26 25 25 26 27 27 26 26 27 28 27 25
23 22 21 21 21 21 22 21 21 20 19 18 18 18 17 17 16 16 15 14 14 14 14 15 18 20 21 22 23 25 24 23 22 23 24 25 25 24 24 24 23 21
22 21 21 21 21 21 21 21 21 20 20 19 19 18 17 16 15 14 14 14 13 13 14 16 18 21 22 22 22 23 23 22 21 21 21 22 22 23 23 22 20 19
22 21 21 20 20 20 20 20 20 20 20 20 20 18 17 16 15 14 14 13 13 13 15 17 19 21 22 22 21 20 20 20 19 18 18 19 21 22 22 21 19 17
23 21 21 20 20 20 20 20 20 20 20 20 19 19 17 16 14 14 13 13 12 13 15 17 19 21 22 22 21 20 19 18 17 17 17 18 19 19 19 18 17 16
26 23 21 20 21 20 20 19 19 19 19 20 20 19 18 16 15 14 13 11 12 14 16 18 19 21 21 22 21 20 19 18 17 17 17 16 17 17 16 16 16 16
29 26 23 21 21 21 20 20 20 19 19 19 20 19 18 17 16 14 12 11 13 14 16 18 19 20 20 21 21 20 19 18 18 17 16 16 15 15 15 15 15 16
31 29 26 23 22 21 21 21 20 19 19 19 20 20 20 19 18 16 14 13 14 15 17 19 19 19 19 20 21 20 19 19 19 17 16 15 15 14 15 15 15 17
31 29 26 24 22 22 21 21 20 19 19 19 19 20 20 20 20 19 16 15 17 17 18 20 20 19 18 19 20 20 20 20 19 18 16 14 14 14 15 16 17 18
29 28 25 23 22 22 21 20 20 20 19 19 19 20 20 21 21 20 19 20 20 19 20 22 21 20 19 20 21 21 21 21 20 18 16 15 14 15 16 18 20 21
23 22 21 20 20 20 20 19 19 19 19 19 20 19 20 20 20 21 23 24 24 24 25 24 23 22 22 22 22 22 22 22 22 19 16 15 15 17 19 21 23 25
22 21 20 20 20 19 19 18 18 18 19 19 19 19 20 20 21 23 26 27 27 28 29 27 25 24 24 23 23 24 24 23 22 20 17 16 17 19 22 25 27 28
26 25 24 23 23 22 22 21 20 19 18 18 18 19 19 20 22 25 27 28 29 31 32 31 29 27 27 26 27 27 27 25 24 22 20 17 18 22 25 27 29 30
30 29 29 27 25 25 25 25 24 23 22 21 21 21 22 23 25 27 29 30 32 34 35 35 34 33 31 30 31 31 31 29 28 27 24 21 20 24 26 28 29 31
33 33 33 31 29 28 28 27 27 26 26 27 27 28 29 30 31 32 34 35 36 36 35 35 34 34 32 31 32 32 32 32 31 31 29 25 24 26 27 28 29 31

ECMWFNIL_prec_cthk_054.txt.gz
RH
30 30 29 29 28 26 26 25 25 24 23 22 22 26 28 29 31 32 32 33 34 35 35 35 34 34 35 36 36 36 35 35 35 35 35 35 37 39 40 40 40 40
31 31 31 30 27 25 25 25 25 23 22 22 22 24 27 28 30 30 31 33 34 35 35 35 35 36 37 38 38 38 38 36 36 37 36 37 38 39 41 42 42 40
30 31 32 31 27 24 24 25 25 23 22 21 21 22 25 27 29 29 29 30 32 34 35 36 37 37 37 39 39 40 40 39 38 37 36 37 39 40 43 45 45 44
29 30 31 31 27 26 25 25 25 23 22 21 21 22 24 26 28 28 27 28 30 32 33 35 36 35 34 35 36 37 38 37 36 35 34 34 35 37 39 41 44 45
28 29 30 30 29 28 26 26 25 23 22 22 21 21 23 25 26 27 27 28 29 29 30 31 30 30 29 29 31 34 34 34 34 32 31 31 31 33 34 36 38 40
28 28 28 29 29 28 28 26 25 23 23 22 22 22 22 23 25 26 27 27 28 28 27 28 27 27 27 26 27 29 30 34 36 34 32 31 30 31 32 33 34 35
26 27 28 28 29 28 28 27 25 24 24 24 23 23 22 22 23 24 25 25 26 26 25 25 25 24 25 25 24 27 28 30 33 33 34 34 31 30 31 30 31 33
25 26 26 27 28 28 27 27 25 24 24 24 24 23 22 22 22 23 24 23 23 23 22 22 22 21 22 23 23 25 25 26 28 29 31 32 32 31 31 30 30 31
25 25 26 26 27 27 27 26 25 23 23 23 24 24 23 22 22 22 22 22 22 21 21 21 20 20 20 21 22 23 24 24 26 27 28 29 30 31 31 32 33 32
24 25 25 25 25 26 26 27 26 24 22 21 22 24 23 22 22 21 21 21 21 20 20 20 19 18 17 18 19 22 23 24 24 24 26 28 29 30 30 33 35 34
24 24 24 24 24 25 26 27 29 27 23 20 20 23 23 21 20 20 21 20 20 19 19 18 18 16 15 16 18 21 22 23 23 23 25 27 28 28 29 30 33 34
24 24 24 23 23 24 27 28 29 28 25 21 19 20 21 21 19 19 19 19 19 19 18 17 16 15 14 15 18 20 21 22 23 24 24 25 25 27 28 29 29 30
23 23 23 23 23 24 27 28 28 28 27 24 20 18 20 20 19 18 18 18 18 18 18 17 15 14 14 15 18 21 21 22 23 24 23 23 23 24 25 27 26 26
23 23 23 23 23 23 25 26 27 27 27 27 22 18 19 19 18 17 17 18 18 17 17 16 15 13 13 15 18 21 22 22 22 22 22 21 21 21 22 24 24 25
23 23 22 22 22 22 23 24 24 24 25 25 21 18 18 19 19 19 17 17 17 17 16 16 15 14 13 16 19 21 22 21 21 21 21 20 19 20 21 21 22 22
24 22 21 21 22 22 22 22 22 22 22 22 20 18 18 18 18 19 18 17 16 15 16 15 14 13 14 16 19 21 21 21 20 20 20 19 19 19 19 19 19 20
25 23 21 21 21 21 21 21 22 21 21 21 20 19 18 18 18 18 18 18 16 15 14 14 13 12 13 16 18 19 21 21 19 18 18 18 18 17 17 17 17 17
26 25 22 20 20 20 21 21 21 21 20 20 20 19 18 19 19 18 18 19 19 16 14 13 12 11 13 15 17 18 20 20 20 19 18 17 16 16 16 15 16 16
27 26 24 22 20 19 20 20 20 20 19 19 19 19 19 19 19 19 18 19 19 17 14 13 12 11 12 15 17 17 19 21 21 19 18 17 17 16 15 15 16 15
27 27 26 25 22 20 19 19 19 18 18 18 19 19 19 18 19 19 19 18 17 17 15 14 13 12 12 14 16 17 18 20 21 20 20 19 18 17 17 15 15 15
30 27 27 27 26 23 20 19 18 19 18 18 18 18 18 18 19 19 19 18 18 17 16 14 13 12 12 14 15 17 18 20 21 22 21 21 20 19 17 16 15 15
32 29 28 28 28 27 23 20 19 19 19 19 19 18 18 18 18 18 19 19 18 18 17 16 14 13 13 15 16 17 19 20 22 23 23 22 22 20 18 17 15 15
33 30 28 29 29 29 26 22 20 19 19 19 19 19 19 18 18 17 18 19 19 18 18 17 15 15 15 16 17 18 20 21 22 23 23 23 23 22 20 17 16 15
31 28 27 27 28 29 28 24 21 20 19 19 19 19 19 19 18 18 18 19 19 18 18 17 16 17 18 19 19 21 22 23 23 23 24 23 23 22 20 18 16 16
27 26 26 27 28 29 28 25 22 20 20 19 19 18 18 19 19 18 18 18 18 18 19 18 19 21 22 22 22 24 26 26 26 26 25 24 23 23 22 19 17 17
22 22 23 24 25 26 25 23 21 21 20 20 20 19 19 19 19 20 19 19 19 19 19 20 22 23 24 24 25 26 28 29 29 30 29 27 25 24 23 21 19 18

ECMWFNIL_prec_cthk_057.txt.gz
RH
23 22 21 21 21 23 27 29 28 27 25 27 30 28 28 33 36 41 45 41 36 36 37 38 37 36 38 38 36 35 34 34 37 39 37 36 38 41 43 42 42 41
24 24 23 23 23 23 25 27 28 28 25 24 28 30 30 32 34 35 39 38 34 34 36 36 36 35 36 39 38 36 35 32 33 38 38 35 38 42 44 45 44 43
25 25 25 25 25 23 23 26 26 26 26 23 24 29 31 32 34 32 32 32 32 34 36 35 36 37 36 38 39 39 39 36 34 40 42 38 39 43 46 47 46 45
25 25 26 26 28 27 25 27 26 24 26 25 23 26 28 30 34 32 28 29 30 32 34 34 35 38 39 40 40 40 42 40 37 40 41 37 36 39 44 46 46 47
25 26 26 27 29 31 30 29 29 25 25 27 26 25 27 29 32 30 26 28 28 29 33 34 34 37 40 41 40 38 39 40 39 36 35 33 32 33 38 42 43 44
25 26 27 27 28 31 32 31 29 27 25 26 27 28 27 27 27 27 26 27 27 29 33 35 33 33 36 37 37 35 35 38 41 38 33 31 32 33 36 40 39 38
25 25 26 28 28 29 31 31 28 26 25 26 28 28 28 26 24 24 25 26 27 30 34 35 33 30 31 32 32 33 31 31 37 39 35 32 30 31 35 39 38 34
24 25 25 26 28 28 29 29 27 25 24 26 27 27 28 28 24 22 25 26 28 31 32 34 32 28 28 30 29 29 28 27 31 34 33 31 30 29 30 33 34 32
23 25 24 24 27 29 29 29 28 27 25 25 27 27 28 28 25 23 24 24 27 31 29 30 30 25 24 27 26 25 26 27 29 30 29 29 30 29 28 29 30 31
23 24 26 26 28 30 30 30 30 30 28 26 26 27 29 29 27 26 25 22 23 27 26 25 25 23 20 23 24 23 23 24 26 28 28 27 28 29 29 29 29 31
22 25 27 27 28 29 29 30 30 30 31 29 27 26 29 31 29 28 27 23 20 23 23 21 21 20 19 20 23 23 21 21 24 25 25 26 26 27 29 29 30 32
23 24 26 26 26 28 28 28 29 29 31 31 29 27 27 28 28 28 27 24 20 20 20 20 19 18 18 20 23 24 22 20 22 23 23 24 25 25 27 29 28 30
25 24 25 26 26 27 27 27 27 28 29 30 30 29 27 25 26 28 26 22 19 19 18 18 18 18 18 18 20 23 24 23 24 25 24 24 23 24 25 28 29 28
27 25 24 26 27 26 26 26 26 26 27 30 31 30 28 25 24 27 27 22 18 18 18 18 17 17 18 17 16 19 23 26 26 27 28 26 25 23 23 27 30 31
29 28 26 25 27 26 26 26 26 24 25 28 29 30 29 26 24 27 28 25 20 17 17 17 17 17 16 16 15 15 19 24 26 25 27 29 29 26 24 25 27 28
32 31 28 26 26 26 25 25 26 25 24 25 27 29 29 26 25 26 28 27 23 19 17 16 17 16 15 14 14 14 16 21 25 24 23 25 27 27 26 25 24 24
34 32 30 27 25 25 25 24 25 26 25 24 25 27 27 25 24 24 26 27 26 23 19 17 16 16 15 13 12 14 15 18 21 22 22 21 22 22 22 23 23 23
35 33 30 27 25 23 22 22 25 26 26 25 26 27 26 23 23 23 24 26 27 26 24 21 18 17 15 13 11 12 14 17 19 21 22 21 21 20 20 19 19 20
37 34 31 29 26 23 20 21 23 25 26 26 27 28 26 22 19 20 22 23 24 26 26 24 22 20 16 13 11 11 13 16 19 20 23 25 25 23 21 19 16 16
41 38 34 30 28 24 21 20 20 22 24 26 27 27 24 20 18 19 20 19 21 24 26 25 24 22 18 13 11 11 13 16 18 19 22 27 30 30 27 23 19 15
46 43 38 35 31 27 23 20 19 20 21 24 27 27 24 19 18 20 20 18 18 21 25 25 24 23 21 17 13 11 12 14 16 18 20 24 28 31 30 26 22 18
50 47 44 39 34 29 25 21 19 19 19 22 25 26 26 22 19 20 22 19 17 18 21 23 23 22 21 18 14 11 11 13 15 17 19 21 23 25 25 24 22 20
54 50 47 43 38 31 28 25 22 20 19 20 22 24 26 25 21 21 22 21 18 17 17 20 21 20 18 16 13 11 11 12 14 16 18 21 22 23 23 23 22 21
55 52 49 46 41 34 29 27 25 24 21 19 20 22 24 26 24 23 23 23 21 18 15 16 19 19 16 13 12 11 11 12 14 17 19 21 22 22 23 23 23 22
55 53 50 48 44 38 33 29 27 27 26 22 20 21 23 25 26 25 25 24 23 22 18 15 17 19 17 14 13 12 12 13 16 19 21 23 23 23 23 23 23 23
53 51 49 49 47 43 38 33 29 29 30 27 23 21 23 26 27 26 26 25 24 24 22 18 16 18 17 15 14 13 13 15 19 22 23 24 24 24 24 23 22 22

ECMWFNIL_prec_cthk_060.txt.gz
RH
12 13 13 15 15 16 18 19 20 19 19 20 20 21 21 25 30 34 34 33 32 34 35 34 33 32 32 31 29 32 34 34 35 35 34 35 38 43 44 40 36 34
13 12 12 13 15 15 16 18 19 19 19 19 20 22 22 23 27 31 33 33 32 33 34 34 34 33 33 32 30 28 28 29 31 33 33 35 38 43 47 46 41 38
17 15 13 13 14 15 17 18 18 20 20 20 21 24 25 25 26 27 29 30 31 32 32 32 33 32 31 32 32 30 28 27 29 32 34 36 37 42 46 47 44 41
19 18 17 16 16 16 17 19 19 20 22 22 22 24 26 28 28 27 27 26 28 31 32 32 32 32 31 31 33 34 33 31 31 32 33 33 34 37 42 45 45 43
20 20 19 19 19 19 19 20 21 22 23 23 23 23 25 28 29 28 27 25 25 28 30 31 32 32 33 33 34 35 36 35 33 31 31 31 31 32 36 41 44 44
21 21 21 21 22 22 22 22 22 23 23 24 23 22 24 25 27 27 27 25 24 25 27 29 31 32 32 34 35 34 33 33 33 32 31 30 30 30 32 36 39 41
21 21 21 21 23 23 24 24 24 24 24 24 23 22 23 24 25 26 27 26 24 24 25 26 28 29 31 32 32 31 29 29 31 32 32 32 31 31 32 35 36 36
21 21 21 22 22 24 24 25 25 25 24 24 24 24 23 24 24 25 26 26 25 25 26 26 26 26 27 27 28 28 27 27 28 30 30 31 33 32 32 33 34 34
21 21 21 22 22 22 23 24 24 24 25 25 25 25 24 24 24 24 25 25 24 24 26 28 29 27 25 24 24 26 26 25 26 26 25 26 29 31 31 31 31 31
20 20 21 21 21 22 22 24 25 25 25 25 26 26 25 23 23 24 24 24 24 24 26 27 29 28 26 23 21 22 23 23 24 23 23 24 25 27 28 29 29 28
20 20 20 20 21 22 22 24 27 27 26 26 27 27 25 23 23 23 25 24 23 24 25 26 27 26 25 23 21 20 20 21 21 22 22 23 23 24 25 26 27 27
19 19 19 19 20 21 22 24 27 29 28 26 26 26 25 24 23 23 24 24 23 23 23 24 25 24 23 22 21 19 18 19 20 20 21 22 22 22 23 24 24 25
19 18 19 19 19 21 23 25 27 28 27 26 25 25 26 26 24 23 24 24 22 22 23 24 24 24 23 21 21 20 19 19 19 19 20 21 21 22 22 22 22 22
21 19 20 21 21 22 23 25 25 26 26 26 25 25 27 27 26 25 24 24 24 22 23 24 24 24 23 21 20 20 19 20 19 18 19 20 21 21 21 20 19 19
27 24 22 22 22 21 22 23 24 25 25 25 25 26 27 27 28 27 26 25 25 24 23 24 24 24 23 20 18 18 19 20 21 20 20 20 21 21 20 19 18 19
34 30 26 24 23 22 22 23 24 24 24 24 24 25 27 27 28 28 27 26 25 25 25 25 25 24 21 19 17 16 17 19 20 20 21 22 22 22 21 19 18 18
39 35 31 27 24 23 22 22 23 24 24 24 23 23 26 27 27 27 27 26 25 26 25 25 25 24 21 17 17 16 16 17 17 18 20 22 24 24 24 22 20 18
43 39 36 32 27 25 23 22 23 24 24 24 23 23 23 25 27 27 26 26 25 27 27 24 23 23 21 18 17 16 15 15 15 16 19 22 23 25 25 24 22 21
46 41 38 35 31 28 25 23 23 24 24 24 23 23 23 24 25 25 26 25 25 27 27 26 24 23 22 19 17 16 16 15 14 15 17 20 21 23 24 24 22 20
48 44 41 38 35 31 28 26 24 24 24 24 23 23 23 23 24 24 24 25 24 24 25 25 25 25 23 21 18 16 15 15 15 14 16 19 21 22 23 24 23 22
50 47 45 42 39 35 32 28 26 24 24 24 23 24 23 23 24 24 24 24 23 23 23 23 24 25 24 22 20 17 15 16 15 15 16 19 21 23 23 23 24 24
50 49 48 46 43 40 37 33 30 27 24 24 23 23 24 23 23 24 24 24 23 23 23 23 23 23 23 23 21 19 17 17 16 16 16 18 21 25 26 25 25 25
51 50 50 50 47 44 41 39 36 32 28 26 25 24 25 25 24 25 25 25 24 23 23 22 22 22 22 22 22 20 20 19 18 17 15 15 18 21 24 26 27 25
50 51 51 52 50 48 44 43 41 38 33 30 27 26 26 26 26 25 25 25 24 23 22 20 21 21 21 22 21 20 21 21 21 19 16 13 14 17 19 23 24 23
50 51 52 53 52 51 49 47 45 42 39 35 30 29 29 28 28 26 25 24 24 23 22 20 19 21 21 20 20 19 20 21 22 21 18 14 12 14 16 19 20 20
50 52 53 54 54 54 53 50 48 46 44 40 36 33 31 29 29 29 28 26 25 23 22 20 18 19 19 19 18 18 19 20 21 21 19 15 12 13 16 17 18 20

ECMWFNIL_prec_cthk_063.txt.gz
RH
16 17 17 17 18 19 20 21 21 22 21 20 20 21 22 23 24 25 27 28 28 29 30 29 29 29 29 32 36 37 35 34 34 34 36 38 36 33 30 30 33 35
15 16 16 16 16 17 18 19 19 19 19 19 19 19 20 22 23 24 25 26 28 29 29 29 30 30 29 28 30 32 32 32 32 33 36 38 40 39 37 35 36 37
15 14 15 15 16 16 17 17 17 18 18 17 18 19 20 20 22 24 25 25 27 28 28 28 29 30 31 29 27 28 29 30 32 34 35 38 39 41 39 37 37 37
17 15 14 14 14 15 16 16 16 16 16 17 17 18 19 20 20 22 24 25 26 29 29 28 28 29 30 30 30 29 29 30 32 33 33 34 36 38 38 38 38 37
19 17 16 14 13 13 14 15 15 15 15 15 16 16 18 20 21 21 22 23 25 28 31 29 27 28 28 29 31 33 33 31 30 31 31 31 33 34 36 37 38 38
21 19 18 17 15 13 13 14 14 14 15 15 15 16 17 19 21 22 21 21 22 24 28 30 29 28 28 29 31 33 33 32 31 31 30 30 31 32 34 36 36 38
22 20 19 18 17 16 15 14 14 14 15 15 15 15 17 19 21 21 21 21 21 21 24 27 28 28 28 30 31 31 31 31 32 32 31 31 31 31 32 33 35 37
24 22 20 19 18 18 17 15 15 14 14 14 15 15 16 18 20 20 21 22 22 21 21 24 25 27 28 29 28 29 28 29 29 31 33 33 32 32 30 31 33 34
26 23 21 20 19 19 18 18 17 16 15 15 15 16 16 18 19 19 19 21 22 21 21 22 23 24 25 26 25 24 24 25 26 27 29 31 32 33 31 31 32 32
27 25 22 21 20 19 18 19 19 18 17 17 17 17 17 18 19 19 19 20 20 20 20 21 22 22 23 23 22 22 22 22 22 23 24 26 27 28 30 30 30 30
28 27 24 21 20 19 19 20 20 20 20 19 18 19 18 18 20 19 19 19 19 18 17 18 19 21 22 22 21 20 20 20 20 21 22 23 23 24 26 27 27 27
29 27 25 21 19 19 19 20 21 21 21 21 20 20 20 20 20 20 19 18 18 17 16 16 16 17 20 21 21 19 18 18 18 19 20 22 22 23 24 24 23 24
29 27 25 21 19 18 18 20 21 21 21 22 21 21 22 22 21 21 21 19 18 17 16 15 15 15 17 19 19 17 16 16 16 18 20 20 21 22 23 23 22 20
28 27 25 23 20 19 18 18 19 20 21 22 22 22 23 23 21 21 21 20 18 17 16 16 16 16 16 17 17 16 15 15 16 16 18 20 21 21 22 22 20 18
30 28 27 25 23 20 19 18 18 19 21 21 22 23 23 23 23 22 23 22 19 18 18 18 18 17 16 16 17 16 16 15 15 16 16 18 19 20 21 21 20 18
34 31 29 27 25 22 20 19 19 19 21 21 22 22 22 23 24 24 24 23 21 19 19 19 20 19 18 17 17 17 17 16 16 16 16 17 18 18 20 21 20 18
41 37 33 30 27 23 21 20 19 20 20 21 21 22 23 23 24 25 25 25 23 21 20 20 20 20 19 17 16 17 18 17 17 16 16 17 16 17 19 20 19 18
47 43 40 36 32 28 24 21 21 20 21 21 22 22 23 24 24 25 24 25 25 24 22 20 20 19 18 17 16 16 17 17 17 17 17 17 16 16 17 19 20 19
52 48 44 41 37 34 29 25 23 22 22 22 22 22 23 24 24 24 25 25 26 26 24 22 20 19 18 18 16 15 16 17 18 18 17 17 16 15 17 19 20 20
55 51 47 44 41 38 34 29 27 25 24 24 23 23 23 23 23 23 24 25 25 26 26 24 21 19 18 18 16 15 15 16 17 18 18 17 16 14 15 18 19 19
56 54 51 46 43 41 38 34 31 29 28 26 26 25 24 23 23 23 23 24 25 26 26 26 23 21 19 18 17 16 16 16 17 18 18 18 16 15 14 16 18 19
54 55 53 49 46 43 40 38 36 33 32 31 28 27 25 24 24 24 23 23 24 25 26 26 25 23 21 19 17 17 17 18 19 19 20 19 17 16 14 14 16 18
51 53 53 51 49 46 43 41 39 37 36 35 33 30 28 25 24 24 24 23 23 23 24 25 25 25 23 21 18 18 18 20 20 21 21 20 18 16 15 14 14 16
50 51 52 52 50 48 47 45 43 40 38 37 37 34 30 27 25 25 24 23 22 22 22 23 24 24 24 23 20 19 20 20 20 21 21 20 18 17 16 15 14 15
51 51 51 51 50 49 48 48 47 45 42 40 39 38 36 32 29 26 24 24 23 22 21 21 22 23 23 24 23 21 21 20 20 21 21 20 18 17 16 16 15 15
51 49 49 49 49 50 50 50 50 49 47 45 42 41 39 38 35 31 27 25 24 23 22 21 21 22 23 24 23 23 22 21 21 21 21 19 18 17 15 14 14 14

ECMWFNIL_prec_cthk_066.txt.gz
RH
21 22 23 25 27 27 25 24 23 23 22 20 19 20 21 23 25 26 27 27 28 29 29 28 28 27 29 31 33 33 34 36 36 35 33 29 27 28 30 29 28 28
19 21 22 23 24 24 24 22 22 21 20 19 18 19 20 22 23 24 26 27 27 28 29 28 28 27 27 29 31 32 33 35 35 36 37 35 32 30 30 30 30 31
17 19 21 22 21 21 22 22 22 21 20 20 19 19 19 21 22 22 23 26 27 28 28 29 29 28 27 27 28 30 32 34 34 35 37 38 37 33 30 29 31 34
16 16 18 20 20 18 19 20 21 21 20 20 20 19 18 20 21 22 22 23 25 27 28 28 28 29 29 27 27 28 31 34 34 35 35 36 37 35 33 31 32 34
17 16 16 17 18 18 18 18 18 19 19 19 19 19 19 18 19 21 22 23 23 25 27 27 27 29 29 30 29 29 30 32 33 33 33 34 35 35 34 33 32 32
19 18 17 16 17 17 17 17 16 16 17 18 18 19 18 18 18 19 20 22 23 25 26 27 26 27 29 31 32 31 30 29 30 31 31 32 33 34 34 33 33 31
20 19 18 18 17 16 16 16 16 16 16 16 17 17 17 17 17 18 18 20 22 23 26 27 27 26 27 31 32 32 32 30 29 30 31 31 32 33 34 33 33 32
24 21 19 18 18 17 16 15 15 15 15 15 15 15 15 15 15 16 17 18 20 22 24 26 27 27 26 29 31 30 31 32 31 31 31 31 31 31 33 34 34 33
30 26 22 19 18 17 16 15 14 14 14 14 14 14 14 14 14 15 16 16 18 20 21 23 25 26 25 28 30 30 30 31 32 32 32 32 31 30 31 32 33 33
33 31 28 23 19 16 16 16 15 14 14 14 14 13 13 13 13 14 15 15 16 17 19 20 22 23 23 25 28 29 29 31 32 32 32 32 31 31 30 30 30 31
33 33 32 29 23 18 17 16 17 17 16 15 14 14 14 13 14 14 14 14 15 16 17 18 19 20 21 22 25 26 27 29 30 29 29 29 30 31 31 30 29 28
32 32 31 30 27 24 20 18 18 18 18 17 16 15 14 14 14 14 13 14 15 15 16 17 18 19 20 20 22 23 25 27 28 27 27 27 27 29 30 30 30 28
32 31 31 30 29 28 25 22 20 19 20 18 18 17 16 15 15 14 14 14 14 15 16 16 16 18 19 20 21 22 23 24 24 25 25 26 25 25 27 27 28 28
32 32 32 31 30 29 29 27 24 22 21 21 20 19 18 17 17 15 15 15 14 15 16 16 16 16 17 19 20 21 22 22 22 22 23 23 23 24 25 26 25 25
33 34 34 33 31 30 29 28 27 25 24 23 22 21 20 19 18 18 17 16 15 15 16 17 17 17 16 17 18 20 21 21 21 21 21 21 22 23 24 25 25 24
40 37 35 34 33 31 30 29 28 27 26 25 25 23 22 21 20 20 19 18 17 16 16 17 17 17 16 16 16 17 18 19 19 20 20 19 20 21 22 24 25 24
50 46 40 36 34 33 32 31 29 28 27 26 26 25 25 24 23 22 21 20 19 18 18 17 17 17 16 16 16 16 17 17 18 18 18 18 18 19 20 21 23 23
45 46 43 39 36 35 34 33 31 29 28 27 26 26 26 26 25 24 22 21 20 20 19 18 17 16 16 16 16 16 16 17 17 17 17 17 17 17 17 18 20 22
38 35 31 30 33 36 35 34 33 30 28 27 26 26 27 27 27 25 23 22 21 21 20 19 19 17 16 16 16 16 17 17 17 17 18 18 17 16 16 16 17 19
47 37 26 21 27 34 35 34 33 31 29 28 27 27 28 28 27 26 25 23 22 21 21 20 20 19 18 17 17 17 18 18 18 18 18 18 18 17 17 16 16 16
58 52 40 29 27 31 35 34 32 31 30 29 27 27 27 27 27 27 26 24 23 22 22 21 21 21 20 19 18 18 19 20 20 20 20 19 19 18 18 18 17 16
60 57 51 42 35 33 34 35 34 33 31 30 29 28 27 27 27 27 27 26 25 24 23 22 21 22 22 21 20 20 20 21 22 22 22 21 19 19 19 18 18 17
58 54 52 48 43 38 36 37 38 36 35 33 32 30 29 27 27 27 27 27 26 25 25 23 21 21 22 23 22 22 21 22 22 23 23 22 20 19 19 19 19 19
57 53 50 50 47 43 40 40 41 40 39 38 36 34 32 30 29 28 28 28 27 27 26 24 23 21 22 22 23 24 24 23 23 24 24 22 20 19 19 19 19 19
56 52 50 50 49 46 45 44 43 43 42 41 39 38 37 35 32 31 29 29 28 28 27 26 24 22 22 22 23 25 26 26 25 24 24 22 21 19 19 19 19 19
53 49 49 50 50 49 49 48 47 45 44 43 41 41 40 39 37 35 33 32 30 30 29 28 26 24 23 22 23 25 27 27 27 26 24 22 20 19 18 18 17 16

ECMWFNIL_prec_cthk_069.txt.gz
RH
22 22 23 25 26 26 26 27 28 29 29 28 27 24 25 27 28 29 30 30 29 29 28 29 30 30 31 32 33 33 34 35 35 33 30 28 28 29 29 29 28 29
22 21 21 23 25 25 25 25 26 27 26 26 26 25 24 25 27 27 28 29 29 29 28 28 28 28 30 31 32 32 33 34 36 37 34 31 30 30 31 31 31 31
21 21 21 21 22 23 24 24 25 25 25 25 25 26 24 24 25 26 26 28 28 29 29 29 28 28 28 30 31 31 31 32 35 37 38 37 34 32 32 32 33 32
20 21 21 20 21 21 22 23 24 24 24 24 23 24 24 23 23 24 25 26 28 28 29 29 29 28 27 28 30 30 31 32 35 37 39 40 38 35 33 34 33 32
19 19 20 20 20 21 21 21 22 22 24 24 23 22 22 22 22 23 23 24 25 27 28 29 29 30 29 28 29 29 31 33 35 37 37 38 38 36 34 35 34 30
20 19 19 20 20 20 20 20 19 20 22 23 22 22 21 21 21 22 22 23 24 25 27 28 28 29 30 30 30 30 31 32 34 35 35 35 37 37 35 35 34 30
22 20 20 19 19 20 20 20 19 18 19 21 22 22 21 21 21 21 21 23 23 24 25 27 27 27 29 31 33 33 31 31 31 33 33 33 34 36 36 35 34 33
26 23 22 21 19 19 19 20 20 18 18 19 20 20 21 21 20 20 21 22 22 23 24 25 27 28 28 30 33 35 34 32 31 31 32 33 33 34 35 35 35 34
30 27 25 23 21 19 18 19 19 20 19 18 17 18 19 20 20 20 20 21 22 23 23 24 25 27 28 29 31 33 34 33 32 32 31 32 32 32 33 35 36 35
31 31 29 26 23 20 19 18 18 19 20 19 17 17 17 18 19 18 19 19 20 21 22 22 23 25 27 30 30 31 32 33 33 34 33 33 32 32 33 34 35 35
32 31 31 29 25 21 19 17 17 17 19 19 18 18 17 16 17 17 17 17 18 18 19 21 22 23 25 28 30 30 30 32 33 34 35 35 34 33 34 34 34 34
33 31 30 29 28 25 21 18 17 16 17 17 18 18 17 16 16 16 16 16 15 16 16 18 20 21 22 25 28 29 28 31 33 34 35 36 35 35 34 35 34 34
33 31 30 29 29 29 27 23 20 17 16 16 16 17 16 16 15 15 14 14 14 14 14 15 17 19 20 22 25 27 27 28 31 32 33 35 35 34 33 34 35 34
34 33 32 31 30 31 31 29 26 22 20 17 16 16 16 16 16 15 14 14 14 14 14 14 15 17 18 19 22 25 26 27 28 29 30 32 32 32 31 31 32 33
37 36 35 34 33 32 32 32 31 28 26 23 21 19 17 17 17 16 15 15 14 14 14 14 14 15 17 17 20 23 25 25 26 27 28 28 28 28 29 29 29 29
42 38 36 35 34 32 31 30 31 31 30 29 26 24 22 20 19 19 18 16 15 15 14 15 15 15 16 17 18 21 22 23 24 26 27 26 26 26 26 26 26 25
49 43 40 38 37 36 34 32 32 31 31 31 30 29 27 25 23 22 20 19 18 17 16 16 15 15 16 17 18 19 21 22 22 23 25 25 25 25 24 24 25 24
57 51 46 43 41 40 39 36 35 33 32 32 32 31 30 29 27 25 23 22 21 20 18 17 17 17 17 18 19 19 20 21 22 22 23 22 22 22 22 22 23 22
64 60 53 49 46 42 41 40 38 36 34 32 32 32 32 32 31 29 27 25 23 22 20 19 18 18 19 19 20 20 20 21 22 22 22 21 20 20 20 20 20 20
62 63 59 54 50 45 42 41 39 37 36 35 33 33 33 33 32 32 30 28 26 24 22 21 19 19 20 20 21 21 21 21 22 23 23 22 21 20 20 19 19 19
54 55 55 56 55 50 44 41 39 38 36 35 35 34 33 33 33 33 32 30 28 26 24 22 20 19 20 21 21 22 22 23 23 23 24 24 22 21 21 21 20 19
58 54 51 53 56 55 48 42 40 39 37 36 36 35 34 33 33 33 32 31 29 28 27 23 21 20 20 20 21 22 24 24 25 24 25 25 24 23 22 21 20 20
67 64 58 56 57 57 52 46 43 42 40 38 37 37 35 34 32 31 31 30 29 28 27 24 20 19 20 20 20 22 24 25 26 26 25 24 24 23 23 22 21 21
70 69 66 63 59 55 50 46 44 44 43 42 40 39 37 36 34 33 32 31 29 27 26 24 22 20 20 19 20 22 24 26 27 27 27 25 24 23 23 23 22 21
71 69 66 63 59 54 50 48 47 45 44 43 43 42 40 40 38 36 34 32 30 28 26 25 23 22 21 20 20 21 23 25 27 29 28 27 25 24 23 23 22 22
72 69 66 63 58 54 54 53 50 48 46 44 43 43 44 43 40 37 35 34 32 30 29 27 26 24 23 21 20 20 22 24 27 29 29 27 25 23 23 24 23 22

ECMWFNIL_prec_cthk_072.txt.gz
RH
24 25 27 28 28 27 26 27 29 32 32 31 30 28 28 29 31 32 33 33 33 33 34 34 34 35 35 36 38 38 37 37 37 36 33 31 32 31 30 30 30 31
24 22 23 26 28 27 25 24 26 29 30 30 30 29 27 27 28 30 32 32 33 33 33 33 34 35 35 35 36 37 36 36 38 39 36 33 32 32 31 31 31 32
26 23 22 23 26 26 25 24 24 26 28 29 30 29 27 27 26 27 29 31 32 32 32 33 33 34 34 34 35 36 36 36 36 38 39 39 37 34 33 32 32 33
24 24 22 21 23 25 25 24 24 25 26 28 29 29 28 27 27 26 26 28 29 31 31 32 32 32 33 34 34 34 35 35 36 37 40 43 42 38 37 36 35 35
22 22 22 22 21 23 24 24 24 24 25 26 27 28 28 28 27 26 26 26 27 29 30 30 31 32 32 33 33 33 34 35 36 38 39 42 43 41 40 39 39 37
23 22 21 22 22 22 22 23 24 24 23 24 25 27 27 27 27 26 26 26 26 26 27 28 28 29 31 32 33 33 34 35 37 37 38 38 40 42 41 39 39 37
27 24 22 21 22 21 21 21 22 23 23 23 24 25 27 27 27 26 26 26 26 25 26 26 26 26 28 29 32 34 35 36 36 36 35 35 36 39 40 40 39 37
31 29 25 22 21 21 21 21 21 21 21 22 23 24 25 25 26 26 26 26 26 26 26 26 26 25 25 26 28 32 35 37 37 35 33 33 33 35 37 39 39 37
33 31 29 26 23 21 20 20 21 21 20 20 21 22 23 24 25 25 26 26 26 25 25 26 26 26 26 26 27 29 33 35 36 36 34 33 33 32 34 36 38 37
33 33 32 30 27 24 21 19 20 20 20 20 20 20 21 22 23 24 25 26 26 26 25 25 25 26 26 26 27 29 31 32 33 35 35 35 34 33 32 33 36 36
34 33 33 32 30 28 24 21 20 19 20 19 19 19 19 19 21 23 24 25 25 25 25 24 24 24 25 26 26 28 29 30 31 32 33 35 35 35 33 32 33 34
36 34 32 32 32 32 30 27 24 22 20 20 19 19 18 18 18 20 21 22 23 24 25 24 23 23 24 25 26 27 27 28 29 30 31 32 34 36 36 34 32 32
40 36 34 33 33 34 34 32 30 28 25 22 21 19 18 18 18 18 19 20 21 21 22 22 22 23 22 24 25 26 26 26 27 29 31 31 32 34 36 36 35 33
44 42 39 37 36 35 36 36 35 32 30 28 26 23 20 18 18 17 17 18 18 19 19 20 20 20 21 22 23 25 26 25 25 26 28 30 32 32 33 35 36 35
48 47 44 41 39 36 35 36 36 36 34 32 29 27 24 21 20 18 17 17 17 17 17 18 18 18 18 19 21 23 25 25 24 24 26 28 30 31 31 32 33 34
50 49 46 43 41 38 36 35 36 37 36 34 31 29 28 26 24 22 20 18 18 17 17 17 16 16 16 17 17 19 22 24 24 24 24 26 28 29 29 29 29 30
51 50 48 45 41 38 37 36 36 36 36 36 34 32 31 29 28 27 25 23 21 20 19 17 16 16 15 15 16 16 19 22 23 23 23 24 26 27 28 28 27 26
49 49 49 47 43 38 35 34 34 35 36 35 35 35 34 32 31 30 28 28 26 25 22 20 18 16 16 16 16 16 17 19 21 22 23 23 23 25 27 27 26 26
48 46 44 45 46 43 40 36 33 32 33 34 34 35 35 35 33 32 31 30 30 28 26 24 21 19 18 17 17 17 17 19 20 21 21 22 22 23 24 24 25 24
58 51 45 44 46 47 47 45 40 35 32 31 32 34 35 35 34 34 33 32 31 30 29 27 24 21 20 19 19 19 19 19 20 21 21 21 21 21 22 22 22 22
69 62 53 47 47 47 49 50 48 44 38 34 33 33 34 35 36 36 35 34 34 32 31 30 26 23 21 20 20 19 20 20 21 21 22 21 21 20 21 20 20 21
77 71 62 56 53 50 48 48 48 48 46 42 39 35 34 34 36 36 36 35 35 34 34 32 28 25 23 21 20 20 20 21 21 21 21 21 20 20 20 20 20 20
81 79 72 66 62 55 50 49 48 46 47 48 46 42 38 36 35 35 34 34 34 34 34 34 30 28 26 23 21 21 21 21 21 21 21 21 20 20 21 21 20 20
82 80 76 72 68 61 56 54 51 46 44 47 47 44 41 39 37 36 34 33 33 32 32 33 32 30 29 26 23 22 22 22 21 21 22 22 21 21 21 21 20 21
81 78 76 73 71 66 60 58 55 50 46 46 45 43 42 41 40 38 35 33 32 31 30 31 31 31 31 28 25 23 23 22 21 22 22 22 21 21 21 21 21 21
81 79 77 75 72 69 65 63 60 56 53 50 46 42 42 43 42 39 35 32 31 30 30 28 28 30 31 30 27 24 23 22 22 22 21 20 21 21 21 22 22 21

ECMWFNIL_prec_cthk_075.txt.gz
RH
28 32 33 33 32 31 32 33 34 36 37 36 36 35 34 33 34 34 34 34 34 34 34 35 36 36 36 37 38 39 40 39 39 36 33 32 33 34 34 32 31 31
25 28 32 33 32 29 29 30 31 32 33 34 34 33 32 31 31 31 32 32 33 33 33 34 34 35 35 36 37 38 39 40 40 38 34 33 33 33 33 34 33 31
23 24 27 31 32 30 27 27 28 29 30 32 33 32 31 30 29 29 30 30 31 32 33 33 34 34 34 35 35 36 37 39 40 40 37 35 34 33 33 33 34 32
24 23 24 27 29 30 28 26 26 26 27 29 31 31 31 30 29 28 28 28 29 31 32 33 34 34 34 34 34 35 35 37 38 39 40 39 37 35 36 35 34 34
24 24 23 23 25 28 29 28 26 25 25 27 28 30 31 30 29 28 27 28 28 29 30 31 33 33 34 34 34 34 34 35 35 37 39 42 42 40 39 38 37 36
25 24 24 23 23 25 27 28 27 25 24 25 26 28 30 30 30 28 27 27 27 28 29 29 31 32 33 34 34 34 33 33 33 35 38 40 42 42 41 40 39 38
27 25 25 25 24 24 24 26 27 26 25 25 25 27 28 29 29 29 27 26 26 27 28 28 28 29 30 31 32 33 34 34 34 35 37 37 38 40 41 40 39 37
29 28 26 25 25 24 24 24 25 26 25 26 26 26 26 27 27 28 28 27 26 26 27 27 27 27 28 28 29 29 31 33 34 35 35 35 35 36 38 39 40 38
32 30 29 27 26 25 24 24 24 24 25 25 25 26 25 25 26 26 27 27 26 26 26 26 26 26 26 26 27 28 29 30 32 33 34 34 34 34 35 36 38 38
33 32 31 29 28 26 25 25 25 24 24 24 24 24 24 24 24 25 25 26 25 25 25 25 26 26 26 25 25 27 28 30 30 31 32 33 33 33 33 34 35 37
35 34 33 31 30 29 27 27 26 25 24 24 23 23 23 23 23 23 24 24 24 24 24 24 25 25 26 26 25 25 26 28 29 30 30 31 32 33 33 32 33 34
40 38 35 33 32 31 30 29 28 27 26 25 24 22 22 21 21 22 22 22 23 23 23 23 24 24 25 25 25 25 25 26 27 28 29 29 31 32 32 32 32 33
45 42 39 37 35 33 32 32 30 29 28 27 25 24 22 21 20 20 20 21 21 22 22 22 22 23 23 23 23 24 25 26 25 26 27 28 29 30 31 32 32 32
48 46 44 42 40 37 35 33 32 31 29 29 28 26 25 23 21 20 19 19 19 20 21 21 21 21 21 21 21 22 23 24 24 24 24 25 26 28 29 31 31 32
52 49 47 46 45 42 38 35 34 33 32 31 30 29 28 26 25 23 21 20 19 18 18 19 19 20 20 20 19 20 20 22 23 23 22 23 23 25 27 29 30 31
53 52 49 47 46 44 41 38 36 35 34 33 31 31 30 30 28 27 25 23 21 19 18 17 17 17 17 18 18 18 19 20 21 22 22 22 22 22 24 26 28 30
52 52 51 49 47 46 43 40 38 36 35 35 34 33 32 31 31 30 28 26 24 21 19 18 16 16 16 16 16 16 17 17 19 21 22 22 21 21 22 24 25 28
53 52 52 51 50 48 46 43 41 39 37 36 35 34 34 33 32 31 30 30 28 25 23 19 16 15 16 16 15 15 15 15 16 18 20 21 21 20 21 22 24 25
56 52 51 51 51 50 49 48 46 44 41 38 37 36 36 35 34 33 32 32 31 29 27 23 20 17 16 15 15 15 15 15 15 16 17 20 21 21 21 21 23 23
62 56 52 51 50 50 50 49 49 47 45 44 42 39 37 36 35 35 34 34 33 31 30 28 25 22 19 18 17 16 16 16 16 16 16 17 19 20 21 21 22 22
69 64 59 55 53 51 50 49 47 46 46 46 46 45 42 39 37 36 35 35 34 33 32 31 29 27 25 23 21 20 20 20 20 20 19 17 17 18 20 21 21 21
77 74 69 64 61 57 53 50 47 47 47 47 47 47 47 44 41 39 37 35 35 34 33 32 31 30 29 27 25 25 26 27 25 23 22 20 18 17 18 20 21 21
83 81 77 72 68 63 57 53 50 49 48 48 48 47 47 46 44 42 40 38 36 35 34 33 31 31 30 30 29 29 30 30 28 27 26 23 19 18 17 18 19 20
83 83 82 78 74 69 64 59 57 55 53 51 50 48 46 45 45 44 43 41 39 37 35 33 31 30 30 30 30 31 32 32 30 29 28 26 22 19 17 18 18 19
83 83 83 83 79 76 72 69 67 64 60 55 53 52 50 47 46 44 42 41 39 37 35 33 31 30 30 29 29 29 31 31 31 31 30 27 24 21 19 18 18 18
79 80 81 83 83 81 78 77 76 73 68 61 58 57 56 52 50 47 43 40 38 37 35 33 30 29 29 29 29 29 29 30 30 31 30 26 23 22 21 19 18 18

ECMWFNIL_prec_cthk_078.txt.gz
RH
28 28 29 33 37 38 39 41 40 41 43 46 47 47 45 41 40 40 38 35 35 35 35 35 35 36 37 37 36 35 35 36 36 35 32 31 32 36 39 38 39 42
27 27 28 31 34 35 35 36 38 39 39 40 44 46 43 39 37 36 35 34 33 34 34 34 34 35 36 37 37 37 37 35 36 36 33 32 34 35 37 37 37 37
26 27 28 30 31 31 31 32 34 36 36 37 38 41 41 40 38 34 33 32 32 33 33 32 33 33 34 36 37 38 38 37 38 39 35 34 36 37 37 38 38 36
26 26 27 30 32 31 30 30 31 32 34 36 35 36 38 39 38 34 32 31 31 32 32 32 33 33 33 34 35 36 38 37 38 39 37 35 35 37 38 39 40 39
27 25 26 29 32 32 30 29 29 29 31 33 34 34 35 34 34 34 33 31 30 30 31 31 31 32 32 32 33 34 35 38 39 37 37 38 37 38 39 39 39 39
27 26 25 26 29 32 31 29 28 28 29 31 32 32 32 31 30 32 32 31 31 32 33 32 31 32 33 32 32 33 34 38 40 37 36 38 41 44 45 43 40 39
27 27 26 25 26 28 30 30 29 27 27 29 29 29 29 29 29 30 29 29 31 34 35 34 31 30 32 32 32 33 32 34 36 34 34 36 39 43 46 45 40 38
27 27 26 26 26 26 27 29 29 28 26 26 26 26 26 26 27 29 28 27 29 31 30 31 30 29 30 31 31 32 32 33 34 33 32 35 36 37 40 42 39 37
31 29 27 26 26 26 27 28 28 27 26 25 25 25 25 25 26 28 28 26 26 27 26 26 28 27 28 28 28 27 28 31 34 34 33 34 35 35 36 38 39 38
35 33 31 28 28 28 28 30 31 29 25 24 25 26 25 24 24 25 26 25 24 24 23 23 25 25 25 26 25 25 25 26 29 30 30 31 33 35 36 37 39 40
39 37 35 32 31 32 31 30 33 34 30 24 23 25 26 25 23 24 24 24 24 23 23 22 23 24 24 25 24 25 25 25 27 27 28 28 29 30 31 33 35 38
42 41 39 36 34 35 36 34 33 34 33 28 24 23 24 24 23 23 22 22 22 23 23 22 22 22 23 23 24 25 24 24 26 28 28 28 28 28 28 29 30 32
43 42 41 40 38 35 37 39 37 35 33 32 29 26 25 24 22 21 21 21 21 22 23 22 22 22 21 22 23 25 25 23 24 26 28 28 28 28 30 30 30 30
45 45 45 44 42 38 36 37 38 37 36 35 32 29 27 26 25 22 20 19 20 20 21 21 21 21 21 21 21 22 23 23 23 24 26 27 27 27 30 31 32 33
51 48 46 46 45 42 39 37 36 36 35 34 32 30 29 28 28 27 23 20 18 18 19 20 20 21 20 21 21 21 21 22 22 23 23 24 25 25 26 28 29 32
61 54 49 48 47 43 42 41 39 36 34 33 32 30 30 30 29 28 27 24 21 19 18 17 18 19 19 19 20 20 21 21 21 21 22 22 23 23 24 24 25 28
69 63 54 49 48 45 43 43 42 40 37 34 33 32 32 31 30 29 29 28 26 23 21 19 17 17 16 17 17 17 18 19 20 20 20 21 22 22 23 22 22 24
74 70 61 53 50 48 45 44 43 43 40 38 36 34 33 32 31 30 29 29 29 28 26 24 22 19 16 15 15 15 16 17 18 18 19 19 20 21 22 22 22 21
77 75 70 63 55 50 48 47 44 42 41 40 38 37 36 33 32 32 30 30 30 29 28 28 26 23 20 16 15 15 15 15 16 17 19 19 19 19 20 21 22 21
80 78 76 73 65 58 53 51 48 44 41 40 40 41 39 36 33 33 32 31 30 30 29 29 28 27 24 21 18 16 16 16 17 17 19 19 19 18 17 18 20 21
83 82 80 77 73 68 62 57 55 52 48 45 44 44 43 40 37 36 34 33 32 31 30 29 28 28 28 26 23 21 20 20 20 21 20 20 18 17 16 15 17 19
85 85 84 80 77 74 69 63 59 57 56 54 51 49 47 44 41 39 37 35 34 33 32 31 29 29 29 29 27 26 26 26 26 25 23 22 21 19 16 15 14 16
85 85 85 84 80 77 75 71 65 62 60 60 58 55 51 48 45 43 41 39 38 36 34 32 31 30 29 29 29 29 30 30 29 28 27 25 23 22 20 18 15 15
86 85 85 85 83 81 79 78 75 70 66 63 61 59 55 50 48 46 45 42 40 39 38 35 32 31 30 30 30 30 30 30 30 30 30 28 27 25 24 21 18 16
80 80 81 83 84 84 83 81 80 76 72 69 65 62 58 54 50 48 47 46 43 40 39 38 35 33 31 30 30 30 30 30 31 31 30 29 29 28 26 25 23 20
75 72 72 76 79 82 85 86 84 80 77 74 70 67 63 58 54 50 49 50 49 45 41 39 37 35 32 30 30 30 30 30 30 31 30 29 29 29 28 28 26 23

ECMWFNIL_prec_cthk_081.txt.gz
RH
29 28 33 38 43 48 49 49 47 47 51 52 49 49 49 48 47 46 45 40 35 36 35 36 37 37 39 37 37 40 38 38 42 39 32 35 36 40 45 44 45 47
28 27 30 37 42 46 49 49 46 44 47 50 50 50 47 46 44 42 41 37 35 34 33 33 35 35 39 40 37 35 35 34 39 39 32 33 37 40 43 43 43 45
28 26 27 34 41 43 46 48 45 43 45 46 48 50 47 44 42 38 37 36 36 37 34 32 33 34 36 38 36 36 36 33 36 41 35 31 36 40 42 42 41 42
28 26 26 33 40 43 45 46 45 42 43 44 45 46 46 44 43 39 35 34 34 36 36 32 33 33 33 34 36 38 38 34 35 39 35 31 34 39 41 41 40 41
28 28 28 32 39 43 44 44 44 43 41 42 43 43 43 43 43 41 37 33 30 33 35 34 32 33 32 31 34 36 38 39 37 34 33 33 33 37 40 39 38 40
29 28 28 31 36 40 42 42 42 41 40 39 39 40 41 39 39 40 40 36 33 33 36 36 34 36 35 31 30 32 36 43 42 34 32 34 35 39 42 40 37 37
30 29 27 29 33 36 38 40 39 38 39 37 36 37 38 37 36 35 37 38 37 36 37 37 37 37 38 35 31 29 32 39 41 36 33 34 35 38 43 43 38 36
32 31 29 28 31 34 35 38 38 37 35 36 35 35 35 36 36 34 34 36 36 36 36 37 36 34 35 37 35 30 30 35 39 36 33 34 34 35 38 41 38 35
33 34 33 30 30 32 33 35 37 37 35 33 33 34 34 34 35 36 36 34 34 34 34 35 35 32 32 36 36 32 30 34 38 38 34 32 33 35 36 38 37 36
34 35 37 35 31 30 31 32 34 36 36 33 31 31 32 32 31 33 35 34 32 31 31 32 32 31 31 33 34 32 30 30 33 36 35 33 35 37 38 39 39 38
36 35 36 37 35 33 31 31 31 32 34 34 32 30 29 30 30 29 30 32 32 30 30 28 27 27 29 31 33 32 30 29 30 30 31 31 33 34 35 37 38 39
40 38 36 36 37 37 36 35 31 29 30 32 33 31 28 28 29 28 26 26 26 27 28 27 23 22 23 26 30 32 32 31 31 31 31 30 31 32 32 32 33 35
43 42 40 38 38 39 39 39 36 31 29 29 31 32 29 27 27 28 26 22 20 21 25 26 23 21 20 20 24 29 31 31 31 32 32 33 33 33 34 33 32 33
46 45 43 40 40 40 40 41 40 37 33 29 30 32 31 27 26 27 27 25 21 19 20 23 23 22 20 19 19 24 28 31 31 31 31 32 33 34 35 34 33 33
53 50 46 43 42 41 41 42 41 40 40 36 33 33 33 31 28 26 26 27 25 21 19 22 24 24 23 21 19 19 23 28 30 31 30 31 32 33 33 33 32 32
63 58 54 52 50 46 43 43 42 42 43 41 37 39 38 36 33 29 26 26 27 25 23 22 24 25 25 23 20 18 20 24 27 29 30 31 31 31 31 31 31 30
74 70 65 62 60 54 50 47 44 43 43 42 42 43 40 38 37 35 31 29 28 29 28 24 22 22 23 23 21 19 19 21 24 26 28 29 30 29 29 28 28 28
79 77 74 69 66 61 56 52 47 43 41 41 42 42 40 40 41 38 35 33 30 30 30 27 23 22 21 21 21 19 17 19 22 25 26 26 27 27 28 27 26 27
79 78 78 75 71 65 60 56 53 48 45 44 43 41 41 42 41 38 35 34 32 31 30 29 28 27 24 23 22 20 17 16 17 20 23 23 25 26 26 26 25 26
77 78 79 78 75 73 69 65 62 57 54 53 51 49 46 43 40 39 37 34 31 29 29 29 29 29 28 26 25 23 20 17 15 16 18 19 21 22 24 25 25 25
79 81 82 80 79 80 78 75 72 66 61 61 61 60 57 52 46 42 39 37 35 32 30 30 29 30 29 27 26 26 24 22 20 18 18 17 18 19 20 22 24 25
80 82 83 83 83 84 81 77 76 73 69 69 69 66 62 59 55 49 42 38 37 36 34 33 32 31 30 27 27 27 26 25 24 23 22 20 18 17 16 17 17 20
78 78 81 83 85 85 83 81 79 77 74 71 69 64 60 58 58 57 52 44 40 38 36 34 33 32 31 29 28 28 28 28 28 27 26 25 23 21 18 16 15 14
78 77 78 80 83 86 88 87 85 83 80 75 70 67 65 61 59 61 60 55 47 41 38 36 34 32 32 31 30 30 30 30 29 30 29 28 26 25 23 21 19 16
80 82 81 80 83 88 92 92 88 84 83 81 76 73 71 66 62 60 59 57 53 47 43 43 40 36 33 32 31 30 31 31 31 31 30 29 28 27 26 25 23 21
75 81 83 83 84 85 87 89 88 84 82 81 80 80 77 71 67 62 59 58 56 51 48 48 46 41 38 36 34 32 31 31 32 32 31 30 29 28 28 27 27 26

ECMWFNIL_prec_cthk_084.txt.gz
RH
28 29 33 39 42 45 47 45 44 47 49 47 45 44 45 47 49 48 41 34 33 34 35 35 35 39 41 38 37 36 33 33 36 33 28 29 30 34 38 37 39 41
28 27 29 35 38 40 43 43 44 46 47 48 48 46 44 43 43 41 38 33 30 30 30 31 32 33 35 36 34 35 34 33 36 35 29 29 30 33 39 39 38 39
27 25 26 31 34 36 40 43 44 45 45 46 49 49 46 42 39 36 34 33 29 28 28 29 30 30 33 37 34 34 35 34 37 37 30 28 31 34 38 39 38 37
25 25 23 28 33 34 38 43 43 43 43 44 47 49 48 44 40 34 32 31 29 27 26 27 30 30 32 37 37 36 37 36 37 37 31 28 31 35 39 39 38 38
24 25 22 25 32 35 37 41 42 41 41 42 44 47 47 44 40 34 30 28 28 29 28 25 26 29 31 32 35 37 37 35 35 34 34 32 30 34 40 39 37 39
24 25 23 24 31 35 36 39 41 39 38 39 42 44 43 42 41 37 32 27 25 28 31 27 24 27 29 29 31 34 35 37 36 32 32 33 30 33 40 39 36 37
26 25 25 24 28 33 37 39 40 39 37 37 39 41 41 40 39 38 37 31 27 28 31 32 28 27 28 28 28 30 31 36 39 33 29 31 31 33 39 41 38 36
30 26 25 25 27 29 35 39 40 40 38 35 36 36 37 38 35 35 37 35 32 33 33 34 32 29 28 28 27 27 28 31 36 35 30 30 30 31 35 40 41 38
38 32 26 26 29 28 30 35 38 39 38 36 35 34 33 34 33 31 33 33 33 35 34 33 33 30 29 30 29 27 26 28 33 35 32 31 31 30 31 35 38 37
44 40 35 31 30 28 27 30 33 36 37 35 35 34 32 32 31 30 30 30 30 32 32 31 33 31 27 29 31 29 26 27 32 35 33 29 29 29 30 31 31 33
50 45 42 38 34 30 28 28 29 32 35 35 33 32 31 32 31 31 31 29 28 29 29 28 29 30 26 26 29 30 27 26 28 30 31 30 27 28 29 30 30 31
64 55 48 43 38 35 33 31 29 29 32 35 35 32 31 30 31 31 31 30 29 27 26 25 25 27 25 24 27 30 28 25 25 25 26 26 25 25 25 26 27 28
70 68 63 55 47 42 39 36 33 31 31 33 35 35 32 30 30 30 30 30 29 27 25 25 24 25 25 23 25 29 30 27 25 24 23 22 22 22 22 22 23 24
71 73 76 72 60 50 44 41 38 36 34 33 33 33 34 33 31 30 30 30 30 27 25 24 24 24 24 23 21 24 29 30 29 28 27 26 24 23 23 25 27 27
72 72 75 73 66 58 51 44 42 44 45 44 40 35 32 33 33 32 32 31 31 30 28 27 27 25 23 22 20 20 23 27 29 30 30 30 29 29 28 28 29 29
72 73 73 70 69 68 62 53 46 43 46 51 52 49 41 35 33 32 32 33 32 32 30 29 29 29 25 22 20 19 19 21 24 27 29 30 29 30 31 30 31 30
77 78 76 71 72 74 73 71 61 46 41 44 50 55 53 45 40 35 33 34 33 32 32 30 29 29 28 26 23 21 20 19 20 22 25 27 27 27 28 29 29 30
82 83 79 73 73 73 70 73 70 59 53 50 49 52 50 45 46 42 37 37 36 34 34 33 31 29 27 26 24 23 22 21 19 20 21 23 25 25 25 26 26 26
83 83 83 79 77 75 69 68 68 65 65 63 60 60 54 49 50 47 42 41 39 36 36 36 34 33 29 28 26 24 23 22 20 20 20 20 22 23 23 23 23 23
81 82 83 83 81 79 76 74 70 69 71 67 63 63 62 60 58 53 49 48 42 37 36 35 34 33 32 30 28 26 26 25 23 21 20 19 21 22 23 23 23 23
81 82 82 83 84 83 81 79 77 74 74 68 60 57 59 61 62 62 62 62 55 47 41 35 31 30 29 28 28 27 28 28 27 24 22 20 19 20 21 21 21 22
79 82 83 85 85 83 81 79 79 77 75 71 66 62 60 58 57 58 59 63 65 61 53 45 37 31 30 29 28 29 28 28 28 26 25 24 22 20 19 18 18 18
77 81 84 85 84 82 79 78 80 81 79 76 74 71 68 64 60 56 53 54 60 63 60 55 48 41 37 33 31 32 31 30 29 28 27 27 25 24 21 19 18 17
69 72 76 78 80 80 79 76 78 81 81 80 78 77 76 73 69 66 62 59 60 63 62 59 57 53 48 42 38 37 34 33 32 31 31 30 29 28 27 24 23 22
62 63 65 68 70 74 78 78 75 76 78 79 78 80 80 78 74 72 71 70 69 66 63 60 60 60 57 52 48 46 42 38 37 36 34 33 31 30 30 28 27 26
60 62 63 64 65 69 75 80 79 76 76 77 78 79 80 81 80 78 76 76 74 69 66 63 60 60 62 60 57 56 51 45 42 40 36 36 35 34 33 31 29 29

ECMWFNIL_prec_cthk_087.txt.gz
RH
33 35 38 44 46 47 48 47 49 52 49 46 46 49 50 48 47 43 38 38 40 42 43 40 41 45 45 44 42 38 36 34 31 29 29 29 30 33 34 35 38 38
31 32 35 42 45 46 47 44 45 49 48 46 45 46 49 50 50 46 40 35 35 37 38 38 39 42 42 40 39 38 35 33 34 30 28 29 29 31 33 35 36 36
30 30 31 37 43 45 44 42 43 46 46 46 46 45 47 49 48 45 40 34 31 32 33 33 35 36 38 37 35 36 35 33 35 32 27 28 29 30 33 35 36 34
30 30 29 33 39 42 43 43 43 44 44 46 48 47 45 45 44 42 38 33 31 30 30 31 32 32 35 37 34 35 36 35 37 33 26 27 29 29 32 35 37 35
29 30 28 29 33 37 40 44 44 44 43 44 48 50 48 45 43 39 35 32 30 29 27 29 31 30 33 37 36 36 36 35 37 34 28 28 29 30 33 34 35 35
28 29 29 27 29 32 36 40 43 45 43 42 45 50 51 48 45 38 32 30 29 28 27 26 28 29 31 34 35 35 36 36 36 34 32 30 29 31 35 36 34 35
26 27 28 28 27 29 33 37 42 45 44 42 43 47 50 49 46 41 35 31 28 27 26 25 25 27 29 29 30 32 35 37 35 32 31 31 30 31 35 38 36 34
26 26 27 27 28 29 32 36 40 44 45 43 42 43 46 47 46 44 40 34 28 26 26 26 25 26 28 28 28 29 30 34 35 33 30 30 31 31 34 39 40 36
32 30 28 27 27 30 33 35 39 43 44 44 44 43 43 43 43 43 41 37 33 29 28 28 27 27 27 27 27 27 27 29 31 33 32 31 30 31 33 36 38 38
42 38 34 29 28 29 32 34 37 41 44 44 44 44 42 40 40 40 38 35 34 31 30 31 31 29 28 27 26 26 26 26 27 30 33 34 31 30 31 32 34 35
51 46 42 36 32 31 32 33 33 37 41 43 43 43 43 40 39 38 36 34 32 30 30 32 33 31 30 28 26 26 25 26 26 28 31 33 32 30 31 31 31 31
55 54 55 47 40 36 33 31 31 32 35 39 40 41 41 41 39 37 36 35 32 30 29 30 32 32 30 29 28 26 25 25 26 28 29 30 30 29 29 29 29 29
58 61 63 56 52 50 43 34 30 29 30 33 35 36 36 37 37 36 35 34 32 30 29 29 31 31 29 28 26 26 25 24 25 26 26 26 27 26 26 26 26 26
64 68 68 62 59 60 57 48 37 32 30 30 31 33 34 34 35 35 34 33 32 30 28 28 28 28 27 26 25 24 23 23 23 24 25 24 24 23 22 22 22 22
71 72 72 68 65 64 63 59 49 40 36 34 32 32 32 33 33 34 33 31 31 30 28 27 26 25 24 23 23 22 22 21 21 22 23 24 23 22 22 22 22 22
76 75 73 71 69 67 65 64 58 48 41 40 38 36 35 35 34 33 33 32 31 30 30 29 27 25 23 21 20 20 20 20 20 19 20 22 23 23 23 24 25 26
79 79 75 72 70 67 65 65 62 55 48 44 42 42 43 43 40 38 35 33 32 31 31 30 30 29 26 24 22 20 20 20 20 19 18 18 20 21 22 23 25 27
82 81 79 75 71 68 68 67 64 61 57 52 47 45 46 47 47 48 44 38 35 34 33 33 32 31 29 28 26 24 23 23 22 21 20 19 18 18 19 19 20 22
88 85 82 79 74 72 72 70 67 65 66 65 60 53 47 45 47 51 50 47 43 41 39 39 38 36 34 32 31 29 28 27 26 25 23 22 21 20 20 20 19 19
88 86 84 81 78 75 75 73 71 71 72 73 71 65 56 51 51 52 53 52 49 46 46 45 44 44 42 40 38 36 34 32 30 29 27 25 23 22 21 21 20 21
85 85 84 83 81 79 78 77 75 75 75 74 73 71 66 63 61 61 60 59 55 53 52 49 48 49 50 50 49 46 44 40 36 33 32 30 28 26 24 23 22 21
81 81 81 81 80 78 79 79 77 77 77 76 74 73 70 70 70 68 67 66 63 60 58 56 56 57 55 53 51 48 47 47 44 39 35 32 32 31 30 28 27 25
79 81 80 80 79 78 79 82 83 82 81 79 78 77 75 75 75 72 69 67 65 63 62 63 65 63 60 57 53 47 43 43 42 40 37 35 32 32 32 32 31 30
70 74 75 78 80 80 81 82 84 84 82 80 80 81 81 79 78 76 74 70 67 64 64 65 63 60 60 60 57 51 47 45 42 40 40 39 34 31 31 32 32 32
62 64 66 70 74 78 81 83 83 81 78 77 79 82 85 86 84 81 81 79 75 72 71 69 64 60 60 61 62 62 62 61 58 54 50 49 44 38 33 32 31 32
55 58 60 62 64 68 74 78 80 79 78 78 79 81 84 88 88 85 84 83 82 81 81 78 73 68 65 66 70 75 74 70 68 66 65 65 62 54 44 36 32 31

ECMWFNIL_prec_cthk_090.txt.gz
RH
37 38 41 42 44 48 50 50 52 53 52 50 48 47 45 43 40 38 38 39 42 45 46 44 44 45 43 39 37 34 32 31 31 31 31 33 36 36 37 38 40 41
34 35 38 42 44 46 47 46 48 52 50 49 51 50 48 47 45 39 37 39 43 46 45 43 45 46 45 44 40 35 33 32 30 30 31 30 32 34 35 37 39 42
30 31 33 40 43 44 46 46 46 48 48 47 48 49 49 51 49 42 38 37 38 41 42 40 43 45 44 44 41 38 35 35 32 30 30 29 29 31 34 36 38 40
28 28 29 34 40 40 42 45 45 45 46 45 45 47 47 49 49 44 39 34 32 35 36 37 39 41 42 40 38 38 37 37 37 33 31 31 29 30 33 35 37 37
27 28 27 30 35 37 39 42 43 43 44 43 44 45 45 44 43 40 37 33 30 30 31 33 35 36 39 39 37 39 39 38 39 36 32 32 30 30 33 34 36 35
29 28 27 28 31 35 36 38 40 42 42 42 42 44 43 41 39 37 35 32 30 29 28 31 34 33 38 41 39 40 41 39 39 37 33 31 30 31 33 35 36 36
30 30 29 28 29 31 34 36 38 40 41 41 41 43 44 42 40 37 33 31 30 28 27 28 32 33 36 40 40 40 41 40 38 36 34 33 31 31 34 37 39 38
29 30 30 30 29 29 31 34 36 39 41 41 40 41 44 44 43 39 35 32 29 28 28 27 28 30 33 35 36 37 39 41 39 35 34 34 33 32 34 37 39 38
30 29 29 31 31 29 29 31 34 38 42 43 41 40 43 45 44 40 37 35 31 28 28 28 27 28 30 31 32 32 34 37 39 36 35 34 33 33 33 35 37 37
34 32 31 30 30 29 29 29 32 36 41 45 45 43 43 45 45 42 38 36 33 30 28 28 27 27 28 28 29 29 29 30 32 34 34 34 34 33 33 34 35 35
42 35 34 34 32 31 30 30 32 37 41 44 47 46 45 45 45 42 39 35 33 31 29 28 28 27 26 26 26 27 27 27 27 28 30 32 33 33 32 33 34 34
51 38 34 37 37 35 33 33 35 36 39 42 44 46 46 45 45 42 39 35 31 30 29 28 28 27 26 26 26 26 26 26 26 26 27 28 30 31 30 31 32 33
62 54 48 46 44 41 37 37 39 37 36 39 41 43 43 43 43 42 40 38 34 30 29 27 27 28 27 26 26 25 25 25 25 25 26 27 28 29 29 29 30 31
72 68 67 63 57 51 43 38 39 38 35 35 37 39 41 40 39 39 39 38 37 34 31 29 28 28 28 28 28 27 25 24 24 23 24 25 26 27 27 27 27 28
78 75 73 70 67 63 54 44 41 39 36 34 34 35 37 38 37 36 35 35 35 34 33 31 29 29 28 29 29 29 27 26 24 23 23 23 24 26 27 27 26 26
79 78 75 72 70 69 66 58 53 49 42 37 35 33 33 35 36 36 35 34 34 34 33 32 31 30 29 28 28 28 27 26 24 23 23 23 23 24 26 27 28 27
79 79 77 75 73 72 72 67 63 60 55 48 43 38 35 34 34 35 35 35 34 35 34 34 33 32 31 29 28 28 27 26 25 24 22 23 23 23 23 25 27 28
81 79 77 77 77 76 75 72 69 66 63 59 53 47 43 40 37 37 37 35 34 34 34 34 34 34 33 32 31 29 29 28 27 26 25 23 23 22 22 22 23 25
85 82 80 80 80 80 78 76 73 70 68 67 63 57 51 47 43 42 43 42 39 37 36 34 34 34 34 34 33 32 31 30 29 28 28 27 25 24 23 22 22 22
88 86 85 84 84 83 80 78 76 73 71 70 69 65 59 53 48 46 47 48 47 46 45 42 39 37 35 35 36 36 36 34 33 32 30 29 29 27 26 25 24 24
88 87 88 89 87 86 83 80 79 78 75 73 73 71 67 63 59 53 50 49 49 49 49 48 46 43 42 41 41 42 42 41 40 39 37 35 33 32 30 29 28 26
85 87 87 88 89 88 87 85 84 83 81 79 77 75 73 73 73 68 60 53 49 49 50 49 49 48 48 49 49 48 48 46 45 44 43 42 40 38 36 34 32 31
80 83 85 85 86 87 87 87 87 87 86 84 81 78 77 77 79 78 74 66 59 56 54 52 51 52 53 53 54 53 52 52 51 50 48 45 43 41 39 36 35 33
73 78 82 82 82 82 84 85 86 85 85 84 83 81 80 80 80 81 79 76 72 70 68 63 60 60 59 57 56 56 55 54 55 55 53 49 44 41 39 37 36 35
65 71 76 76 74 74 76 80 82 81 81 82 84 84 82 81 81 81 81 81 79 78 78 75 70 70 69 65 59 56 55 53 53 52 51 50 47 45 43 39 38 39
53 58 63 64 64 65 66 70 73 73 74 78 83 86 86 86 85 83 84 85 84 81 80 78 75 76 76 72 65 61 60 60 59 56 54 53 51 51 51 48 45 44

ECMWFNIL_prec_cthk_093.txt.gz
RH
44 45 45 45 47 50 56 60 59 58 56 52 51 52 49 44 42 41 40 40 39 41 44 46 44 39 38 39 39 40 41 38 35 35 37 38 39 40 42 43 44 43
41 43 44 44 45 48 52 56 56 56 56 52 50 50 48 45 43 42 41 40 41 42 44 46 44 41 40 40 39 39 38 36 35 33 34 37 39 40 41 42 43 43
38 40 43 44 45 46 49 52 53 54 55 55 53 52 50 48 46 44 42 42 42 45 47 46 45 44 44 43 40 38 36 36 35 33 32 34 37 39 39 39 42 43
35 37 39 42 44 46 48 50 51 51 52 53 55 55 53 51 49 46 43 41 40 42 45 45 44 45 46 46 43 40 37 36 36 35 33 32 33 35 36 36 39 41
33 34 36 38 42 45 47 48 49 49 50 50 52 55 54 53 52 49 44 39 36 36 38 39 40 42 44 44 41 39 37 36 36 35 33 32 31 32 33 34 36 39
32 32 33 33 36 42 45 46 46 47 48 48 48 49 51 52 52 49 45 39 35 33 32 32 35 37 40 41 39 36 36 35 36 36 33 31 31 31 32 34 35 37
32 31 31 31 32 36 41 44 44 45 46 48 47 46 47 50 49 46 42 39 35 33 30 29 32 34 35 38 38 36 38 37 36 37 33 29 31 32 33 35 36 37
30 30 31 30 29 32 37 41 42 43 45 48 47 46 47 48 48 46 43 38 35 34 31 29 30 32 33 37 38 37 39 38 36 35 33 31 30 32 33 35 36 37
28 30 31 31 30 29 32 37 40 41 44 47 47 46 47 48 48 48 45 40 35 34 33 31 30 29 30 34 36 36 37 38 36 34 33 31 31 31 32 35 37 37
27 29 30 31 31 29 29 32 36 38 41 44 46 46 48 49 50 49 46 42 38 36 35 33 31 29 29 30 32 33 34 36 37 36 34 33 32 32 33 34 35 36
28 27 27 28 29 30 28 29 31 34 37 40 44 46 46 47 49 49 47 43 41 39 37 35 32 30 29 28 29 30 30 31 32 33 34 34 34 34 34 34 35 35
32 27 26 26 27 29 29 29 29 30 32 36 41 44 46 45 45 46 46 43 41 39 38 36 35 33 31 30 29 29 29 29 29 29 30 32 32 33 33 34 34 34
44 35 30 27 27 28 29 28 27 27 29 32 37 41 44 45 44 43 44 41 39 37 36 34 33 33 33 32 30 29 29 29 29 29 30 30 30 31 32 32 33 33
60 53 44 35 30 29 29 29 27 26 26 28 32 37 40 42 43 43 42 40 37 35 34 33 32 31 31 31 30 30 29 29 28 28 28 29 29 29 30 30 31 31
71 68 63 52 40 32 31 31 30 28 27 27 29 33 37 40 41 42 43 42 39 36 33 32 32 31 30 29 29 29 28 28 27 26 26 25 26 26 26 27 28 28
79 75 73 67 55 44 40 38 35 31 29 28 29 32 36 40 41 42 42 42 41 39 36 34 32 32 31 31 30 30 29 28 28 27 26 25 24 23 23 23 25 26
86 81 78 74 68 60 57 54 47 41 35 31 30 31 33 36 39 40 41 41 41 40 38 36 33 32 32 32 31 31 30 30 29 29 29 28 27 26 25 23 23 23
89 87 83 80 77 73 71 67 61 54 48 41 36 32 32 33 34 36 37 39 39 40 39 38 36 33 33 33 33 32 32 32 31 30 30 29 29 29 28 27 25 23
89 88 86 84 82 80 77 73 68 64 60 55 49 44 40 37 36 34 33 34 36 38 39 39 38 37 36 35 35 35 34 34 32 32 31 30 30 29 29 29 28 27
90 90 89 87 85 83 80 77 74 70 67 64 62 57 52 48 45 41 38 37 36 37 38 38 39 39 39 39 39 38 37 36 35 35 34 33 32 31 31 30 30 30
89 89 90 88 86 84 83 81 78 76 73 71 69 65 60 57 54 50 46 44 42 41 40 40 40 40 39 39 40 41 40 38 37 36 36 36 35 33 33 32 32 31
88 88 89 89 87 86 86 84 82 80 78 76 74 71 68 65 62 58 54 50 48 47 47 48 49 49 48 46 44 45 45 44 42 40 41 41 40 39 38 38 37 35
87 86 87 89 88 87 86 85 84 82 80 79 79 77 76 73 71 69 66 63 58 55 53 54 54 54 53 54 54 54 54 53 51 49 48 47 47 46 45 44 44 42
81 80 83 86 87 86 85 85 85 84 83 82 83 82 81 80 78 77 75 73 72 67 61 57 55 53 52 53 55 56 57 56 55 54 53 52 51 51 50 49 48 48
74 74 76 79 82 84 84 85 86 87 87 87 86 86 85 83 83 82 80 79 78 75 71 68 66 63 61 59 58 58 59 59 58 56 54 53 53 53 53 52 51 50
64 65 65 68 72 75 77 78 78 79 82 86 87 87 86 84 84 85 85 83 81 79 79 79 78 76 73 70 69 68 67 66 64 62 59 56 54 52 52 52 53 53

ECMWFNIL_prec_cthk_096.txt.gz
RH
39 42 46 50 53 55 58 62 63 61 59 57 54 53 51 50 47 44 43 43 44 45 46 46 45 44 41 39 38 38 39 41 42 41 40 40 40 40 42 44 44 44
39 40 43 46 50 52 54 59 64 63 59 57 55 53 52 49 46 43 41 41 41 42 45 47 47 45 42 39 39 39 39 40 40 38 36 36 38 39 41 42 43 43
39 40 42 43 45 49 51 55 61 62 59 56 54 53 51 49 46 44 41 42 41 42 44 46 47 46 43 41 40 39 39 39 38 36 34 34 36 38 40 41 42 43
38 40 41 42 42 45 49 52 56 58 57 56 54 53 52 50 48 46 43 42 42 43 45 47 47 46 46 46 43 40 39 39 37 36 35 34 35 36 38 39 40 42
36 37 38 40 40 41 44 48 52 53 53 55 55 54 53 52 50 48 45 44 42 43 45 48 48 46 47 48 47 44 42 39 38 38 36 35 34 34 36 37 37 39
33 34 34 36 38 39 40 43 48 50 50 52 55 55 55 54 52 50 49 46 42 40 41 43 45 45 46 48 48 46 43 40 39 38 37 36 34 34 33 34 34 36
31 32 32 34 36 38 38 40 44 48 48 50 52 54 54 54 53 50 50 48 43 39 37 37 38 41 42 45 46 44 41 40 39 38 38 36 33 33 32 32 33 35
30 31 32 32 33 35 37 38 41 44 46 47 49 51 51 50 50 50 49 47 43 39 37 35 34 35 38 41 44 42 40 41 41 39 39 36 32 32 33 33 35 37
30 30 31 32 32 32 34 35 37 41 45 45 45 48 49 47 47 49 48 46 42 39 37 36 34 34 36 38 41 41 40 42 44 42 40 37 34 33 33 34 36 38
32 31 31 32 32 31 31 32 34 38 42 44 43 45 48 47 46 46 47 46 43 40 38 37 35 34 35 36 38 40 39 40 43 42 40 38 35 33 33 34 36 37
34 34 32 31 32 32 31 31 32 35 39 42 43 43 46 48 47 46 48 47 44 41 38 37 37 36 35 35 36 37 37 38 40 41 39 38 36 34 33 34 35 36
36 35 34 32 31 32 32 32 32 32 36 40 41 42 44 46 48 48 50 49 44 41 38 37 37 36 35 36 36 35 35 35 36 36 35 35 35 35 35 34 34 34
45 39 38 35 32 31 32 33 33 32 33 36 39 41 42 44 47 48 50 50 46 42 39 37 36 35 34 35 35 35 34 33 33 33 32 33 33 34 34 34 34 33
60 50 45 41 38 36 34 33 34 33 32 33 36 39 41 43 46 48 49 50 48 45 40 37 35 33 32 32 33 33 33 32 32 32 32 32 32 33 33 33 33 32
72 63 56 49 44 42 40 37 35 35 34 33 34 36 39 43 45 48 49 49 48 46 44 40 36 33 32 32 32 32 32 32 32 32 32 32 31 31 31 30 30 29
79 74 68 60 52 47 46 44 40 39 38 38 35 34 36 41 45 48 50 50 48 48 46 44 40 36 33 33 33 33 33 32 32 32 31 31 30 30 29 28 28 28
86 84 78 71 65 58 53 50 46 43 43 42 40 38 37 39 43 46 49 50 50 49 48 46 44 41 37 34 33 33 33 32 32 31 31 30 30 30 29 29 29 29
88 88 85 81 78 73 67 62 54 47 46 47 47 44 41 42 44 45 48 49 50 49 48 47 45 43 41 38 35 33 32 32 31 31 30 30 30 29 29 30 30 30
86 87 87 88 87 83 79 78 70 58 52 52 51 48 45 43 43 45 46 47 49 49 48 46 45 43 42 40 38 36 33 32 31 30 30 29 29 30 29 30 30 31
90 90 90 91 90 87 85 84 81 74 67 61 57 56 54 47 41 41 43 45 47 48 47 46 45 43 41 40 39 38 36 34 32 30 30 29 29 30 30 30 31 31
91 92 92 91 91 90 88 85 83 82 81 75 69 68 68 59 46 40 40 41 42 42 43 43 43 42 41 40 39 39 38 37 35 33 31 31 30 30 31 31 32 32
89 90 90 91 91 90 90 88 86 86 86 84 79 76 75 71 62 52 47 44 43 42 41 41 40 40 40 40 39 39 39 38 37 36 34 33 33 33 33 33 34 34
86 87 89 91 92 91 91 90 89 88 87 86 86 83 80 78 75 71 65 57 52 50 48 45 43 42 42 42 42 42 41 41 40 39 38 37 38 38 38 39 40 41
83 84 86 89 90 90 91 90 89 88 88 87 87 87 86 83 81 80 77 69 61 57 55 53 51 50 48 48 47 47 48 50 51 50 48 48 48 49 49 49 50 50
80 81 83 85 85 86 87 89 90 90 89 89 88 88 88 87 85 85 84 80 73 65 61 61 61 61 60 61 61 59 56 56 58 58 58 57 57 57 58 57 56 55
70 71 74 77 79 80 81 83 85 87 88 88 88 88 88 88 88 88 87 86 82 76 72 71 72 71 72 72 72 69 63 59 58 56 56 56 56 57 58 58 58 58

ECMWFNIL_prec_cthk_099.txt.gz
RH
41 44 49 53 57 61 63 64 63 60 57 57 56 54 52 50 48 45 45 45 45 43 43 43 42 41 40 38 36 34 35 37 39 41 43 43 42 42 42 42 41 41
40 41 45 49 52 56 60 63 64 62 58 56 56 56 53 52 50 46 44 44 44 43 43 45 45 44 43 39 38 36 36 39 41 42 41 41 41 40 40 41 40 40
40 40 41 44 47 50 55 59 62 63 62 57 55 56 55 52 50 46 42 42 42 42 42 44 46 46 45 40 38 38 38 39 42 42 40 39 38 39 39 41 41 40
39 40 41 42 43 45 49 54 58 61 63 60 55 54 54 52 49 46 43 42 41 41 41 43 46 47 46 42 39 39 39 39 40 40 38 36 36 36 38 40 41 41
38 40 41 42 42 42 44 49 54 57 61 61 56 54 54 52 50 47 45 43 43 42 42 43 45 47 46 44 42 40 39 38 38 37 36 35 35 35 36 37 39 40
36 38 40 41 42 42 42 44 48 53 57 58 56 55 55 53 51 49 47 45 44 43 44 44 46 47 46 45 45 44 42 40 39 38 36 36 36 35 34 35 36 38
35 36 38 39 40 42 42 41 43 48 53 55 55 55 56 55 54 52 49 48 46 44 43 44 45 46 46 46 45 46 45 42 40 38 37 37 37 35 34 33 34 35
36 35 36 37 38 39 41 41 40 42 47 52 52 53 55 56 56 55 52 50 48 45 41 40 40 41 44 44 44 45 44 42 40 38 37 37 37 34 33 33 33 33
36 36 36 36 36 37 39 40 40 40 42 47 50 51 53 55 55 55 54 53 52 47 41 39 37 36 38 39 40 41 41 40 39 38 38 38 37 34 33 34 34 34
35 35 36 36 36 36 36 38 39 39 39 43 47 49 51 53 54 53 53 52 53 50 44 40 37 35 34 35 37 39 39 39 40 39 39 40 38 36 35 34 34 35
36 35 35 35 36 35 35 36 37 37 37 39 43 46 48 51 53 53 51 50 51 50 47 42 39 36 35 34 36 38 39 39 40 40 41 41 39 37 37 35 35 36
37 36 35 35 36 36 36 35 36 36 35 36 39 43 46 48 51 53 52 50 50 50 48 45 41 38 36 36 37 38 38 38 38 39 41 41 39 37 36 35 35 36
43 39 37 36 36 37 36 35 35 35 34 34 36 41 45 46 48 51 52 51 51 51 50 47 43 39 38 38 39 39 40 39 37 36 38 38 37 36 36 35 35 35
55 47 43 39 36 37 37 36 35 35 35 34 34 37 42 45 47 48 50 51 52 53 52 49 44 40 38 37 38 38 39 39 37 36 36 35 34 34 34 34 34 34
68 59 54 50 44 40 39 37 36 36 35 34 33 34 37 42 45 46 48 49 51 53 53 52 47 42 38 36 36 37 37 37 37 36 35 34 33 33 32 32 32 33
80 71 64 61 56 50 44 40 37 36 36 34 33 32 33 36 39 43 45 48 50 52 53 53 50 46 42 38 37 36 37 37 37 36 35 34 33 33 32 31 31 31
86 80 73 71 69 63 56 48 41 37 35 33 32 31 31 32 33 36 41 45 49 52 53 52 51 49 46 42 39 37 37 37 36 36 35 34 34 33 32 32 31 31
89 85 82 82 80 75 70 63 53 45 39 34 32 33 33 33 32 33 36 42 47 51 52 52 51 50 49 46 42 39 37 36 35 35 35 34 34 33 33 32 32 32
91 89 86 86 85 82 79 74 68 62 54 44 37 35 36 36 36 34 34 38 44 48 51 52 52 51 50 48 46 43 40 38 36 35 34 34 33 33 33 32 32 31
91 90 89 89 87 86 85 82 77 73 69 62 52 44 40 39 40 39 36 37 40 44 48 51 52 52 50 49 48 46 43 41 39 37 36 34 33 33 32 31 31 31
91 91 91 91 89 88 91 90 85 80 77 73 68 60 51 44 43 45 44 41 41 43 46 48 50 51 51 50 48 47 45 43 41 40 38 36 34 33 32 31 31 31
91 92 91 89 88 89 91 92 91 89 85 81 76 72 65 55 50 51 50 46 43 43 45 46 47 48 50 49 49 47 46 44 42 40 39 38 36 35 33 33 32 32
89 91 91 90 90 90 91 93 94 95 92 88 84 80 76 69 63 59 55 51 49 47 46 45 45 46 46 47 48 48 46 44 43 42 41 40 39 38 37 36 35 34
88 89 91 93 93 93 94 95 95 95 94 91 89 87 84 80 76 70 65 63 63 62 57 53 51 49 45 44 45 47 48 47 46 45 44 43 42 42 41 40 40 40
85 86 88 90 92 94 96 95 93 93 93 92 91 90 90 87 84 81 79 76 76 76 73 67 62 58 54 51 50 49 50 51 51 50 48 47 47 47 46 46 46 46
76 78 82 84 84 86 90 92 92 91 91 92 91 90 90 89 87 86 86 86 85 85 84 80 75 71 67 66 63 58 54 54 56 56 55 54 54 54 54 56 57 56

ECMWFNIL_prec_cthk_102.txt.gz
RH
42 44 50 55 59 65 66 63 61 60 59 60 59 58 55 50 47 47 46 44 42 41 40 40 39 37 36 34 32 33 34 35 39 39 37 39 42 43 45 44 45 46
41 42 46 52 55 59 62 64 63 61 59 59 59 60 57 51 47 46 45 44 44 44 41 40 40 38 37 37 34 33 34 34 36 38 37 37 41 44 44 44 45 44
41 41 44 49 53 55 59 63 62 61 62 60 57 57 57 53 49 47 46 45 45 46 43 41 42 41 39 38 35 34 36 35 36 40 39 36 39 43 44 44 45 45
40 41 44 49 53 53 56 61 62 61 64 62 57 56 56 55 52 48 45 43 43 44 43 41 42 43 41 38 36 36 38 36 35 39 38 35 37 39 41 44 45 45
41 40 43 47 51 51 52 55 59 62 63 63 61 59 55 51 50 50 47 42 39 40 42 41 41 43 42 39 37 38 41 40 38 37 34 33 35 36 39 42 41 42
41 39 41 44 47 49 50 50 54 58 61 62 63 62 57 52 51 52 49 45 43 43 44 44 43 45 47 43 39 40 43 43 42 41 35 34 37 38 41 40 37 37
40 39 40 42 45 47 48 48 49 52 56 59 62 63 60 56 53 52 49 47 48 47 46 46 43 43 48 48 43 40 42 43 43 41 37 37 39 39 40 40 36 34
39 40 40 40 44 47 47 48 48 48 51 55 59 60 60 58 57 55 51 48 50 50 47 45 42 41 46 50 48 44 43 45 47 44 39 39 39 38 37 37 35 33
38 40 40 39 41 44 46 47 47 48 48 51 54 56 58 59 59 58 55 50 49 49 44 43 41 40 44 47 47 45 44 45 49 48 44 41 41 40 38 36 36 34
40 40 41 41 41 42 43 44 45 47 47 47 48 51 55 57 58 60 58 51 49 48 44 42 40 37 39 41 41 41 41 42 43 43 42 41 43 44 41 39 38 37
43 41 40 41 41 41 42 42 43 45 46 46 45 46 50 54 56 58 57 52 51 52 49 44 40 36 35 37 39 39 39 41 42 40 39 40 42 42 39 38 38 38
41 42 40 41 41 40 41 43 43 43 44 46 46 46 48 50 53 56 57 53 51 53 53 49 43 39 35 34 37 39 39 42 44 42 41 40 41 41 39 37 37 37
43 41 40 41 41 40 40 42 44 45 45 46 46 46 47 48 50 53 55 55 52 52 53 51 46 42 37 32 33 38 40 42 44 44 43 42 43 44 42 40 39 39
57 51 45 41 40 40 40 40 42 44 45 45 44 44 45 46 48 52 54 54 54 54 53 51 47 44 40 33 31 35 39 41 43 43 43 42 43 44 43 42 41 41
69 65 57 49 43 39 38 38 40 42 43 44 43 42 42 44 46 50 53 53 55 56 55 53 51 48 45 40 36 35 38 40 41 41 41 42 42 42 41 40 39 39
74 72 69 63 54 47 42 39 39 39 39 41 41 41 41 42 42 45 49 52 53 55 56 55 53 52 50 44 39 37 39 40 41 41 40 40 40 40 39 38 37 36
81 79 78 77 71 63 55 49 46 44 40 37 37 38 39 39 39 40 44 48 51 52 54 54 55 55 53 47 42 39 38 39 41 41 39 38 39 39 38 38 37 36
86 84 84 85 83 77 69 62 57 55 51 43 37 35 37 37 37 37 38 42 47 50 50 52 54 55 55 51 46 42 39 38 40 41 41 40 39 40 39 38 38 38
88 88 87 88 88 85 80 73 67 65 64 58 49 41 38 37 37 38 37 38 43 47 48 50 53 54 55 54 50 47 44 40 39 40 42 41 40 41 41 39 38 39
89 91 90 90 90 88 86 83 79 76 73 70 65 57 50 44 41 41 41 39 39 42 45 47 49 50 52 53 52 50 48 44 42 41 41 42 41 41 41 40 39 37
89 91 92 92 92 92 90 87 84 83 82 79 75 71 66 61 56 52 48 43 40 40 42 44 44 47 50 51 51 51 50 48 46 44 43 43 44 41 39 38 37 35
87 89 91 93 95 96 95 91 87 88 88 85 82 79 75 72 70 66 59 52 48 46 45 42 39 41 45 47 48 49 50 50 49 47 46 46 46 44 39 37 36 34
86 87 89 92 94 96 97 94 92 91 90 89 86 84 81 78 76 76 72 65 58 54 49 43 38 37 39 40 44 46 48 49 49 49 48 48 48 45 41 39 37 36
85 86 88 89 90 92 93 94 92 91 91 90 87 86 86 84 82 81 79 75 71 66 59 50 43 42 41 40 41 44 45 46 47 47 47 48 49 47 44 43 41 38
79 82 86 88 89 89 89 90 91 90 91 93 90 89 91 91 87 83 82 83 83 81 74 65 57 51 47 44 43 43 44 46 47 47 49 50 51 50 49 49 47 45
73 77 81 83 86 88 88 90 91 90 90 92 92 92 93 93 90 87 86 88 90 88 83 78 73 65 58 53 49 47 48 49 49 50 51 53 54 52 52 53 53 51

ECMWFNIL_prec_cthk_105.txt.gz
RH
50 56 57 59 60 60 60 60 60 58 56 56 57 56 55 54 53 51 51 46 40 40 41 40 39 38 37 36 33 35 39 41 43 44 42 42 43 45 46 44 44 44
44 49 52 55 58 60 60 60 60 57 56 56 56 57 57 55 53 51 51 49 44 42 41 39 40 38 38 40 36 32 34 36 40 45 42 39 42 45 44 43 43 42
43 46 48 51 55 59 61 61 60 58 58 57 56 58 58 56 54 51 49 49 47 47 44 40 40 39 39 41 38 34 37 35 37 44 43 38 40 44 44 42 44 44
44 45 46 47 52 57 58 61 62 60 58 57 56 56 56 56 56 54 48 46 47 50 48 44 43 42 41 41 37 36 40 38 35 40 41 37 36 40 43 43 45 47
44 44 45 46 49 52 54 56 60 61 60 58 56 55 55 56 57 56 52 47 45 47 47 44 43 44 44 42 37 37 43 43 39 37 36 36 37 39 41 42 44 46
46 44 44 46 47 48 51 52 53 58 60 59 57 56 56 55 55 55 54 51 47 46 46 45 45 45 46 44 39 39 44 44 44 44 38 35 39 41 41 42 43 43
47 46 44 45 45 46 49 50 50 50 53 57 60 58 57 57 55 54 54 53 50 47 46 47 47 46 48 50 44 39 39 40 44 49 45 38 38 40 41 44 44 39
46 46 44 43 44 45 47 49 48 48 48 52 57 57 57 58 57 56 55 53 51 49 48 48 47 45 49 55 51 42 40 41 43 46 45 41 38 36 37 41 41 36
45 44 44 44 43 44 46 46 47 48 48 49 51 54 56 58 58 57 57 55 53 52 51 51 49 44 45 51 51 46 44 45 46 48 47 44 41 38 37 39 38 35
43 43 44 44 43 42 43 43 43 46 49 49 49 51 54 55 55 57 58 56 54 54 52 50 49 46 44 46 47 46 45 44 46 49 48 47 45 42 42 42 40 38
43 42 42 42 42 42 41 41 41 44 47 49 49 50 52 53 53 55 57 56 53 54 54 50 48 46 44 43 44 44 44 45 46 46 45 45 44 42 42 42 40 39
45 45 43 42 41 41 41 41 41 41 43 46 49 49 49 51 52 52 55 54 53 54 56 52 49 48 45 41 41 42 43 44 44 44 44 43 42 43 43 42 40 39
44 46 46 44 41 40 41 41 40 40 41 43 46 47 47 49 51 52 53 54 53 54 56 54 52 51 50 44 41 41 40 41 41 41 43 44 43 43 43 43 42 39
48 46 46 47 45 42 41 40 40 41 41 41 42 44 45 45 48 51 52 53 53 53 55 55 53 52 54 51 45 41 39 39 41 41 42 45 46 43 42 44 44 42
58 54 51 50 49 48 45 42 41 42 42 42 42 43 45 45 45 47 50 51 53 52 52 54 54 55 60 57 49 48 47 41 39 40 41 44 46 44 42 43 42 43
66 62 58 56 55 55 54 50 46 43 42 43 43 44 45 45 44 44 46 49 51 52 51 52 53 55 60 60 53 54 55 45 38 41 42 43 45 44 43 43 42 42
74 69 64 63 62 62 61 59 56 52 47 44 44 44 44 45 45 44 44 45 47 50 51 52 53 51 56 60 54 50 50 45 41 42 42 43 44 42 40 40 40 40
84 80 76 72 71 70 69 67 64 61 58 54 51 47 45 44 44 43 42 43 45 46 48 53 55 53 52 56 53 49 47 45 43 43 43 44 43 40 38 39 40 40
84 85 85 82 81 81 80 77 74 71 69 67 64 60 57 53 49 46 43 43 42 42 46 50 54 54 53 53 53 52 49 47 45 44 44 45 45 44 43 42 43 42
83 86 89 87 87 88 87 87 85 81 78 75 72 70 69 66 62 57 54 51 44 41 45 48 49 52 56 55 54 54 53 51 49 48 47 46 45 45 45 45 47 47
85 87 87 86 88 90 90 89 89 88 85 81 77 76 76 73 69 65 64 63 56 51 53 53 49 49 53 54 54 55 55 54 52 51 51 50 46 44 44 46 50 51
82 83 83 84 87 90 91 90 89 89 89 87 82 79 80 79 76 74 72 70 66 65 66 65 62 57 52 50 52 53 52 53 52 51 52 53 51 48 47 47 49 47
76 76 77 80 85 88 90 91 91 92 93 92 88 84 83 84 83 82 81 75 71 71 68 66 69 67 57 50 50 49 47 48 50 50 53 55 53 51 49 51 56 57
74 74 74 77 82 86 88 90 91 93 94 93 91 89 89 90 88 85 84 81 80 79 72 66 70 74 68 58 52 49 45 44 46 48 52 56 56 57 57 57 61 65
72 73 74 75 79 83 85 87 89 91 93 94 94 93 93 94 93 90 88 88 88 86 80 72 72 77 76 68 60 55 47 41 43 45 47 54 62 67 66 62 64 69
69 70 72 73 75 77 79 81 83 86 89 91 91 91 91 92 93 93 92 92 92 91 86 79 76 77 78 74 71 68 58 47 45 44 43 48 56 64 67 64 66 72

ECMWFNIL_prec_cthk_108.txt.gz
RH
55 57 58 58 58 61 62 61 59 57 59 56 51 52 51 50 50 48 46 42 38 37 38 38 36 34 35 35 34 38 40 41 46 47 41 38 39 44 48 46 43 43
53 55 58 61 63 64 65 63 61 59 62 60 57 58 56 52 51 50 49 46 40 37 37 37 37 34 34 34 32 32 34 35 40 45 42 38 38 41 46 48 47 44
50 52 56 61 61 59 58 59 61 62 64 61 58 59 58 55 54 50 48 47 43 40 39 38 37 35 33 35 35 33 32 31 35 41 45 42 37 39 44 47 47 46
44 48 54 59 58 56 58 61 63 61 61 61 60 60 57 56 58 54 47 45 43 44 44 40 38 37 35 35 38 36 32 33 35 37 41 41 37 36 42 47 48 48
39 43 50 54 56 56 59 64 66 61 58 60 61 60 57 56 58 57 51 46 43 43 46 45 40 39 38 37 39 37 33 34 36 34 36 38 36 34 37 42 44 45
38 41 43 46 52 53 55 61 63 61 60 61 62 61 59 57 56 57 55 51 45 43 47 50 45 42 42 40 40 38 34 36 38 36 36 36 35 35 38 43 44 41
40 41 40 42 46 49 53 57 59 59 59 60 63 62 59 57 56 55 55 54 52 49 49 50 47 45 45 45 43 41 38 37 38 39 41 40 37 35 37 43 46 42
46 45 43 43 43 45 50 53 54 56 56 56 61 61 57 59 60 58 56 56 56 55 51 51 50 48 46 45 46 46 42 40 39 39 42 43 39 35 35 38 41 39
48 47 46 45 43 44 46 46 48 51 52 53 55 55 57 62 64 61 60 59 57 55 53 52 54 52 46 42 45 49 47 44 45 43 43 43 39 36 35 34 35 34
46 45 46 45 46 47 44 43 45 47 49 50 50 50 55 62 64 62 63 62 58 57 56 53 53 53 48 43 44 47 47 46 46 46 46 44 42 41 39 38 37 36
44 44 43 43 45 47 45 42 42 44 47 49 49 49 52 55 57 59 64 62 56 57 57 53 52 51 48 46 46 46 47 45 45 45 46 45 44 44 44 44 42 41
46 45 43 41 41 42 43 43 42 43 43 45 48 50 51 52 51 55 62 60 54 55 56 54 54 52 49 46 46 47 48 46 45 44 44 44 43 42 43 42 41 39
47 46 43 43 42 42 42 42 42 43 43 44 46 48 50 51 50 53 58 58 54 53 53 53 54 54 51 49 47 48 49 48 46 43 43 42 41 42 44 43 42 41
51 49 48 47 45 45 44 43 42 44 46 47 47 48 49 49 50 52 54 57 57 53 52 54 55 55 53 51 49 47 49 52 48 44 43 42 42 44 44 44 46 46
57 59 61 56 47 43 44 45 43 43 47 49 49 49 48 46 47 48 52 56 58 56 55 56 59 60 57 52 50 49 52 56 53 48 47 43 42 43 44 48 51 49
60 63 65 60 53 47 45 47 48 47 47 47 46 48 49 49 48 48 48 51 54 59 61 60 60 63 62 56 53 52 55 59 57 55 54 47 42 42 43 48 52 48
64 64 63 60 57 54 51 52 54 56 56 54 52 50 49 48 48 48 47 46 48 55 60 60 61 63 64 62 58 56 58 59 55 55 57 52 45 43 43 45 47 47
72 70 69 67 65 62 60 58 57 58 62 65 66 63 59 54 48 45 46 45 45 48 52 57 62 65 65 64 63 60 58 57 53 53 56 56 54 52 46 42 45 46
77 74 74 75 75 72 69 68 65 61 61 62 63 67 72 70 60 53 54 53 49 47 47 49 54 60 62 63 63 62 59 57 55 53 55 57 61 60 50 46 49 47
78 76 75 77 79 78 76 76 76 73 69 64 62 65 74 78 73 68 68 68 64 61 58 52 49 52 56 58 60 61 61 59 56 55 54 53 55 56 53 54 58 55
80 78 78 78 79 80 79 79 80 79 78 76 74 74 77 79 80 77 73 72 73 73 73 67 60 60 60 55 54 56 58 58 56 54 54 53 53 52 50 52 54 56
78 79 79 78 77 77 78 80 82 84 86 86 85 86 86 85 84 82 79 76 75 76 79 76 70 71 71 66 61 57 55 56 56 55 55 55 54 53 52 53 54 58
71 74 75 75 75 75 76 79 83 86 89 90 89 90 91 90 90 87 85 82 80 81 85 83 76 71 70 71 72 67 62 59 57 56 56 54 53 53 56 56 55 58
67 68 69 71 73 74 75 78 81 83 86 88 89 89 90 91 91 90 88 86 84 84 84 83 80 75 71 70 73 74 73 70 66 61 59 55 52 52 55 55 53 56
70 69 68 68 70 73 75 78 78 79 81 85 86 88 89 90 91 93 92 89 86 84 82 80 79 79 77 73 72 73 76 77 74 69 63 57 53 51 53 54 54 56
73 73 72 70 69 70 72 74 74 75 77 81 83 86 88 90 91 93 94 94 90 87 86 85 83 82 80 78 75 75 76 77 76 73 68 61 57 55 55 54 54 54

ECMWFNIL_prec_cthk_111.txt.gz
RH
52 54 58 58 56 56 57 55 54 53 52 51 48 45 45 44 44 42 38 35 36 36 36 36 36 35 35 37 38 41 46 44 41 43 44 39 39 42 43 43 43 42
53 54 58 59 57 57 58 58 58 56 55 55 53 51 49 48 48 48 46 43 40 38 38 38 38 36 36 36 36 36 40 41 41 46 46 40 39 42 45 47 47 44
52 54 56 58 58 60 62 62 61 59 58 58 56 54 53 52 52 51 50 49 45 41 39 39 39 38 36 36 36 36 34 35 38 42 45 43 41 41 43 47 48 47
46 49 53 56 58 60 62 61 60 59 60 61 58 57 56 56 56 54 52 50 47 44 41 39 40 39 37 37 38 39 35 34 36 38 43 46 44 41 41 44 48 50
39 42 47 51 55 58 58 57 59 59 59 58 58 60 60 56 57 59 57 52 48 45 43 42 41 40 38 37 39 40 38 35 36 37 38 42 43 41 40 42 46 48
36 38 40 44 49 53 54 55 58 59 58 57 57 60 60 57 57 59 59 55 51 47 45 45 45 43 41 40 40 41 39 36 37 38 38 38 39 39 39 41 45 46
35 36 36 39 43 48 51 51 53 56 58 59 59 60 61 59 57 56 56 56 55 51 46 46 49 48 45 44 43 44 43 40 39 40 41 41 40 39 38 40 46 47
37 36 36 38 40 43 46 47 49 53 56 58 59 61 63 61 58 57 57 56 56 55 52 50 51 51 50 47 46 47 47 45 42 40 42 43 44 42 39 38 42 45
46 43 41 40 41 41 43 45 46 49 53 55 55 56 60 60 59 61 61 59 58 59 58 55 53 54 56 52 47 47 51 50 46 43 43 45 45 44 40 37 38 38
50 50 48 46 45 43 42 43 44 45 47 50 51 52 55 56 59 64 65 64 64 62 60 58 55 55 59 57 49 47 50 53 51 49 47 48 48 46 43 40 40 39
51 50 50 50 49 45 43 45 46 45 46 48 50 51 51 50 54 60 64 65 66 64 62 59 57 56 57 56 52 48 49 50 51 50 49 50 51 50 47 46 46 45
52 50 49 48 48 45 44 46 47 47 48 47 47 49 50 50 51 53 57 61 64 64 62 59 57 56 55 54 52 50 50 50 50 50 48 49 50 49 49 48 47 46
53 53 53 49 47 46 45 45 46 47 48 46 45 47 47 49 52 53 53 55 58 62 61 58 56 56 56 55 53 51 52 52 52 51 49 47 48 47 47 47 47 46
60 56 55 52 49 48 48 46 45 46 47 47 48 49 49 48 51 53 53 52 55 59 60 57 55 54 55 57 57 55 55 55 54 53 51 48 46 46 46 47 48 48
69 59 54 52 48 47 47 47 46 46 45 46 49 53 56 54 54 55 54 52 53 57 60 59 56 54 54 56 58 57 56 56 55 55 55 53 50 47 46 49 51 52
70 59 53 53 51 49 49 49 47 44 44 45 46 48 52 55 58 60 59 58 57 56 58 59 59 59 58 59 59 58 57 55 54 56 59 60 57 50 48 55 60 61
70 63 59 57 55 57 60 59 53 46 42 43 44 44 48 53 56 58 60 64 62 56 53 56 60 60 61 62 60 60 60 57 56 58 60 62 63 57 53 55 60 62
76 73 69 65 62 62 65 65 61 55 50 47 46 47 49 50 51 52 55 59 62 61 56 57 61 61 60 62 63 63 64 62 59 59 59 59 60 60 58 54 54 60
80 80 78 75 71 68 67 66 66 65 62 59 58 58 58 55 53 54 56 58 64 69 63 55 58 62 62 61 63 65 66 66 65 63 63 65 60 56 58 56 56 62
81 83 83 81 76 72 70 70 70 70 69 69 69 68 67 66 63 63 63 64 68 72 65 53 50 55 58 57 57 60 63 66 66 66 70 75 70 60 57 58 60 64
77 79 82 83 81 77 75 74 74 73 73 75 76 75 74 74 71 69 69 70 70 70 67 61 59 60 60 57 53 54 58 62 64 65 68 72 74 67 58 57 60 62
77 79 82 84 85 84 81 78 76 75 75 76 77 79 80 79 78 75 72 72 73 72 70 70 70 69 68 65 61 60 64 66 66 68 70 69 73 75 66 59 58 58
77 79 82 84 85 85 82 78 76 76 77 78 79 81 83 84 84 83 79 77 76 76 74 73 72 70 70 71 72 70 71 70 68 70 72 71 76 81 75 65 60 56
71 71 73 76 78 79 79 79 79 78 78 79 81 84 86 87 88 89 88 86 84 82 80 79 77 75 73 75 78 76 74 73 71 71 72 73 75 77 75 69 63 57
66 66 67 68 69 70 72 75 77 77 78 80 82 83 84 86 89 91 91 91 90 87 86 86 86 84 81 80 81 81 79 77 78 77 75 75 75 75 72 69 63 58
66 65 66 67 69 70 70 70 71 73 76 79 81 82 82 82 84 87 88 89 90 89 88 89 90 90 87 83 81 82 82 80 81 82 80 77 77 77 74 71 64 60

ECMWFNIL_prec_cthk_114.txt.gz
RH
52 54 56 58 57 56 58 57 54 50 50 49 44 41 40 38 36 33 32 33 33 33 34 34 34 37 39 40 43 43 43 41 37 38 37 35 36 38 39 40 41 44
52 54 56 59 58 57 59 58 56 52 51 50 47 44 43 41 40 38 35 34 33 33 33 33 34 34 33 35 38 40 43 42 38 39 40 37 36 37 38 40 41 43
52 54 57 60 59 58 59 58 57 55 54 52 51 50 47 45 44 43 41 39 38 36 35 34 34 34 33 33 33 32 35 38 37 38 41 40 37 36 39 42 44 45
51 54 56 58 59 60 61 60 59 59 57 55 54 53 50 49 49 48 47 45 43 41 38 36 36 35 34 33 33 32 32 33 33 34 38 41 39 37 37 40 45 47
47 52 53 56 59 60 61 61 61 60 58 57 56 55 52 53 53 53 53 49 46 44 41 39 37 36 36 34 34 35 34 32 32 31 33 38 40 39 38 38 43 46
40 46 49 52 56 57 58 60 60 59 58 58 58 57 56 56 56 56 58 55 49 45 42 41 39 37 37 36 35 36 37 34 34 33 33 35 37 39 39 39 40 43
35 39 42 45 50 52 54 57 58 57 57 59 59 58 58 59 57 56 58 58 54 50 45 42 42 42 41 39 38 39 39 37 36 36 36 36 36 37 38 38 39 41
33 34 36 40 44 47 48 51 54 55 56 59 59 59 59 60 59 57 56 56 55 54 50 45 43 46 46 44 42 42 42 41 39 37 37 38 39 39 38 37 38 40
34 34 35 37 39 41 44 46 49 52 54 55 57 60 61 62 62 60 57 55 55 55 53 49 46 47 49 48 46 46 45 46 44 40 39 39 40 42 42 40 38 39
37 36 36 37 38 40 41 44 45 47 49 51 53 57 59 60 61 61 59 58 57 56 55 54 52 51 52 53 52 49 46 48 50 48 44 42 41 42 43 41 39 38
41 43 42 39 39 40 41 43 44 44 47 48 50 53 55 55 57 59 60 61 61 60 59 58 56 53 53 55 56 52 47 47 51 51 48 45 45 46 46 44 41 40
46 51 54 50 46 44 44 44 44 44 46 46 47 49 50 51 51 54 57 60 62 63 63 61 59 57 55 56 57 55 51 49 48 48 47 47 47 47 48 47 45 43
52 59 66 62 54 49 48 48 47 47 46 46 46 47 48 49 49 50 52 54 56 59 62 62 61 59 57 56 55 54 53 51 50 49 49 49 48 48 48 49 47 45
61 67 70 63 55 51 49 48 49 48 47 47 47 46 47 48 48 49 51 52 51 53 57 59 60 59 57 55 55 54 53 52 53 52 51 50 49 48 48 48 46 46
72 72 69 62 57 54 53 51 50 49 48 48 47 47 48 49 49 49 50 51 50 50 52 55 57 58 57 56 56 56 55 54 53 53 53 54 53 51 49 48 47 47
79 73 69 67 63 59 57 54 52 49 48 47 46 46 48 48 50 51 52 52 52 53 53 53 54 56 58 57 57 55 55 55 55 56 58 61 62 60 55 54 55 54
79 72 69 72 69 62 56 53 51 49 47 46 44 43 44 44 45 48 51 53 55 56 57 56 55 57 57 58 58 57 57 57 57 58 60 64 68 67 63 62 64 60
79 72 70 72 70 63 57 53 53 51 50 49 47 43 42 41 42 44 47 50 53 56 58 59 59 58 57 57 58 59 60 60 60 60 60 61 65 69 71 69 66 63
81 77 74 74 71 66 60 57 57 58 57 58 58 53 47 44 43 43 44 47 50 53 56 59 62 62 59 57 58 59 59 59 61 64 65 63 62 67 72 70 66 64
83 81 81 81 78 74 70 66 63 63 63 65 67 64 58 54 52 50 51 52 52 51 52 56 59 61 61 59 59 59 58 59 61 65 68 67 65 66 69 69 68 66
86 84 84 84 83 81 79 76 73 70 68 67 68 67 66 63 62 62 64 64 62 59 57 57 59 63 66 66 60 54 53 55 57 60 64 66 67 68 69 70 70 68
85 84 82 81 83 83 83 81 79 78 74 70 68 68 69 68 68 70 72 73 73 73 71 69 68 69 71 71 64 56 53 54 55 55 56 57 61 64 66 66 66 67
83 83 80 79 81 82 84 85 87 86 82 76 73 74 74 73 72 72 74 75 76 78 80 79 77 75 74 74 71 66 64 65 65 61 56 54 57 63 66 67 68 71
78 80 82 81 80 80 81 85 87 89 87 85 82 79 77 75 73 74 77 79 79 81 84 86 85 82 78 77 76 73 70 71 72 71 68 65 65 68 69 71 74 79
72 78 83 83 79 78 79 81 83 86 86 85 82 78 76 76 75 78 83 84 82 81 86 90 91 88 83 80 78 76 74 73 73 74 75 76 76 74 71 70 72 76
75 80 84 81 75 73 74 75 77 80 81 81 81 79 79 80 80 83 87 87 84 82 85 89 92 92 90 86 84 83 83 82 81 80 79 80 81 80 76 73 73 75

ECMWFNIL_prec_cthk_117.txt.gz
RH
53 55 56 54 52 52 50 50 50 49 49 47 44 43 40 38 38 36 35 35 36 38 38 37 38 40 42 43 42 41 40 40 41 39 39 39 39 40 41 42 43 44
52 54 57 58 56 55 53 53 53 51 50 50 47 45 43 40 39 37 35 34 36 37 37 36 36 38 42 43 42 43 43 43 42 40 39 39 37 38 38 39 41 41
51 53 56 58 59 58 56 57 57 54 52 51 49 47 45 43 42 41 37 35 35 36 35 36 36 36 38 38 38 41 43 44 44 41 38 40 39 37 37 38 39 40
49 51 53 57 59 57 57 58 59 57 54 53 51 50 49 47 46 45 43 39 37 38 37 36 37 36 35 35 34 36 37 37 40 40 39 41 42 39 37 37 38 41
48 49 52 56 59 58 57 59 60 59 58 55 54 54 53 50 48 48 48 46 42 42 41 39 39 38 36 34 34 34 34 33 34 34 35 39 41 41 39 37 37 40
44 49 52 55 58 58 59 60 62 62 60 57 56 56 54 52 51 51 51 51 49 47 45 43 42 41 39 35 34 34 35 34 33 32 31 32 36 39 40 38 37 38
39 46 50 53 56 59 59 60 62 63 61 58 58 58 56 54 54 53 54 56 55 53 50 46 44 44 41 38 35 35 36 36 35 34 32 31 33 36 38 39 38 38
36 42 47 49 52 55 57 58 59 60 59 58 58 59 59 56 56 57 58 58 59 58 54 50 47 45 44 42 39 38 37 37 37 36 35 35 34 35 37 38 38 36
36 38 42 45 47 49 52 52 54 55 57 57 58 58 59 58 58 59 58 58 58 58 56 53 50 47 45 45 44 42 41 40 39 38 37 36 36 37 38 38 38 37
37 36 38 40 41 44 47 48 49 51 54 56 57 57 57 58 59 59 59 58 57 56 55 54 53 49 47 47 46 45 44 43 43 42 41 39 38 37 39 40 41 39
37 35 35 35 37 40 42 43 46 47 49 52 55 55 55 57 61 61 61 60 58 57 56 55 53 52 50 50 49 47 47 47 46 45 45 45 42 40 40 41 43 43
38 37 35 34 35 37 38 39 41 43 45 47 50 51 52 55 58 60 60 59 58 58 57 56 56 56 55 54 51 49 50 50 48 46 45 45 45 44 43 44 45 46
40 39 39 38 37 38 39 38 39 40 42 44 45 47 49 51 54 55 56 56 56 57 59 60 60 60 60 58 55 52 51 51 50 48 46 44 44 45 46 45 46 47
44 42 42 42 42 42 42 41 40 40 41 42 43 44 46 48 51 51 51 52 53 54 57 59 60 62 62 61 59 56 54 52 51 50 48 45 44 45 44 44 45 46
54 49 46 47 49 51 50 47 45 44 43 43 43 43 45 46 48 49 49 50 51 52 54 55 56 58 60 61 60 58 55 53 52 52 51 49 48 49 50 50 48 46
64 60 57 56 57 60 62 59 53 50 48 46 46 46 47 46 46 47 48 49 51 52 53 53 53 54 57 58 58 57 56 55 53 53 53 53 53 55 57 57 55 51
73 72 70 67 66 68 69 65 58 55 52 50 50 50 50 49 47 47 48 50 52 53 53 53 53 53 54 56 55 55 56 56 55 53 53 53 54 56 58 60 61 59
79 78 76 73 75 79 78 70 61 59 58 56 54 53 51 50 49 49 50 52 53 54 54 54 54 55 54 55 55 55 56 57 57 56 54 54 54 55 57 59 61 62
83 82 79 78 80 84 85 80 73 68 66 59 54 54 54 52 51 49 48 49 51 52 53 55 56 57 57 56 56 56 57 58 58 58 58 58 56 56 56 57 59 62
85 85 84 83 83 83 86 86 81 76 73 63 53 53 54 54 53 53 51 49 48 48 49 51 52 54 56 58 59 59 59 59 59 59 59 60 60 60 59 59 60 62
84 83 83 84 83 82 83 83 79 77 76 70 62 58 60 61 61 61 59 56 52 50 48 48 48 50 53 55 58 60 61 61 60 58 57 57 59 61 61 61 63 64
87 86 85 84 82 81 81 80 80 80 79 77 73 71 72 75 75 73 68 64 61 58 55 55 54 55 55 54 55 56 58 60 61 61 59 56 57 59 61 62 64 65
90 90 88 86 83 80 80 80 81 81 79 80 81 81 82 84 85 83 78 72 68 64 62 63 64 65 66 65 64 63 62 62 65 67 65 59 54 54 57 60 62 62
90 91 90 88 84 81 81 81 82 82 82 82 84 86 86 87 87 85 80 76 73 70 69 70 71 73 75 77 78 77 75 73 71 71 71 67 62 59 60 62 64 63
87 88 88 87 83 81 80 80 81 82 84 85 87 90 91 91 90 86 81 78 78 77 75 74 74 75 78 81 83 84 85 84 80 76 74 74 73 72 71 71 71 70
86 85 85 84 83 82 80 80 80 80 81 83 87 91 93 92 89 85 81 79 81 81 80 79 79 81 82 85 86 86 87 89 88 83 79 78 79 80 80 79 79 78